Time,TemperatureF,DewpointF,PressureIn,WindDirection,WindDirectionDegrees,WindSpeedMPH,WindSpeedGustMPH,Humidity,HourlyPrecipIn,Conditions,Clouds,dailyrainin,SoftwareType,DateUTC
2013-04-11 00:00:00,41.6,41.6,29.83,East,84,18.8,18.8,100,0.00,,,0.39,VWS V14.01,2013-04-11 04:00:00,
2013-04-11 00:01:00,41.5,41.5,29.81,ENE,75,18.6,18.6,100,0.00,,,0.00,VWS V14.01,2013-04-11 04:01:00,
2013-04-11 00:02:00,41.6,41.6,29.82,ENE,66,13.1,18.6,100,0.00,,,0.00,VWS V14.01,2013-04-11 04:02:00,
2013-04-11 00:03:00,41.6,41.6,29.83,ENE,78,16.7,16.7,100,0.00,,,0.00,VWS V14.01,2013-04-11 04:03:00,
2013-04-11 00:04:00,41.6,41.6,29.86,ENE,71,18.4,18.4,100,0.00,,,0.00,VWS V14.01,2013-04-11 04:04:00,
2013-04-11 00:05:00,41.6,41.7,29.83,ENE,64,17.6,20.6,100,0.00,,,0.00,VWS V14.01,2013-04-11 04:05:00,
2013-04-11 00:06:00,41.6,41.6,29.83,ENE,74,16.9,17.6,100,0.00,,,0.00,VWS V14.01,2013-04-11 04:06:00,
2013-04-11 00:07:00,41.6,41.7,29.83,East,91,15.7,16.9,100,0.00,,,0.00,VWS V14.01,2013-04-11 04:07:00,
2013-04-11 00:08:00,41.6,41.7,29.83,ENE,69,16.7,16.7,100,0.00,,,0.00,VWS V14.01,2013-04-11 04:08:00,
2013-04-11 00:09:00,41.7,41.7,29.84,East,79,14.5,16.7,100,0.00,,,0.00,VWS V14.01,2013-04-11 04:09:00,
2013-04-11 00:10:00,41.6,41.6,29.85,East,88,17.7,17.7,100,0.00,,,0.00,VWS V14.01,2013-04-11 04:10:00,
2013-04-11 00:11:00,41.6,41.7,29.85,East,80,17.2,17.7,100,0.00,,,0.00,VWS V14.01,2013-04-11 04:11:00,
2013-04-11 00:12:00,41.7,41.8,29.85,ENE,75,12.4,17.7,100,0.00,,,0.00,VWS V14.01,2013-04-11 04:12:00,
2013-04-11 00:13:00,41.7,41.7,29.85,ENE,65,13.8,13.8,100,0.00,,,0.00,VWS V14.01,2013-04-11 04:13:00,
2013-04-11 00:14:00,41.7,41.7,29.84,ENE,65,17.6,17.6,100,0.00,,,0.00,VWS V14.01,2013-04-11 04:14:00,
2013-04-11 00:15:00,41.7,41.7,29.86,East,86,18.4,18.4,100,0.00,,,0.00,VWS V14.01,2013-04-11 04:15:00,
2013-04-11 00:16:00,41.7,41.7,29.86,ENE,73,15.5,18.4,100,0.00,,,0.00,VWS V14.01,2013-04-11 04:16:00,
2013-04-11 00:17:00,41.8,41.8,29.86,ESE,112,11.4,15.5,100,0.00,,,0.00,VWS V14.01,2013-04-11 04:17:00,
2013-04-11 00:18:00,41.8,41.8,29.86,SE,126,13.6,17.6,100,0.00,,,0.00,VWS V14.01,2013-04-11 04:18:00,
2013-04-11 00:19:00,41.7,41.7,29.86,ENE,57,16.0,16.0,100,0.00,,,0.00,VWS V14.01,2013-04-11 04:19:00,
2013-04-11 00:20:00,41.8,41.8,29.87,ENE,64,12.4,13.3,100,0.00,,,0.00,VWS V14.01,2013-04-11 04:20:00,
2013-04-11 00:21:00,41.8,41.8,29.87,East,89,12.8,12.8,100,0.00,,,0.00,VWS V14.01,2013-04-11 04:21:00,
2013-04-11 00:22:00,41.8,41.8,29.87,East,91,11.4,11.4,100,0.00,,,0.00,VWS V14.01,2013-04-11 04:22:00,
2013-04-11 00:23:00,41.8,41.8,29.87,East,82,14.5,14.5,100,0.00,,,0.00,VWS V14.01,2013-04-11 04:23:00,
2013-04-11 00:24:00,41.9,41.9,29.87,ESE,108,15.2,15.2,100,0.00,,,0.00,VWS V14.01,2013-04-11 04:24:00,
2013-04-11 00:25:00,41.9,41.9,29.87,East,97,15.2,15.2,100,0.00,,,0.00,VWS V14.01,2013-04-11 04:25:00,
2013-04-11 00:26:00,41.9,41.9,29.88,ENE,73,11.9,15.5,100,0.00,,,0.00,VWS V14.01,2013-04-11 04:26:00,
2013-04-11 00:27:00,41.8,41.8,29.88,East,94,15.2,15.2,100,0.00,,,0.00,VWS V14.01,2013-04-11 04:27:00,
2013-04-11 00:28:00,41.9,41.9,29.89,East,96,10.5,13.1,100,0.00,,,0.00,VWS V14.01,2013-04-11 04:28:00,
2013-04-11 00:29:00,41.9,41.9,29.89,East,97,11.2,11.2,100,0.00,,,0.00,VWS V14.01,2013-04-11 04:29:00,
2013-04-11 00:30:00,41.8,41.8,29.88,ENE,59,11.7,14.6,100,0.00,,,0.00,VWS V14.01,2013-04-11 04:30:00,
2013-04-11 00:31:00,41.9,41.9,29.88,East,87,9.9,11.7,100,0.00,,,0.00,VWS V14.01,2013-04-11 04:31:00,
2013-04-11 00:32:00,41.9,41.9,29.87,East,89,10.5,10.5,100,0.00,,,0.00,VWS V14.01,2013-04-11 04:32:00,
2013-04-11 00:33:00,42.0,42.0,29.88,ENE,67,12.3,12.3,100,0.00,,,0.00,VWS V14.01,2013-04-11 04:33:00,
2013-04-11 00:34:00,41.9,41.9,29.88,NE,54,10.7,12.1,100,0.00,,,0.00,VWS V14.01,2013-04-11 04:34:00,
2013-04-11 00:35:00,41.9,41.9,29.88,East,94,11.1,11.4,100,0.00,,,0.00,VWS V14.01,2013-04-11 04:35:00,
2013-04-11 00:36:00,41.8,41.8,29.87,ENE,74,12.6,12.6,100,0.00,,,0.00,VWS V14.01,2013-04-11 04:36:00,
2013-04-11 00:37:00,41.9,41.9,29.86,ENE,78,16.4,16.4,100,0.00,,,0.00,VWS V14.01,2013-04-11 04:37:00,
2013-04-11 00:38:00,41.9,41.9,29.86,ENE,63,10.5,10.5,100,0.00,,,0.00,VWS V14.01,2013-04-11 04:38:00,
2013-04-11 00:39:00,41.8,41.8,29.86,NE,52,15.3,15.3,100,0.00,,,0.00,VWS V14.01,2013-04-11 04:39:00,
2013-04-11 00:40:00,41.9,41.9,29.86,East,96,8.5,13.3,100,0.00,,,0.00,VWS V14.01,2013-04-11 04:40:00,
2013-04-11 00:41:00,41.9,41.9,29.85,East,87,13.1,13.1,100,0.00,,,0.00,VWS V14.01,2013-04-11 04:41:00,
2013-04-11 00:42:00,41.9,41.9,29.85,ENE,75,11.7,13.1,100,0.00,,,0.00,VWS V14.01,2013-04-11 04:42:00,
2013-04-11 00:43:00,41.9,41.9,29.87,ESE,102,11.6,11.7,100,0.00,,,0.00,VWS V14.01,2013-04-11 04:43:00,
2013-04-11 00:44:00,41.9,41.9,29.85,East,92,17.4,17.4,100,0.00,,,0.00,VWS V14.01,2013-04-11 04:44:00,
2013-04-11 00:45:00,41.9,41.9,29.85,East,98,16.4,17.4,100,0.00,,,0.00,VWS V14.01,2013-04-11 04:45:00,
2013-04-11 00:46:00,41.9,41.9,29.85,East,85,14.1,16.4,100,0.00,,,0.00,VWS V14.01,2013-04-11 04:46:00,
2013-04-11 00:47:00,42.0,42.0,29.85,East,81,15.8,15.8,100,0.00,,,0.00,VWS V14.01,2013-04-11 04:47:00,
2013-04-11 00:48:00,42.0,42.0,29.85,East,81,15.8,15.8,100,0.00,,,0.00,VWS V14.01,2013-04-11 04:48:00,
2013-04-11 00:49:00,42.0,42.0,29.86,East,82,18.1,18.1,100,0.00,,,0.00,VWS V14.01,2013-04-11 04:49:00,
2013-04-11 00:50:00,42.0,42.0,29.86,East,89,17.7,18.1,100,0.00,,,0.00,VWS V14.01,2013-04-11 04:50:00,
2013-04-11 00:51:00,42.0,42.0,29.86,East,94,16.2,17.7,100,0.00,,,0.00,VWS V14.01,2013-04-11 04:51:00,
2013-04-11 00:52:00,42.0,42.0,29.86,East,94,16.2,17.7,100,0.00,,,0.00,VWS V14.01,2013-04-11 04:52:00,
2013-04-11 00:53:00,42.1,42.1,29.87,East,89,11.9,13.8,100,0.00,,,0.00,VWS V14.01,2013-04-11 04:53:00,
2013-04-11 00:54:00,42.1,42.1,29.88,East,100,14.3,14.3,100,0.00,,,0.00,VWS V14.01,2013-04-11 04:54:00,
2013-04-11 00:55:00,42.1,42.1,29.87,ENE,78,11.4,12.6,100,0.00,,,0.00,VWS V14.01,2013-04-11 04:55:00,
2013-04-11 00:56:00,42.2,42.2,29.86,East,89,11.6,11.6,100,0.00,,,0.00,VWS V14.01,2013-04-11 04:56:00,
2013-04-11 00:57:00,42.0,42.0,29.86,East,97,14.6,14.6,100,0.00,,,0.00,VWS V14.01,2013-04-11 04:57:00,
2013-04-11 00:58:00,42.0,42.0,29.86,ENE,61,21.0,21.0,100,0.00,,,0.00,VWS V14.01,2013-04-11 04:58:00,
2013-04-11 00:59:00,42.4,42.4,29.86,ENE,75,20.0,24.7,100,0.00,,,0.00,VWS V14.01,2013-04-11 04:59:00,
2013-04-11 01:00:00,42.4,42.4,29.86,East,91,17.7,17.7,100,0.00,,,0.00,VWS V14.01,2013-04-11 05:00:00,
2013-04-11 01:01:00,42.3,42.3,29.90,East,93,14.8,17.7,100,0.00,,,0.00,VWS V14.01,2013-04-11 05:01:00,
2013-04-11 01:02:00,42.3,42.3,29.87,ENE,69,15.2,15.2,100,0.00,,,0.00,VWS V14.01,2013-04-11 05:02:00,
2013-04-11 01:03:00,42.3,42.3,29.86,ENE,75,19.1,19.1,100,0.00,,,0.00,VWS V14.01,2013-04-11 05:03:00,
2013-04-11 01:04:00,42.3,42.3,29.86,East,84,19.8,19.8,100,0.00,,,0.00,VWS V14.01,2013-04-11 05:04:00,
2013-04-11 01:05:00,42.3,42.3,29.86,East,80,14.3,19.8,100,0.00,,,0.00,VWS V14.01,2013-04-11 05:05:00,
2013-04-11 01:06:00,42.3,42.3,29.86,East,94,15.2,15.2,100,0.00,,,0.00,VWS V14.01,2013-04-11 05:06:00,
2013-04-11 01:07:00,42.2,42.2,29.87,East,80,8.7,14.8,100,0.00,,,0.00,VWS V14.01,2013-04-11 05:07:00,
2013-04-11 01:08:00,42.2,42.2,29.87,East,89,9.9,10.2,100,0.00,,,0.00,VWS V14.01,2013-04-11 05:08:00,
2013-04-11 01:09:00,42.2,42.2,29.87,East,93,9.0,10.5,100,0.00,,,0.00,VWS V14.01,2013-04-11 05:09:00,
2013-04-11 01:10:00,42.1,42.1,29.88,East,93,8.0,9.0,100,0.00,,,0.00,VWS V14.01,2013-04-11 05:10:00,
2013-04-11 01:11:00,42.1,42.1,29.88,East,93,8.0,9.0,100,0.00,,,0.00,VWS V14.01,2013-04-11 05:11:00,
2013-04-11 01:12:00,42.1,42.2,29.89,East,96,9.2,11.4,100,0.00,,,0.00,VWS V14.01,2013-04-11 05:12:00,
2013-04-11 01:13:00,42.2,42.2,29.90,East,79,10.2,11.1,100,0.00,,,0.00,VWS V14.01,2013-04-11 05:13:00,
2013-04-11 01:14:00,42.2,42.2,29.90,ESE,109,10.5,10.5,100,0.00,,,0.00,VWS V14.01,2013-04-11 05:14:00,
2013-04-11 01:15:00,42.2,42.2,29.90,ESE,120,6.6,10.5,100,0.00,,,0.00,VWS V14.01,2013-04-11 05:15:00,
2013-04-11 01:16:00,42.1,42.1,29.90,ESE,113,11.7,11.7,100,0.00,,,0.00,VWS V14.01,2013-04-11 05:16:00,
2013-04-11 01:17:00,42.1,42.1,29.89,East,90,11.4,11.4,100,0.00,,,0.00,VWS V14.01,2013-04-11 05:17:00,
2013-04-11 01:18:00,42.0,42.0,29.88,East,90,10.7,11.4,100,0.00,,,0.00,VWS V14.01,2013-04-11 05:18:00,
2013-04-11 01:19:00,42.0,42.0,29.87,East,81,10.0,10.7,100,0.00,,,0.00,VWS V14.01,2013-04-11 05:19:00,
2013-04-11 01:20:00,42.0,42.0,29.88,East,95,7.5,10.0,100,0.00,,,0.00,VWS V14.01,2013-04-11 05:20:00,
2013-04-11 01:21:00,42.1,42.1,29.89,ESE,112,10.9,10.9,100,0.00,,,0.00,VWS V14.01,2013-04-11 05:21:00,
2013-04-11 01:22:00,42.1,42.1,29.91,SE,126,9.0,9.0,100,0.00,,,0.00,VWS V14.01,2013-04-11 05:22:00,
2013-04-11 01:23:00,42.2,42.2,29.92,ESE,106,3.5,9.0,100,0.00,,,0.00,VWS V14.01,2013-04-11 05:23:00,
2013-04-11 01:24:00,42.2,42.2,29.94,ENE,73,2.7,4.7,100,0.00,,,0.00,VWS V14.01,2013-04-11 05:24:00,
2013-04-11 01:25:00,42.3,42.3,29.93,NE,56,2.2,2.7,100,0.00,,,0.00,VWS V14.01,2013-04-11 05:25:00,
2013-04-11 01:26:00,42.3,42.3,29.92,ENE,70,7.6,7.6,100,0.00,,,0.00,VWS V14.01,2013-04-11 05:26:00,
2013-04-11 01:27:00,42.2,42.2,29.92,ENE,73,4.2,4.2,100,0.00,,,0.00,VWS V14.01,2013-04-11 05:27:00,
2013-04-11 01:28:00,42.3,42.3,29.92,NE,40,6.3,6.3,100,0.00,,,0.00,VWS V14.01,2013-04-11 05:28:00,
2013-04-11 01:29:00,42.2,42.2,29.92,East,96,4.9,7.6,100,0.00,,,0.00,VWS V14.01,2013-04-11 05:29:00,
2013-04-11 01:30:00,42.2,42.2,29.92,ENE,78,12.9,12.9,100,0.00,,,0.00,VWS V14.01,2013-04-11 05:30:00,
2013-04-11 01:31:00,42.3,42.3,29.92,ENE,64,9.0,12.9,100,0.04,,,0.04,VWS V14.01,2013-04-11 05:31:00,
2013-04-11 01:32:00,42.3,42.3,29.91,East,91,10.5,10.5,100,0.04,,,0.04,VWS V14.01,2013-04-11 05:32:00,
2013-04-11 01:33:00,42.2,42.2,29.91,East,92,6.4,6.4,100,0.04,,,0.04,VWS V14.01,2013-04-11 05:33:00,
2013-04-11 01:34:00,42.1,42.1,29.91,East,99,9.2,9.2,100,0.04,,,0.04,VWS V14.01,2013-04-11 05:34:00,
2013-04-11 01:35:00,41.8,41.8,29.89,East,80,11.7,15.2,100,0.04,,,0.04,VWS V14.01,2013-04-11 05:35:00,
2013-04-11 01:36:00,41.7,41.7,29.89,East,91,18.2,18.2,100,0.04,,,0.04,VWS V14.01,2013-04-11 05:36:00,
2013-04-11 01:37:00,41.6,41.6,29.89,East,99,15.2,18.2,100,0.04,,,0.04,VWS V14.01,2013-04-11 05:37:00,
2013-04-11 01:38:00,41.6,41.6,29.89,ESE,108,13.8,15.2,100,0.04,,,0.04,VWS V14.01,2013-04-11 05:38:00,
2013-04-11 01:39:00,41.6,41.6,29.89,East,80,11.9,13.8,100,0.04,,,0.04,VWS V14.01,2013-04-11 05:39:00,
2013-04-11 01:40:00,41.7,41.7,29.87,ENE,74,10.4,15.3,100,0.04,,,0.04,VWS V14.01,2013-04-11 05:40:00,
2013-04-11 01:41:00,41.5,41.5,29.86,ENE,73,13.3,15.2,100,0.04,,,0.04,VWS V14.01,2013-04-11 05:41:00,
2013-04-11 01:42:00,41.5,41.5,29.86,East,95,12.9,13.3,100,0.04,,,0.04,VWS V14.01,2013-04-11 05:42:00,
2013-04-11 01:43:00,41.6,41.6,29.91,ENE,71,15.8,15.8,100,0.04,,,0.04,VWS V14.01,2013-04-11 05:43:00,
2013-04-11 01:44:00,41.6,41.6,29.89,East,101,11.6,15.8,100,0.04,,,0.04,VWS V14.01,2013-04-11 05:44:00,
2013-04-11 01:45:00,41.6,41.6,29.90,ESE,116,12.1,12.1,100,0.04,,,0.04,VWS V14.01,2013-04-11 05:45:00,
2013-04-11 01:46:00,41.4,41.4,29.89,East,95,17.6,17.6,100,0.04,,,0.04,VWS V14.01,2013-04-11 05:46:00,
2013-04-11 01:47:00,41.5,41.5,29.89,ENE,61,11.1,17.6,100,0.04,,,0.04,VWS V14.01,2013-04-11 05:47:00,
2013-04-11 01:48:00,41.5,41.5,29.89,ENE,70,11.7,11.7,100,0.04,,,0.04,VWS V14.01,2013-04-11 05:48:00,
2013-04-11 01:49:00,41.4,41.4,29.88,East,99,10.7,10.7,100,0.04,,,0.04,VWS V14.01,2013-04-11 05:49:00,
2013-04-11 01:50:00,41.4,41.4,29.88,East,99,10.7,10.7,100,0.04,,,0.04,VWS V14.01,2013-04-11 05:50:00,
2013-04-11 01:51:00,41.3,41.3,29.88,East,86,11.7,12.6,100,0.08,,,0.08,VWS V14.01,2013-04-11 05:51:00,
2013-04-11 01:52:00,41.2,41.2,29.86,East,86,20.0,20.0,100,0.08,,,0.08,VWS V14.01,2013-04-11 05:52:00,
2013-04-11 01:53:00,41.3,41.3,29.86,ENE,77,16.5,20.0,100,0.08,,,0.08,VWS V14.01,2013-04-11 05:53:00,
2013-04-11 01:54:00,41.3,41.3,29.87,ESE,107,14.0,16.5,100,0.08,,,0.08,VWS V14.01,2013-04-11 05:54:00,
2013-04-11 01:55:00,41.3,41.3,29.87,ESE,107,14.0,14.0,100,0.08,,,0.08,VWS V14.01,2013-04-11 05:55:00,
2013-04-11 01:56:00,41.3,41.3,29.86,ESE,106,16.9,16.9,100,0.08,,,0.08,VWS V14.01,2013-04-11 05:56:00,
2013-04-11 01:57:00,41.3,41.3,29.86,East,80,13.3,17.4,100,0.08,,,0.08,VWS V14.01,2013-04-11 05:57:00,
2013-04-11 01:58:00,41.3,41.3,29.85,East,101,13.8,13.8,100,0.08,,,0.08,VWS V14.01,2013-04-11 05:58:00,
2013-04-11 01:59:00,41.3,41.3,29.85,East,97,14.3,15.2,100,0.08,,,0.08,VWS V14.01,2013-04-11 05:59:00,
2013-04-11 02:00:00,41.3,41.3,29.85,East,97,14.3,15.2,100,0.08,,,0.08,VWS V14.01,2013-04-11 06:00:00,
2013-04-11 02:01:00,41.3,41.3,29.86,ESE,107,18.2,20.5,100,0.08,,,0.08,VWS V14.01,2013-04-11 06:01:00,
2013-04-11 02:02:00,41.3,41.3,29.85,SE,126,12.8,18.2,100,0.08,,,0.08,VWS V14.01,2013-04-11 06:02:00,
2013-04-11 02:03:00,41.3,41.3,29.85,ENE,72,18.2,18.2,100,0.08,,,0.08,VWS V14.01,2013-04-11 06:03:00,
2013-04-11 02:04:00,41.3,41.3,29.85,East,101,15.2,18.2,100,0.08,,,0.08,VWS V14.01,2013-04-11 06:04:00,
2013-04-11 02:05:00,41.2,41.2,29.86,East,96,12.9,12.9,100,0.08,,,0.08,VWS V14.01,2013-04-11 06:05:00,
2013-04-11 02:06:00,41.2,41.2,29.85,ENE,71,9.0,12.9,100,0.08,,,0.08,VWS V14.01,2013-04-11 06:06:00,
2013-04-11 02:07:00,41.2,41.2,29.86,East,99,13.6,13.6,100,0.12,,,0.12,VWS V14.01,2013-04-11 06:07:00,
2013-04-11 02:08:00,41.2,41.2,29.87,ENE,76,12.3,13.3,100,0.12,,,0.12,VWS V14.01,2013-04-11 06:08:00,
2013-04-11 02:09:00,41.2,41.2,29.87,East,85,10.7,15.2,100,0.12,,,0.12,VWS V14.01,2013-04-11 06:09:00,
2013-04-11 02:10:00,41.2,41.2,29.87,East,81,11.4,11.4,100,0.12,,,0.12,VWS V14.01,2013-04-11 06:10:00,
2013-04-11 02:11:00,41.2,40.2,29.86,ENE,63,12.8,20.0,96,0.12,,,0.12,VWS V14.01,2013-04-11 06:11:00,
2013-04-11 02:12:00,41.2,41.2,29.86,ENE,76,9.2,12.8,100,0.12,,,0.12,VWS V14.01,2013-04-11 06:12:00,
2013-04-11 02:13:00,41.2,41.2,29.86,NE,50,11.7,11.7,100,0.12,,,0.12,VWS V14.01,2013-04-11 06:13:00,
2013-04-11 02:14:00,41.1,41.1,29.86,East,84,16.2,16.2,100,0.16,,,0.16,VWS V14.01,2013-04-11 06:14:00,
2013-04-11 02:15:00,41.1,41.1,29.85,East,90,13.4,16.2,100,0.16,,,0.16,VWS V14.01,2013-04-11 06:15:00,
2013-04-11 02:16:00,41.0,41.0,29.85,ESE,122,12.4,14.5,100,0.16,,,0.16,VWS V14.01,2013-04-11 06:16:00,
2013-04-11 02:17:00,41.2,41.2,29.85,East,91,14.0,14.0,100,0.16,,,0.16,VWS V14.01,2013-04-11 06:17:00,
2013-04-11 02:18:00,41.0,41.0,29.84,ENE,71,18.2,22.5,100,0.16,,,0.16,VWS V14.01,2013-04-11 06:18:00,
2013-04-11 02:19:00,41.0,41.0,29.83,ESE,118,15.7,18.2,100,0.16,,,0.16,VWS V14.01,2013-04-11 06:19:00,
2013-04-11 02:20:00,40.9,40.9,29.82,East,91,16.9,16.9,100,0.16,,,0.16,VWS V14.01,2013-04-11 06:20:00,
2013-04-11 02:21:00,41.1,41.1,29.82,East,84,16.7,16.9,100,0.16,,,0.16,VWS V14.01,2013-04-11 06:21:00,
2013-04-11 02:22:00,41.1,41.1,29.82,ESE,120,13.6,18.9,100,0.16,,,0.16,VWS V14.01,2013-04-11 06:22:00,
2013-04-11 02:23:00,41.0,41.0,29.82,East,95,15.8,15.8,100,0.16,,,0.16,VWS V14.01,2013-04-11 06:23:00,
2013-04-11 02:24:00,41.0,41.0,29.83,East,100,20.0,20.0,100,0.16,,,0.16,VWS V14.01,2013-04-11 06:24:00,
2013-04-11 02:25:00,41.0,41.0,29.81,East,90,21.0,21.0,100,0.16,,,0.16,VWS V14.01,2013-04-11 06:25:00,
2013-04-11 02:26:00,41.0,41.0,29.82,ESE,102,17.0,21.0,100,0.16,,,0.16,VWS V14.01,2013-04-11 06:26:00,
2013-04-11 02:27:00,41.1,40.8,29.80,East,99,19.3,19.3,99,0.16,,,0.16,VWS V14.01,2013-04-11 06:27:00,
2013-04-11 02:28:00,41.1,41.1,29.80,ESE,103,14.5,19.3,100,0.16,,,0.16,VWS V14.01,2013-04-11 06:28:00,
2013-04-11 02:29:00,41.1,41.1,29.82,East,101,19.3,19.4,100,0.16,,,0.16,VWS V14.01,2013-04-11 06:29:00,
2013-04-11 02:30:00,41.1,40.5,29.82,ESE,104,15.8,22.5,98,0.16,,,0.16,VWS V14.01,2013-04-11 06:30:00,
2013-04-11 02:31:00,41.2,41.2,29.82,East,81,16.4,16.4,100,0.16,,,0.16,VWS V14.01,2013-04-11 06:31:00,
2013-04-11 02:32:00,41.6,41.6,29.81,ESE,103,16.0,16.0,100,0.12,,,0.16,VWS V14.01,2013-04-11 06:32:00,
2013-04-11 02:33:00,41.6,41.6,29.81,ESE,103,16.0,16.0,100,0.12,,,0.16,VWS V14.01,2013-04-11 06:33:00,
2013-04-11 02:34:00,41.6,41.6,29.81,ESE,103,16.0,16.0,100,0.12,,,0.16,VWS V14.01,2013-04-11 06:34:00,
2013-04-11 02:35:00,41.6,41.6,29.83,ENE,63,8.1,10.0,100,0.12,,,0.16,VWS V14.01,2013-04-11 06:35:00,
2013-04-11 02:36:00,41.7,41.7,29.84,NE,48,9.2,11.4,100,0.12,,,0.16,VWS V14.01,2013-04-11 06:36:00,
2013-04-11 02:37:00,41.6,41.6,29.88,East,89,9.7,9.7,100,0.12,,,0.16,VWS V14.01,2013-04-11 06:37:00,
2013-04-11 02:38:00,41.6,41.1,29.83,ENE,63,13.3,13.3,98,0.12,,,0.16,VWS V14.01,2013-04-11 06:38:00,
2013-04-11 02:39:00,41.5,41.5,29.83,ENE,73,12.3,13.3,100,0.12,,,0.16,VWS V14.01,2013-04-11 06:39:00,
2013-04-11 02:40:00,41.5,41.5,29.83,ENE,68,9.2,13.1,100,0.12,,,0.16,VWS V14.01,2013-04-11 06:40:00,
2013-04-11 02:41:00,41.6,41.0,29.83,ENE,75,14.6,14.6,98,0.12,,,0.16,VWS V14.01,2013-04-11 06:41:00,
2013-04-11 02:42:00,41.6,41.6,29.84,East,80,12.8,14.6,100,0.12,,,0.16,VWS V14.01,2013-04-11 06:42:00,
2013-04-11 02:43:00,41.6,41.6,29.83,East,84,16.5,16.5,100,0.12,,,0.16,VWS V14.01,2013-04-11 06:43:00,
2013-04-11 02:44:00,41.5,41.5,29.82,ENE,62,11.6,16.5,100,0.12,,,0.16,VWS V14.01,2013-04-11 06:44:00,
2013-04-11 02:45:00,41.6,41.6,29.83,NE,49,9.9,12.9,100,0.12,,,0.16,VWS V14.01,2013-04-11 06:45:00,
2013-04-11 02:46:00,41.6,40.7,29.83,East,87,10.5,10.5,97,0.12,,,0.16,VWS V14.01,2013-04-11 06:46:00,
2013-04-11 02:47:00,41.5,41.5,29.82,ENE,64,10.0,10.5,100,0.12,,,0.16,VWS V14.01,2013-04-11 06:47:00,
2013-04-11 02:48:00,41.4,41.4,29.82,East,82,11.6,13.6,100,0.12,,,0.16,VWS V14.01,2013-04-11 06:48:00,
2013-04-11 02:49:00,41.2,41.2,29.83,ENE,73,12.9,13.6,100,0.12,,,0.16,VWS V14.01,2013-04-11 06:49:00,
2013-04-11 02:50:00,41.3,41.3,29.85,East,100,13.1,13.8,100,0.08,,,0.16,VWS V14.01,2013-04-11 06:50:00,
2013-04-11 02:51:00,41.2,41.2,29.82,East,82,17.7,17.7,100,0.08,,,0.16,VWS V14.01,2013-04-11 06:51:00,
2013-04-11 02:52:00,41.1,41.1,29.82,ENE,71,18.4,18.4,100,0.08,,,0.16,VWS V14.01,2013-04-11 06:52:00,
2013-04-11 02:53:00,41.2,41.2,29.85,NE,51,23.0,23.0,100,0.08,,,0.16,VWS V14.01,2013-04-11 06:53:00,
2013-04-11 02:54:00,41.4,41.4,29.82,ESE,102,16.5,23.0,100,0.08,,,0.16,VWS V14.01,2013-04-11 06:54:00,
2013-04-11 02:55:00,41.3,41.3,29.80,East,90,14.0,18.4,100,0.08,,,0.16,VWS V14.01,2013-04-11 06:55:00,
2013-04-11 02:56:00,40.9,40.9,29.81,East,95,19.3,19.3,100,0.08,,,0.16,VWS V14.01,2013-04-11 06:56:00,
2013-04-11 02:57:00,40.9,40.9,29.81,ESE,107,17.4,19.3,100,0.08,,,0.16,VWS V14.01,2013-04-11 06:57:00,
2013-04-11 02:58:00,41.0,41.0,29.81,East,89,17.4,17.4,100,0.08,,,0.16,VWS V14.01,2013-04-11 06:58:00,
2013-04-11 02:59:00,41.0,41.0,29.82,ENE,62,19.1,19.1,100,0.08,,,0.16,VWS V14.01,2013-04-11 06:59:00,
2013-04-11 03:00:00,41.0,41.0,29.82,ENE,62,13.5,20.1,100,0.08,,,0.16,VWS V14.01,2013-04-11 07:00:00,
2013-04-11 03:01:00,41.0,41.0,29.82,ENE,59,14.0,14.0,100,0.08,,,0.16,VWS V14.01,2013-04-11 07:01:00,
2013-04-11 03:02:00,40.8,40.8,29.81,East,95,14.3,18.1,100,0.08,,,0.16,VWS V14.01,2013-04-11 07:02:00,
2013-04-11 03:03:00,40.9,40.9,29.82,East,92,10.9,10.9,100,0.08,,,0.16,VWS V14.01,2013-04-11 07:03:00,
2013-04-11 03:04:00,40.9,40.9,29.82,East,95,7.3,10.9,100,0.08,,,0.16,VWS V14.01,2013-04-11 07:04:00,
2013-04-11 03:05:00,40.9,40.9,29.82,NE,48,9.9,13.4,100,0.08,,,0.16,VWS V14.01,2013-04-11 07:05:00,
2013-04-11 03:06:00,40.8,40.8,29.82,ENE,60,13.6,13.6,100,0.08,,,0.16,VWS V14.01,2013-04-11 07:06:00,
2013-04-11 03:07:00,40.8,40.8,29.82,ENE,60,13.6,13.6,100,0.08,,,0.16,VWS V14.01,2013-04-11 07:07:00,
2013-04-11 03:08:00,40.6,40.6,29.83,ENE,62,15.2,16.0,100,0.08,,,0.20,VWS V14.01,2013-04-11 07:08:00,
2013-04-11 03:09:00,40.6,40.6,29.84,ENE,69,9.5,12.3,100,0.08,,,0.20,VWS V14.01,2013-04-11 07:09:00,
2013-04-11 03:10:00,40.6,40.6,29.84,ENE,70,10.5,10.5,100,0.08,,,0.20,VWS V14.01,2013-04-11 07:10:00,
2013-04-11 03:11:00,40.5,39.1,29.83,ENE,63,19.6,19.6,95,0.08,,,0.20,VWS V14.01,2013-04-11 07:11:00,
2013-04-11 03:12:00,40.7,40.7,29.83,ENE,67,11.7,19.6,100,0.08,,,0.20,VWS V14.01,2013-04-11 07:12:00,
2013-04-11 03:13:00,40.6,40.6,29.82,ENE,67,18.9,18.9,100,0.08,,,0.20,VWS V14.01,2013-04-11 07:13:00,
2013-04-11 03:14:00,40.7,40.7,29.82,ENE,68,17.7,18.9,100,0.08,,,0.20,VWS V14.01,2013-04-11 07:14:00,
2013-04-11 03:15:00,40.6,40.6,29.82,ENE,74,10.2,15.3,100,0.04,,,0.20,VWS V14.01,2013-04-11 07:15:00,
2013-04-11 03:16:00,40.6,40.6,29.81,East,85,16.5,16.5,100,0.04,,,0.20,VWS V14.01,2013-04-11 07:16:00,
2013-04-11 03:17:00,40.6,40.6,29.81,East,84,20.1,20.1,100,0.04,,,0.20,VWS V14.01,2013-04-11 07:17:00,
2013-04-11 03:18:00,40.6,40.6,29.81,ENE,62,15.8,20.1,100,0.04,,,0.20,VWS V14.01,2013-04-11 07:18:00,
2013-04-11 03:19:00,40.5,40.5,29.82,East,81,14.0,14.5,100,0.04,,,0.20,VWS V14.01,2013-04-11 07:19:00,
2013-04-11 03:20:00,40.6,40.6,29.81,ENE,71,14.3,14.3,100,0.04,,,0.20,VWS V14.01,2013-04-11 07:20:00,
2013-04-11 03:21:00,40.5,40.5,29.81,ENE,67,12.3,14.3,100,0.04,,,0.20,VWS V14.01,2013-04-11 07:21:00,
2013-04-11 03:22:00,40.6,40.6,29.82,ENE,73,19.6,19.6,100,0.04,,,0.20,VWS V14.01,2013-04-11 07:22:00,
2013-04-11 03:23:00,40.6,40.6,29.81,ESE,103,19.8,19.8,100,0.04,,,0.20,VWS V14.01,2013-04-11 07:23:00,
2013-04-11 03:24:00,40.6,40.6,29.82,ENE,66,18.1,18.1,100,0.04,,,0.20,VWS V14.01,2013-04-11 07:24:00,
2013-04-11 03:25:00,40.5,40.5,29.82,ENE,65,16.7,18.1,100,0.04,,,0.20,VWS V14.01,2013-04-11 07:25:00,
2013-04-11 03:26:00,40.6,40.6,29.82,ENE,77,18.2,18.2,100,0.04,,,0.20,VWS V14.01,2013-04-11 07:26:00,
2013-04-11 03:27:00,40.7,40.7,29.81,ENE,58,14.8,18.2,100,0.04,,,0.20,VWS V14.01,2013-04-11 07:27:00,
2013-04-11 03:28:00,40.7,40.7,29.81,ENE,59,12.4,17.0,100,0.04,,,0.20,VWS V14.01,2013-04-11 07:28:00,
2013-04-11 03:29:00,40.6,40.6,29.81,NE,56,14.0,14.0,100,0.04,,,0.20,VWS V14.01,2013-04-11 07:29:00,
2013-04-11 03:30:00,40.8,40.8,29.80,ENE,66,17.2,20.1,100,0.04,,,0.20,VWS V14.01,2013-04-11 07:30:00,
2013-04-11 03:31:00,41.4,41.4,29.81,ENE,71,16.4,17.2,100,0.04,,,0.20,VWS V14.01,2013-04-11 07:31:00,
2013-04-11 03:32:00,41.4,41.4,29.80,East,83,14.0,14.0,100,0.04,,,0.20,VWS V14.01,2013-04-11 07:32:00,
2013-04-11 03:33:00,41.3,41.3,29.80,ENE,66,9.7,17.6,100,0.04,,,0.20,VWS V14.01,2013-04-11 07:33:00,
2013-04-11 03:34:00,41.3,41.3,29.80,ENE,66,9.7,17.6,100,0.04,,,0.20,VWS V14.01,2013-04-11 07:34:00,
2013-04-11 03:35:00,40.8,40.8,29.80,NE,49,14.5,14.5,100,0.04,,,0.20,VWS V14.01,2013-04-11 07:35:00,
2013-04-11 03:36:00,40.7,40.7,29.79,East,93,19.1,19.1,100,0.04,,,0.20,VWS V14.01,2013-04-11 07:36:00,
2013-04-11 03:37:00,40.7,40.7,29.78,East,81,17.0,19.1,100,0.04,,,0.20,VWS V14.01,2013-04-11 07:37:00,
2013-04-11 03:38:00,40.7,40.7,29.79,ENE,73,11.6,17.0,100,0.04,,,0.20,VWS V14.01,2013-04-11 07:38:00,
2013-04-11 03:39:00,40.7,40.7,29.79,ENE,67,16.0,16.0,100,0.04,,,0.20,VWS V14.01,2013-04-11 07:39:00,
2013-04-11 03:40:00,40.6,40.6,29.79,East,81,14.1,16.0,100,0.04,,,0.20,VWS V14.01,2013-04-11 07:40:00,
2013-04-11 03:41:00,40.5,39.2,29.79,ENE,66,15.8,15.8,95,0.04,,,0.20,VWS V14.01,2013-04-11 07:41:00,
2013-04-11 03:42:00,40.5,40.5,29.79,ENE,77,15.7,15.8,100,0.04,,,0.20,VWS V14.01,2013-04-11 07:42:00,
2013-04-11 03:43:00,40.5,40.5,29.80,ENE,65,11.4,17.9,100,0.04,,,0.20,VWS V14.01,2013-04-11 07:43:00,
2013-04-11 03:44:00,40.5,39.4,29.80,NE,54,7.5,11.4,95,0.04,,,0.20,VWS V14.01,2013-04-11 07:44:00,
2013-04-11 03:45:00,40.5,40.5,29.80,NE,56,9.5,9.5,100,0.04,,,0.20,VWS V14.01,2013-04-11 07:45:00,
2013-04-11 03:46:00,40.5,40.5,29.80,NNE,23,9.3,9.5,100,0.04,,,0.20,VWS V14.01,2013-04-11 07:46:00,
2013-04-11 03:47:00,40.5,40.5,29.80,NE,47,10.0,10.0,100,0.04,,,0.20,VWS V14.01,2013-04-11 07:47:00,
2013-04-11 03:48:00,40.5,40.5,29.82,North,1,5.4,8.0,100,0.04,,,0.20,VWS V14.01,2013-04-11 07:48:00,
2013-04-11 03:49:00,40.6,40.6,29.83,NNW,338,3.0,7.6,100,0.08,,,0.24,VWS V14.01,2013-04-11 07:49:00,
2013-04-11 03:50:00,40.6,40.6,29.83,NNW,338,3.0,7.6,100,0.08,,,0.24,VWS V14.01,2013-04-11 07:50:00,
2013-04-11 03:51:00,40.6,40.0,29.91,WNW,289,21.7,21.7,98,0.08,,,0.24,VWS V14.01,2013-04-11 07:51:00,
2013-04-11 03:52:00,40.9,40.9,29.96,West,279,26.5,26.8,100,0.08,,,0.24,VWS V14.01,2013-04-11 07:52:00,
2013-04-11 03:53:00,40.9,40.9,29.96,West,279,26.5,26.8,100,0.08,,,0.24,VWS V14.01,2013-04-11 07:53:00,
2013-04-11 03:54:00,41.0,41.0,29.98,West,266,27.5,27.5,100,0.08,,,0.24,VWS V14.01,2013-04-11 07:54:00,
2013-04-11 03:55:00,40.9,40.9,29.97,West,272,17.6,17.6,100,0.08,,,0.24,VWS V14.01,2013-04-11 07:55:00,
2013-04-11 03:56:00,40.2,40.2,29.91,NE,43,9.7,17.6,100,0.16,,,0.31,VWS V14.01,2013-04-11 07:56:00,
2013-04-11 03:57:00,40.6,40.6,29.85,ENE,67,11.7,11.7,100,0.20,,,0.35,VWS V14.01,2013-04-11 07:57:00,
2013-04-11 03:58:00,40.5,40.5,29.83,ENE,76,12.6,12.6,100,0.20,,,0.35,VWS V14.01,2013-04-11 07:58:00,
2013-04-11 03:59:00,40.5,40.5,29.84,ENE,71,6.4,11.1,100,0.24,,,0.39,VWS V14.01,2013-04-11 07:59:00,
2013-04-11 04:00:00,40.6,40.6,29.84,East,85,10.4,10.4,100,0.24,,,0.39,VWS V14.01,2013-04-11 08:00:00,
2013-04-11 04:01:00,40.5,40.5,29.85,ENE,60,7.5,7.5,100,0.24,,,0.39,VWS V14.01,2013-04-11 08:01:00,
2013-04-11 04:02:00,40.6,40.6,29.85,NE,46,4.5,7.5,100,0.28,,,0.43,VWS V14.01,2013-04-11 08:02:00,
2013-04-11 04:03:00,40.6,40.6,29.86,NNW,328,4.9,4.9,100,0.28,,,0.43,VWS V14.01,2013-04-11 08:03:00,
2013-04-11 04:04:00,40.6,40.6,29.87,NW,323,5.7,7.1,100,0.28,,,0.43,VWS V14.01,2013-04-11 08:04:00,
2013-04-11 04:05:00,40.5,40.5,29.88,NW,322,6.4,6.4,100,0.28,,,0.43,VWS V14.01,2013-04-11 08:05:00,
2013-04-11 04:06:00,40.5,40.5,29.89,North,1,2.0,6.4,100,0.28,,,0.43,VWS V14.01,2013-04-11 08:06:00,
2013-04-11 04:07:00,40.5,40.5,29.88,NE,40,2.7,2.7,100,0.28,,,0.43,VWS V14.01,2013-04-11 08:07:00,
2013-04-11 04:08:00,40.5,40.5,29.88,NE,43,4.0,5.6,100,0.28,,,0.43,VWS V14.01,2013-04-11 08:08:00,
2013-04-11 04:09:00,40.5,40.5,29.88,NE,47,5.2,6.6,100,0.24,,,0.43,VWS V14.01,2013-04-11 08:09:00,
2013-04-11 04:10:00,40.4,40.4,29.87,ENE,59,7.3,7.3,100,0.24,,,0.43,VWS V14.01,2013-04-11 08:10:00,
2013-04-11 04:11:00,40.5,40.5,29.87,ENE,76,5.2,7.3,100,0.24,,,0.43,VWS V14.01,2013-04-11 08:11:00,
2013-04-11 04:12:00,40.6,40.6,29.86,NE,41,6.3,6.3,100,0.24,,,0.43,VWS V14.01,2013-04-11 08:12:00,
2013-04-11 04:13:00,40.5,40.5,29.87,NE,50,5.9,6.3,100,0.28,,,0.47,VWS V14.01,2013-04-11 08:13:00,
2013-04-11 04:14:00,40.6,40.6,29.87,NE,52,7.5,7.5,100,0.28,,,0.47,VWS V14.01,2013-04-11 08:14:00,
2013-04-11 04:15:00,40.8,40.8,29.86,ENE,64,5.2,7.5,100,0.28,,,0.47,VWS V14.01,2013-04-11 08:15:00,
2013-04-11 04:16:00,40.6,40.6,29.86,East,94,4.4,8.1,100,0.28,,,0.47,VWS V14.01,2013-04-11 08:16:00,
2013-04-11 04:17:00,40.6,40.6,29.86,ESE,109,4.2,4.7,100,0.28,,,0.47,VWS V14.01,2013-04-11 08:17:00,
2013-04-11 04:18:00,40.5,40.5,29.86,East,92,6.8,6.8,100,0.28,,,0.47,VWS V14.01,2013-04-11 08:18:00,
2013-04-11 04:19:00,40.8,40.8,29.86,ENE,76,6.6,6.8,100,0.28,,,0.47,VWS V14.01,2013-04-11 08:19:00,
2013-04-11 04:20:00,40.8,40.8,29.86,ESE,105,5.2,6.8,100,0.28,,,0.47,VWS V14.01,2013-04-11 08:20:00,
2013-04-11 04:21:00,40.5,40.5,29.86,East,96,7.3,7.3,100,0.28,,,0.47,VWS V14.01,2013-04-11 08:21:00,
2013-04-11 04:22:00,40.5,40.5,29.86,ESE,106,6.9,7.3,100,0.28,,,0.47,VWS V14.01,2013-04-11 08:22:00,
2013-04-11 04:23:00,40.5,40.5,29.86,East,89,7.1,7.1,100,0.28,,,0.47,VWS V14.01,2013-04-11 08:23:00,
2013-04-11 04:24:00,40.5,40.5,29.88,East,96,9.0,9.0,100,0.28,,,0.47,VWS V14.01,2013-04-11 08:24:00,
2013-04-11 04:25:00,40.5,40.5,29.87,East,98,8.0,8.0,100,0.28,,,0.47,VWS V14.01,2013-04-11 08:25:00,
2013-04-11 04:26:00,40.8,40.8,29.91,ENE,75,5.6,7.8,100,0.28,,,0.47,VWS V14.01,2013-04-11 08:26:00,
2013-04-11 04:27:00,41.0,41.0,29.88,ESE,104,6.4,7.3,100,0.31,,,0.51,VWS V14.01,2013-04-11 08:27:00,
2013-04-11 04:28:00,40.9,40.9,29.87,East,96,6.6,7.1,100,0.31,,,0.51,VWS V14.01,2013-04-11 08:28:00,
2013-04-11 04:29:00,40.9,40.9,29.87,ESE,103,6.3,8.3,100,0.31,,,0.51,VWS V14.01,2013-04-11 08:29:00,
2013-04-11 04:30:00,40.9,40.9,29.87,ESE,117,6.8,6.8,100,0.31,,,0.51,VWS V14.01,2013-04-11 08:30:00,
2013-04-11 04:31:00,41.1,41.1,29.87,ESE,106,8.3,9.0,100,0.31,,,0.51,VWS V14.01,2013-04-11 08:31:00,
2013-04-11 04:32:00,41.0,41.0,29.87,ESE,111,9.3,11.2,100,0.31,,,0.51,VWS V14.01,2013-04-11 08:32:00,
2013-04-11 04:33:00,40.9,40.9,29.86,East,96,8.5,9.3,100,0.31,,,0.51,VWS V14.01,2013-04-11 08:33:00,
2013-04-11 04:34:00,40.9,40.9,29.86,East,86,10.4,10.4,100,0.31,,,0.51,VWS V14.01,2013-04-11 08:34:00,
2013-04-11 04:35:00,40.6,40.6,29.86,ESE,122,12.3,12.3,100,0.31,,,0.51,VWS V14.01,2013-04-11 08:35:00,
2013-04-11 04:36:00,40.5,40.5,29.90,ESE,122,9.3,10.7,100,0.31,,,0.51,VWS V14.01,2013-04-11 08:36:00,
2013-04-11 04:37:00,40.5,40.5,29.87,ESE,102,10.7,10.7,100,0.31,,,0.51,VWS V14.01,2013-04-11 08:37:00,
2013-04-11 04:38:00,40.4,40.4,29.86,ESE,110,8.5,10.7,100,0.31,,,0.51,VWS V14.01,2013-04-11 08:38:00,
2013-04-11 04:39:00,40.4,40.4,29.86,ESE,109,11.2,11.2,100,0.31,,,0.51,VWS V14.01,2013-04-11 08:39:00,
2013-04-11 04:40:00,40.4,40.4,29.86,ESE,111,9.2,11.2,100,0.31,,,0.51,VWS V14.01,2013-04-11 08:40:00,
2013-04-11 04:41:00,40.7,40.7,29.86,NE,53,6.8,9.2,100,0.31,,,0.51,VWS V14.01,2013-04-11 08:41:00,
2013-04-11 04:42:00,40.8,40.8,29.87,ESE,119,12.6,12.6,100,0.31,,,0.51,VWS V14.01,2013-04-11 08:42:00,
2013-04-11 04:43:00,40.7,40.7,29.86,ESE,119,8.7,12.6,100,0.31,,,0.51,VWS V14.01,2013-04-11 08:43:00,
2013-04-11 04:44:00,40.8,40.8,29.86,ESE,107,10.7,12.4,100,0.31,,,0.51,VWS V14.01,2013-04-11 08:44:00,
2013-04-11 04:45:00,40.8,40.8,29.86,East,101,8.1,10.7,100,0.31,,,0.51,VWS V14.01,2013-04-11 08:45:00,
2013-04-11 04:46:00,40.8,40.8,29.86,ESE,115,6.6,8.8,100,0.31,,,0.51,VWS V14.01,2013-04-11 08:46:00,
2013-04-11 04:47:00,40.9,40.9,29.87,ENE,70,9.5,9.5,100,0.31,,,0.51,VWS V14.01,2013-04-11 08:47:00,
2013-04-11 04:48:00,40.6,40.6,29.86,ESE,107,10.0,10.0,100,0.31,,,0.51,VWS V14.01,2013-04-11 08:48:00,
2013-04-11 04:49:00,40.5,40.5,29.87,ESE,119,11.1,11.1,100,0.31,,,0.51,VWS V14.01,2013-04-11 08:49:00,
2013-04-11 04:50:00,40.6,40.6,29.86,East,86,10.4,11.9,100,0.28,,,0.51,VWS V14.01,2013-04-11 08:50:00,
2013-04-11 04:51:00,40.8,40.8,29.86,East,89,9.9,11.6,100,0.31,,,0.55,VWS V14.01,2013-04-11 08:51:00,
2013-04-11 04:52:00,40.5,40.5,29.86,ESE,114,11.1,11.1,100,0.31,,,0.55,VWS V14.01,2013-04-11 08:52:00,
2013-04-11 04:53:00,40.5,40.5,29.86,ESE,111,8.8,11.1,100,0.31,,,0.55,VWS V14.01,2013-04-11 08:53:00,
2013-04-11 04:54:00,40.6,40.6,29.85,ESE,110,8.5,10.7,100,0.31,,,0.55,VWS V14.01,2013-04-11 08:54:00,
2013-04-11 04:55:00,40.7,40.7,29.86,East,93,9.2,9.2,100,0.31,,,0.55,VWS V14.01,2013-04-11 08:55:00,
2013-04-11 04:56:00,40.7,40.7,29.86,East,80,8.7,9.2,100,0.31,,,0.55,VWS V14.01,2013-04-11 08:56:00,
2013-04-11 04:57:00,40.5,40.5,29.86,ESE,106,9.5,10.9,100,0.24,,,0.55,VWS V14.01,2013-04-11 08:57:00,
2013-04-11 04:58:00,40.6,40.6,29.86,East,101,9.3,9.5,100,0.20,,,0.55,VWS V14.01,2013-04-11 08:58:00,
2013-04-11 04:59:00,40.4,40.4,29.86,ESE,111,10.2,10.7,100,0.16,,,0.55,VWS V14.01,2013-04-11 08:59:00,
2013-04-11 05:00:00,40.5,40.5,29.85,East,92,11.1,11.1,100,0.16,,,0.55,VWS V14.01,2013-04-11 09:00:00,
2013-04-11 05:03:00,40.3,40.3,29.86,ESE,104,11.2,11.2,100,0.04,,,0.59,VWS V14.01,2013-04-11 09:03:00,
2013-04-11 05:04:00,40.3,40.3,29.85,East,92,12.6,13.6,100,0.04,,,0.59,VWS V14.01,2013-04-11 09:04:00,
2013-04-11 05:06:00,40.5,40.5,29.85,ESE,106,12.8,13.6,100,0.04,,,0.59,VWS V14.01,2013-04-11 09:06:00,
2013-04-11 05:08:00,40.5,40.5,29.85,East,99,11.6,12.9,100,0.04,,,0.59,VWS V14.01,2013-04-11 09:08:00,
2013-04-11 05:09:00,40.6,40.6,29.84,ESE,108,12.4,13.8,100,0.04,,,0.59,VWS V14.01,2013-04-11 09:09:00,
2013-04-11 05:12:00,40.5,40.6,29.84,East,98,12.4,12.4,100,0.04,,,0.00,VWS V14.01,2013-04-11 09:12:00,
2013-04-11 05:13:00,40.5,40.5,29.82,East,94,13.6,15.5,100,0.04,,,0.59,VWS V14.01,2013-04-11 09:13:00,
2013-04-11 05:15:00,40.4,40.4,29.83,ESE,104,15.7,17.6,100,0.04,,,0.59,VWS V14.01,2013-04-11 09:15:00,
2013-04-11 05:18:00,40.4,40.4,29.81,East,91,14.5,14.5,100,0.04,,,0.59,VWS V14.01,2013-04-11 09:18:00,
2013-04-11 05:20:00,40.2,40.2,29.82,ESE,113,15.3,16.4,100,0.04,,,0.59,VWS V14.01,2013-04-11 09:20:00,
2013-04-11 05:21:00,40.3,40.3,29.83,East,96,12.3,12.3,100,0.04,,,0.59,VWS V14.01,2013-04-11 09:21:00,
2013-04-11 05:22:00,40.2,40.2,29.83,ESE,105,16.5,16.5,100,0.04,,,0.59,VWS V14.01,2013-04-11 09:22:00,
2013-04-11 05:23:00,40.3,40.3,29.83,East,92,10.2,10.2,100,0.04,,,0.59,VWS V14.01,2013-04-11 09:23:00,
2013-04-11 05:27:00,40.5,40.5,29.83,SE,127,15.0,15.3,100,0.04,,,0.59,VWS V14.01,2013-04-11 09:27:00,
2013-04-11 05:28:00,40.4,40.4,29.83,ESE,108,18.9,18.9,100,0.08,,,0.63,VWS V14.01,2013-04-11 09:28:00,
2013-04-11 05:29:00,40.5,40.5,29.82,ESE,115,11.4,13.5,100,0.08,,,0.63,VWS V14.01,2013-04-11 09:29:00,
2013-04-11 05:33:00,40.4,40.4,29.81,ESE,102,13.6,18.8,100,0.08,,,0.63,VWS V14.01,2013-04-11 09:33:00,
2013-04-11 05:34:00,40.3,40.3,29.81,East,99,12.1,13.6,100,0.08,,,0.63,VWS V14.01,2013-04-11 09:34:00,
2013-04-11 05:35:00,40.3,40.3,29.80,East,97,13.8,15.0,100,0.08,,,0.63,VWS V14.01,2013-04-11 09:35:00,
2013-04-11 05:39:00,40.4,40.4,29.78,ESE,106,12.8,16.4,100,0.08,,,0.63,VWS V14.01,2013-04-11 09:39:00,
2013-04-11 05:40:00,40.3,40.3,29.78,East,95,15.2,15.2,100,0.08,,,0.63,VWS V14.01,2013-04-11 09:40:00,
2013-04-11 05:41:00,40.4,40.4,29.79,East,81,12.1,15.2,100,0.08,,,0.63,VWS V14.01,2013-04-11 09:41:00,
2013-04-11 05:44:00,40.4,40.4,29.79,East,94,11.4,13.6,100,0.08,,,0.63,VWS V14.01,2013-04-11 09:44:00,
2013-04-11 05:46:00,40.5,40.5,29.81,NE,53,15.0,15.0,100,0.08,,,0.63,VWS V14.01,2013-04-11 09:46:00,
2013-04-11 05:51:00,40.5,40.5,29.82,East,87,9.7,9.7,100,0.08,,,0.63,VWS V14.01,2013-04-11 09:51:00,
2013-04-11 05:52:00,40.5,40.5,29.82,East,99,9.9,10.5,100,0.08,,,0.63,VWS V14.01,2013-04-11 09:52:00,
2013-04-11 05:53:00,40.6,40.6,29.82,East,99,10.4,10.4,100,0.08,,,0.63,VWS V14.01,2013-04-11 09:53:00,
2013-04-11 05:57:00,41.2,41.2,29.84,East,79,13.8,13.8,100,0.08,,,0.63,VWS V14.01,2013-04-11 09:57:00,
2013-04-11 05:58:00,41.2,41.2,29.83,East,90,14.8,14.8,100,0.08,,,0.63,VWS V14.01,2013-04-11 09:58:00,
2013-04-11 05:59:00,41.1,41.1,29.83,ESE,116,9.0,14.8,100,0.08,,,0.63,VWS V14.01,2013-04-11 09:59:00,
2013-04-11 06:00:00,40.5,40.5,29.85,ENE,59,10.7,11.1,100,0.16,,,0.55,VWS V14.01,2013-04-11 10:00:00,
2013-04-11 06:01:00,40.3,40.3,29.85,ESE,112,11.9,11.9,100,0.00,,,0.55,VWS V14.01,2013-04-11 10:01:00,
2013-04-11 06:02:00,40.4,40.4,29.86,East,101,10.5,11.9,100,0.00,,,0.55,VWS V14.01,2013-04-11 10:02:00,
2013-04-11 06:03:00,41.1,41.1,29.81,ESE,117,10.4,16.2,100,0.00,,,0.63,VWS V14.01,2013-04-11 10:03:00,
2013-04-11 06:04:00,41.2,41.2,29.81,East,97,16.0,16.2,100,0.00,,,0.63,VWS V14.01,2013-04-11 10:04:00,
2013-04-11 06:05:00,41.2,41.2,29.81,ENE,77,12.1,16.2,100,0.00,,,0.63,VWS V14.01,2013-04-11 10:05:00,
2013-04-11 06:06:00,40.5,40.5,29.85,ESE,106,12.8,13.6,100,0.04,,,0.59,VWS V14.01,2013-04-11 10:06:00,
2013-04-11 06:07:00,40.6,40.6,29.85,ESE,104,10.7,12.8,100,0.04,,,0.59,VWS V14.01,2013-04-11 10:07:00,
2013-04-11 06:08:00,40.5,40.5,29.85,East,99,11.6,12.9,100,0.04,,,0.59,VWS V14.01,2013-04-11 10:08:00,
2013-04-11 06:09:00,41.1,41.1,29.81,ESE,105,15.0,16.2,100,0.00,,,0.63,VWS V14.01,2013-04-11 10:09:00,
2013-04-11 06:10:00,40.6,40.6,29.84,East,85,13.3,13.3,100,0.04,,,0.59,VWS V14.01,2013-04-11 10:10:00,
2013-04-11 06:11:00,41.2,41.2,29.80,East,88,15.7,16.2,100,0.00,,,0.63,VWS V14.01,2013-04-11 10:11:00,
2013-04-11 06:12:00,40.6,40.6,29.84,East,98,12.4,12.4,100,0.04,,,0.59,VWS V14.01,2013-04-11 10:12:00,
2013-04-11 06:13:00,40.5,40.5,29.82,East,94,13.6,15.5,100,0.04,,,0.59,VWS V14.01,2013-04-11 10:13:00,
2013-04-11 06:14:00,41.3,41.3,29.81,East,98,14.8,16.2,100,0.00,,,0.63,VWS V14.01,2013-04-11 10:14:00,
2013-04-11 06:15:00,40.4,40.4,29.82,ESE,103,13.8,17.6,100,0.04,,,0.59,VWS V14.01,2013-04-11 10:15:00,
2013-04-11 06:16:00,41.3,41.3,29.82,East,93,11.1,16.4,100,0.00,,,0.63,VWS V14.01,2013-04-11 10:16:00,
2013-04-11 06:17:00,41.3,41.3,29.80,ESE,123,10.4,16.4,100,0.00,,,0.63,VWS V14.01,2013-04-11 10:17:00,
2013-04-11 06:18:00,40.4,40.4,29.81,East,91,14.5,14.5,100,0.04,,,0.59,VWS V14.01,2013-04-11 10:18:00,
2013-04-11 06:19:00,40.3,40.3,29.81,SE,130,16.4,16.4,100,0.04,,,0.59,VWS V14.01,2013-04-11 10:19:00,
2013-04-11 06:20:00,40.2,40.2,29.82,ESE,113,15.3,16.4,100,0.04,,,0.59,VWS V14.01,2013-04-11 10:20:00,
2013-04-11 06:21:00,40.3,40.3,29.83,East,96,12.3,18.1,100,0.04,,,0.59,VWS V14.01,2013-04-11 10:21:00,
2013-04-11 06:22:00,41.4,41.4,29.81,ESE,105,12.1,16.4,100,0.00,,,0.63,VWS V14.01,2013-04-11 10:22:00,
2013-04-11 06:23:00,41.3,41.3,29.80,East,86,10.2,16.4,100,0.00,,,0.63,VWS V14.01,2013-04-11 10:23:00,
2013-04-11 06:24:00,41.4,41.4,29.79,East,100,11.2,16.4,100,0.00,,,0.63,VWS V14.01,2013-04-11 10:24:00,
2013-04-11 06:25:00,40.3,40.3,29.86,ESE,105,14.3,14.3,100,0.04,,,0.59,VWS V14.01,2013-04-11 10:25:00,
2013-04-11 06:26:00,40.3,40.3,29.83,ESE,105,15.3,15.3,100,0.04,,,0.59,VWS V14.01,2013-04-11 10:26:00,
2013-04-11 06:27:00,41.3,41.3,29.81,East,95,14.3,17.0,100,0.00,,,0.63,VWS V14.01,2013-04-11 10:27:00,
2013-04-11 06:28:00,41.3,41.3,29.80,ESE,113,13.1,17.0,100,0.00,,,0.63,VWS V14.01,2013-04-11 10:28:00,
2013-04-11 06:29:00,41.3,41.3,29.79,East,91,12.8,19.4,100,0.00,,,0.63,VWS V14.01,2013-04-11 10:29:00,
2013-04-11 06:30:00,41.3,41.3,29.79,East,92,11.2,19.4,100,0.00,,,0.63,VWS V14.01,2013-04-11 10:30:00,
2013-04-11 06:31:00,40.4,40.4,29.82,East,100,17.2,17.2,100,0.08,,,0.63,VWS V14.01,2013-04-11 10:31:00,
2013-04-11 06:32:00,41.4,41.4,29.80,ESE,116,13.8,19.4,100,0.00,,,0.63,VWS V14.01,2013-04-11 10:32:00,
2013-04-11 06:33:00,40.4,40.4,29.81,ESE,102,13.6,18.8,100,0.08,,,0.63,VWS V14.01,2013-04-11 10:33:00,
2013-04-11 06:34:00,41.4,41.4,29.79,East,99,15.2,19.4,100,0.00,,,0.63,VWS V14.01,2013-04-11 10:34:00,
2013-04-11 06:35:00,40.3,40.3,29.80,East,97,13.8,15.0,100,0.08,,,0.63,VWS V14.01,2013-04-11 10:35:00,
2013-04-11 06:36:00,40.4,40.4,29.79,ESE,120,14.6,14.6,100,0.08,,,0.63,VWS V14.01,2013-04-11 10:36:00,
2013-04-11 06:37:00,41.3,41.3,29.80,East,94,13.5,19.4,100,0.00,,,0.63,VWS V14.01,2013-04-11 10:37:00,
2013-04-11 06:38:00,40.3,40.3,29.79,ESE,103,16.4,16.4,100,0.08,,,0.63,VWS V14.01,2013-04-11 10:38:00,
2013-04-11 06:39:00,41.3,41.3,29.80,ENE,76,9.3,19.4,100,0.00,,,0.63,VWS V14.01,2013-04-11 10:39:00,
2013-04-11 06:40:00,41.3,41.3,29.80,ENE,76,9.3,19.4,100,0.00,,,0.63,VWS V14.01,2013-04-11 10:40:00,
2013-04-11 06:41:00,40.4,40.4,29.79,East,81,12.1,15.2,100,0.08,,,0.63,VWS V14.01,2013-04-11 10:41:00,
2013-04-11 06:42:00,41.4,41.4,29.81,ESE,110,13.6,19.4,100,0.00,,,0.63,VWS V14.01,2013-04-11 10:42:00,
2013-04-11 06:43:00,40.5,40.5,29.79,East,96,13.6,14.8,100,0.08,,,0.63,VWS V14.01,2013-04-11 10:43:00,
2013-04-11 06:44:00,40.5,40.5,29.80,ENE,77,14.8,14.8,100,0.08,,,0.63,VWS V14.01,2013-04-11 10:44:00,
2013-04-11 06:45:00,41.3,41.3,29.82,ESE,105,8.1,19.4,100,0.00,,,0.63,VWS V14.01,2013-04-11 10:45:00,
2013-04-11 06:46:00,40.5,40.5,29.81,NE,53,15.0,15.0,100,0.08,,,0.63,VWS V14.01,2013-04-11 10:46:00,
2013-04-11 06:47:00,41.3,41.3,29.81,East,95,12.1,19.4,100,0.00,,,0.63,VWS V14.01,2013-04-11 10:47:00,
2013-04-11 06:48:00,41.5,41.5,29.81,East,94,10.2,19.4,100,0.00,,,0.63,VWS V14.01,2013-04-11 10:48:00,
2013-04-11 06:49:00,40.5,40.5,29.82,ENE,58,9.0,10.5,100,0.08,,,0.63,VWS V14.01,2013-04-11 10:49:00,
2013-04-11 06:50:00,41.3,41.3,29.82,ESE,105,8.5,19.4,100,0.00,,,0.63,VWS V14.01,2013-04-11 10:50:00,
2013-04-11 06:51:00,40.5,40.5,29.82,East,87,9.7,9.7,100,0.08,,,0.63,VWS V14.01,2013-04-11 10:51:00,
2013-04-11 06:52:00,40.5,40.5,29.82,East,99,9.9,10.5,100,0.08,,,0.63,VWS V14.01,2013-04-11 10:52:00,
2013-04-11 06:53:00,41.4,41.4,29.82,ENE,63,8.7,19.4,100,0.00,,,0.63,VWS V14.01,2013-04-11 10:53:00,
2013-04-11 06:54:00,41.4,41.4,29.81,East,100,10.2,19.4,100,0.00,,,0.63,VWS V14.01,2013-04-11 10:54:00,
2013-04-11 06:55:00,41.2,41.2,29.82,East,83,10.4,10.4,100,0.08,,,0.63,VWS V14.01,2013-04-11 10:55:00,
2013-04-11 06:56:00,41.3,41.4,29.82,East,89,6.8,19.4,100,0.00,,,0.63,VWS V14.01,2013-04-11 10:56:00,
2013-04-11 06:57:00,41.2,41.2,29.83,East,91,9.2,13.1,100,0.08,,,0.63,VWS V14.01,2013-04-11 10:57:00,
2013-04-11 06:58:00,41.2,41.2,29.83,East,90,14.8,14.8,100,0.08,,,0.63,VWS V14.01,2013-04-11 10:58:00,
2013-04-11 06:59:00,41.4,41.4,29.82,ENE,74,15.3,19.4,100,0.00,,,0.63,VWS V14.01,2013-04-11 10:59:00,
2013-04-11 07:00:00,41.4,41.4,29.82,ENE,74,15.3,19.4,100,0.00,,,0.63,VWS V14.01,2013-04-11 11:00:00,
2013-04-11 07:03:00,41.4,41.4,29.82,ENE,78,9.2,19.4,100,0.00,,,0.63,VWS V14.01,2013-04-11 11:03:00,
2013-04-11 07:05:00,41.4,41.4,29.80,East,87,11.1,19.4,100,0.00,,,0.63,VWS V14.01,2013-04-11 11:05:00,
2013-04-11 07:08:00,41.4,41.4,29.82,ENE,74,9.0,19.4,100,0.00,,,0.63,VWS V14.01,2013-04-11 11:08:00,
2013-04-11 07:09:00,41.4,41.4,29.82,ENE,74,9.0,19.4,100,0.00,,,0.63,VWS V14.01,2013-04-11 11:09:00,
2013-04-11 07:11:00,41.5,41.5,29.83,East,93,10.4,19.4,100,0.00,,,0.63,VWS V14.01,2013-04-11 11:11:00,
2013-04-11 07:14:00,41.4,41.4,29.83,East,96,9.5,19.4,100,0.00,,,0.63,VWS V14.01,2013-04-11 11:14:00,
2013-04-11 07:15:00,41.4,41.4,29.83,ENE,77,10.0,19.4,100,0.00,,,0.63,VWS V14.01,2013-04-11 11:15:00,
2013-04-11 07:16:00,41.3,41.3,29.83,East,99,10.2,19.4,100,0.00,,,0.63,VWS V14.01,2013-04-11 11:16:00,
2013-04-11 07:18:00,41.2,41.2,29.82,East,81,8.8,19.4,100,0.00,,,0.63,VWS V14.01,2013-04-11 11:18:00,
2013-04-11 07:21:00,41.0,41.0,29.82,East,101,14.8,19.4,100,0.00,,,0.63,VWS V14.01,2013-04-11 11:21:00,
2013-04-11 07:22:00,41.0,41.0,29.82,East,101,14.8,19.4,100,0.00,,,0.63,VWS V14.01,2013-04-11 11:22:00,
2013-04-11 07:24:00,41.0,41.0,29.82,ESE,103,13.5,19.4,100,0.00,,,0.63,VWS V14.01,2013-04-11 11:24:00,
2013-04-11 07:28:00,41.0,41.0,29.82,East,86,11.6,19.4,100,0.00,,,0.63,VWS V14.01,2013-04-11 11:28:00,
2013-04-11 07:29:00,41.0,41.0,29.81,ENE,77,12.6,19.4,100,0.00,,,0.63,VWS V14.01,2013-04-11 11:29:00,
2013-04-11 07:33:00,41.0,41.0,29.83,ESE,103,9.0,19.4,100,0.00,,,0.63,VWS V14.01,2013-04-11 11:33:00,
2013-04-11 07:34:00,41.0,41.0,29.83,East,95,14.3,19.4,100,0.00,,,0.63,VWS V14.01,2013-04-11 11:34:00,
2013-04-11 07:35:00,41.0,41.0,29.83,East,95,15.5,19.4,100,0.00,,,0.63,VWS V14.01,2013-04-11 11:35:00,
2013-04-11 07:38:00,41.0,41.0,29.83,East,93,9.7,19.4,100,0.04,,,0.67,VWS V14.01,2013-04-11 11:38:00,
2013-04-11 07:39:00,41.0,41.0,29.83,ENE,74,10.4,19.4,100,0.04,,,0.67,VWS V14.01,2013-04-11 11:39:00,
2013-04-11 07:40:00,41.1,41.1,29.83,ESE,102,11.6,19.4,100,0.04,,,0.67,VWS V14.01,2013-04-11 11:40:00,
2013-04-11 07:43:00,41.0,41.0,29.82,East,84,17.4,19.4,100,0.04,,,0.67,VWS V14.01,2013-04-11 11:43:00,
2013-04-11 07:44:00,40.9,40.9,29.82,East,95,12.8,19.4,100,0.04,,,0.67,VWS V14.01,2013-04-11 11:44:00,
2013-04-11 07:45:00,41.0,41.0,29.82,ENE,65,10.5,19.4,100,0.04,,,0.67,VWS V14.01,2013-04-11 11:45:00,
2013-04-11 07:46:00,40.9,40.9,29.81,East,84,15.3,19.4,100,0.04,,,0.67,VWS V14.01,2013-04-11 11:46:00,
2013-04-11 07:49:00,41.0,41.0,29.81,East,82,10.9,19.4,100,0.04,,,0.67,VWS V14.01,2013-04-11 11:49:00,
2013-04-11 07:50:00,41.0,41.0,29.82,East,90,10.0,19.4,100,0.04,,,0.67,VWS V14.01,2013-04-11 11:50:00,
2013-04-11 07:51:00,41.0,41.0,29.82,East,95,14.3,19.4,100,0.04,,,0.67,VWS V14.01,2013-04-11 11:51:00,
2013-04-11 07:53:00,40.9,40.9,29.82,East,85,17.4,19.4,100,0.04,,,0.67,VWS V14.01,2013-04-11 11:53:00,
2013-04-11 07:55:00,41.0,41.0,29.82,East,79,15.2,19.4,100,0.04,,,0.67,VWS V14.01,2013-04-11 11:55:00,
2013-04-11 07:56:00,41.0,41.0,29.82,ESE,112,19.3,19.4,100,0.04,,,0.67,VWS V14.01,2013-04-11 11:56:00,
2013-04-11 07:57:00,41.5,41.5,29.83,East,93,16.5,19.4,100,0.04,,,0.67,VWS V14.01,2013-04-11 11:57:00,
2013-04-11 07:58:00,41.4,41.4,29.81,ENE,74,11.4,19.4,100,0.04,,,0.67,VWS V14.01,2013-04-11 11:58:00,
2013-04-11 08:00:00,41.4,41.4,29.82,ESE,108,12.3,19.4,100,0.04,,,0.67,VWS V14.01,2013-04-11 12:00:00,
2013-04-11 08:02:00,41.5,41.4,29.83,East,91,14.6,16.4,100,0.04,,,0.67,VWS V14.01,2013-04-11 12:02:00,
2013-04-11 08:03:00,41.4,41.3,29.83,East,98,15.8,18.8,100,0.00,,,0.67,VWS V14.01,2013-04-11 12:03:00,
2013-04-11 08:06:00,41.3,41.2,29.83,East,80,11.7,12.9,99,0.00,,,0.67,VWS V14.01,2013-04-11 12:06:00,
2013-04-11 08:07:00,41.2,41.1,29.81,ENE,67,11.9,15.3,100,0.00,,,0.67,VWS V14.01,2013-04-11 12:07:00,
2013-04-11 08:08:00,41.3,41.2,29.81,East,87,15.5,15.5,100,0.00,,,0.67,VWS V14.01,2013-04-11 12:08:00,
2013-04-11 08:12:00,41.2,41.0,29.82,East,97,11.6,13.6,99,0.00,,,0.67,VWS V14.01,2013-04-11 12:12:00,
2013-04-11 08:13:00,41.3,41.2,29.81,ENE,60,11.4,13.5,100,0.00,,,0.67,VWS V14.01,2013-04-11 12:13:00,
2013-04-11 08:16:00,41.3,41.1,29.82,East,100,15.8,17.0,99,0.00,,,0.67,VWS V14.01,2013-04-11 12:16:00,
2013-04-11 08:17:00,41.2,39.4,29.83,ENE,77,10.9,12.1,93,0.00,,,0.67,VWS V14.01,2013-04-11 12:17:00,
2013-04-11 08:18:00,41.2,40.9,29.83,East,83,11.7,12.1,99,0.00,,,0.67,VWS V14.01,2013-04-11 12:18:00,
2013-04-11 08:19:00,41.3,41.0,29.83,East,83,11.9,11.9,99,0.00,,,0.67,VWS V14.01,2013-04-11 12:19:00,
2013-04-11 08:24:00,41.1,40.8,29.82,East,101,15.7,15.7,99,0.00,,,0.67,VWS V14.01,2013-04-11 12:24:00,
2013-04-11 08:25:00,41.2,40.8,29.83,East,80,13.3,16.4,99,0.00,,,0.67,VWS V14.01,2013-04-11 12:25:00,
2013-04-11 08:26:00,41.2,38.9,29.82,East,93,16.9,16.9,92,0.00,,,0.67,VWS V14.01,2013-04-11 12:26:00,
2013-04-11 08:30:00,41.1,40.6,29.82,East,89,14.8,18.9,98,0.00,,,0.67,VWS V14.01,2013-04-11 12:30:00,
2013-04-11 08:31:00,41.1,40.6,29.83,East,94,17.6,17.6,98,0.00,,,0.67,VWS V14.01,2013-04-11 12:31:00,
2013-04-11 08:32:00,41.1,40.5,29.82,East,93,16.7,16.7,98,0.00,,,0.67,VWS V14.01,2013-04-11 12:32:00,
2013-04-11 08:33:00,41.0,40.4,29.82,ESE,102,16.5,16.5,98,0.00,,,0.67,VWS V14.01,2013-04-11 12:33:00,
2013-04-11 08:37:00,41.0,39.3,29.82,ESE,106,17.0,17.0,94,0.00,,,0.67,VWS V14.01,2013-04-11 12:37:00,
2013-04-11 08:38:00,40.9,40.4,29.83,ENE,78,13.3,13.3,98,0.00,,,0.67,VWS V14.01,2013-04-11 12:38:00,
2013-04-11 08:39:00,41.0,40.5,29.84,ESE,116,18.9,18.9,98,0.00,,,0.67,VWS V14.01,2013-04-11 12:39:00,
2013-04-11 08:41:00,40.9,40.3,29.84,East,84,15.5,18.9,98,0.00,,,0.67,VWS V14.01,2013-04-11 12:41:00,
2013-04-11 08:43:00,40.9,40.4,29.84,East,93,11.7,11.7,98,0.00,,,0.67,VWS V14.01,2013-04-11 12:43:00,
2013-04-11 08:44:00,40.9,40.4,29.84,East,84,16.4,16.4,98,0.00,,,0.67,VWS V14.01,2013-04-11 12:44:00,
2013-04-11 08:45:00,40.9,40.4,29.84,East,80,14.1,14.1,98,0.00,,,0.67,VWS V14.01,2013-04-11 12:45:00,
2013-04-11 08:46:00,40.8,40.4,29.83,East,83,11.4,11.6,98,0.00,,,0.67,VWS V14.01,2013-04-11 12:46:00,
2013-04-11 08:49:00,40.9,40.5,29.84,East,88,19.1,19.1,99,0.00,,,0.67,VWS V14.01,2013-04-11 12:49:00,
2013-04-11 08:50:00,40.8,40.5,29.83,East,79,12.8,19.1,99,0.00,,,0.67,VWS V14.01,2013-04-11 12:50:00,
2013-04-11 08:51:00,40.8,40.5,29.82,East,96,13.1,14.3,99,0.00,,,0.67,VWS V14.01,2013-04-11 12:51:00,
2013-04-11 08:53:00,40.9,40.6,29.82,ENE,77,17.2,18.6,99,0.00,,,0.67,VWS V14.01,2013-04-11 12:53:00,
2013-04-11 08:54:00,40.9,40.6,29.83,ESE,108,15.0,17.2,99,0.00,,,0.67,VWS V14.01,2013-04-11 12:54:00,
2013-04-11 08:55:00,40.9,40.6,29.83,East,101,16.7,17.2,99,0.00,,,0.67,VWS V14.01,2013-04-11 12:55:00,
2013-04-11 08:57:00,40.9,40.7,29.82,ESE,113,10.7,13.6,99,0.00,,,0.67,VWS V14.01,2013-04-11 12:57:00,
2013-04-11 08:58:00,41.4,41.4,29.82,ESE,108,12.3,19.4,100,0.04,,,0.67,VWS V14.01,2013-04-11 12:58:00,
2013-04-11 08:59:00,40.9,40.7,29.81,East,80,15.0,15.0,99,0.00,,,0.67,VWS V14.01,2013-04-11 12:59:00,
2013-04-11 09:00:00,41.4,41.4,29.83,ENE,69,14.8,16.4,100,0.04,,,0.67,VWS V14.01,2013-04-11 13:00:00,
2013-04-11 09:01:00,40.9,40.7,29.82,East,101,15.7,16.0,99,0.00,,,0.67,VWS V14.01,2013-04-11 13:01:00,
2013-04-11 09:03:00,41.4,41.3,29.83,ESE,122,18.8,18.8,100,0.04,,,0.67,VWS V14.01,2013-04-11 13:03:00,
2013-04-11 09:04:00,40.8,40.6,29.82,East,90,12.3,16.5,99,0.00,,,0.67,VWS V14.01,2013-04-11 13:04:00,
2013-04-11 09:05:00,41.3,41.2,29.83,East,82,12.6,15.8,99,0.00,,,0.67,VWS V14.01,2013-04-11 13:05:00,
2013-04-11 09:06:00,41.3,41.2,29.83,East,80,11.7,12.9,99,0.00,,,0.67,VWS V14.01,2013-04-11 13:06:00,
2013-04-11 09:07:00,40.8,40.6,29.80,East,80,10.4,10.4,99,0.00,,,0.67,VWS V14.01,2013-04-11 13:07:00,
2013-04-11 09:08:00,41.3,41.2,29.81,East,87,15.5,15.5,100,0.00,,,0.67,VWS V14.01,2013-04-11 13:08:00,
2013-04-11 09:09:00,41.3,41.1,29.81,East,94,15.3,15.5,99,0.00,,,0.67,VWS V14.01,2013-04-11 13:09:00,
2013-04-11 09:10:00,40.8,40.5,29.79,East,84,12.1,17.0,99,0.00,,,0.67,VWS V14.01,2013-04-11 13:10:00,
2013-04-11 09:11:00,41.3,41.1,29.81,ENE,73,13.6,13.6,99,0.00,,,0.67,VWS V14.01,2013-04-11 13:11:00,
2013-04-11 09:12:00,40.7,40.3,29.80,East,91,16.2,20.6,99,0.00,,,0.67,VWS V14.01,2013-04-11 13:12:00,
2013-04-11 09:13:00,41.3,41.2,29.81,ENE,60,11.4,13.4,100,0.00,,,0.67,VWS V14.01,2013-04-11 13:13:00,
2013-04-11 09:14:00,40.8,40.4,29.81,East,86,13.8,16.5,99,0.00,,,0.67,VWS V14.01,2013-04-11 13:14:00,
2013-04-11 09:15:00,40.7,40.4,29.81,East,93,16.7,16.7,99,0.00,,,0.67,VWS V14.01,2013-04-11 13:15:00,
2013-04-11 09:16:00,41.3,41.1,29.82,East,100,15.8,17.0,99,0.00,,,0.67,VWS V14.01,2013-04-11 13:16:00,
2013-04-11 09:17:00,41.3,41.1,29.83,East,94,15.5,19.3,99,0.00,,,0.67,VWS V14.01,2013-04-11 13:17:00,
2013-04-11 09:18:00,40.7,38.9,29.82,ENE,67,13.1,21.2,93,0.00,,,0.67,VWS V14.01,2013-04-11 13:18:00,
2013-04-11 09:19:00,41.2,40.9,29.83,East,83,11.7,12.1,99,0.00,,,0.67,VWS V14.01,2013-04-11 13:19:00,
2013-04-11 09:20:00,40.6,40.3,29.81,East,87,16.9,21.3,99,0.00,,,0.67,VWS V14.01,2013-04-11 13:20:00,
2013-04-11 09:21:00,40.6,40.2,29.82,ENE,77,15.2,16.9,99,0.00,,,0.67,VWS V14.01,2013-04-11 13:21:00,
2013-04-11 09:22:00,41.1,40.9,29.83,East,101,12.3,12.3,99,0.00,,,0.67,VWS V14.01,2013-04-11 13:22:00,
2013-04-11 09:23:00,40.5,40.2,29.82,East,94,18.1,18.1,99,0.00,,,0.67,VWS V14.01,2013-04-11 13:23:00,
2013-04-11 09:24:00,41.2,40.9,29.83,ESE,110,16.4,16.4,99,0.00,,,0.67,VWS V14.01,2013-04-11 13:24:00,
2013-04-11 09:25:00,41.1,40.8,29.83,East,94,13.3,16.4,99,0.00,,,0.67,VWS V14.01,2013-04-11 13:25:00,
2013-04-11 09:26:00,40.6,40.2,29.83,East,92,15.7,15.7,98,0.00,,,0.67,VWS V14.01,2013-04-11 13:26:00,
2013-04-11 09:27:00,40.5,40.1,29.81,East,88,18.8,18.8,99,0.00,,,0.67,VWS V14.01,2013-04-11 13:27:00,
2013-04-11 09:28:00,40.5,40.2,29.80,East,91,15.8,21.3,99,0.00,,,0.67,VWS V14.01,2013-04-11 13:28:00,
2013-04-11 09:29:00,41.0,40.6,29.82,ENE,78,12.8,18.2,98,0.00,,,0.67,VWS V14.01,2013-04-11 13:29:00,
2013-04-11 09:30:00,41.1,40.6,29.82,East,89,14.8,18.9,98,0.00,,,0.67,VWS V14.01,2013-04-11 13:30:00,
2013-04-11 09:31:00,41.1,40.6,29.82,ENE,65,14.8,14.8,98,0.00,,,0.67,VWS V14.01,2013-04-11 13:31:00,
2013-04-11 09:32:00,40.5,40.2,29.82,ESE,108,15.2,15.2,99,0.00,,,0.67,VWS V14.01,2013-04-11 13:32:00,
2013-04-11 09:33:00,40.5,40.2,29.82,East,81,19.1,19.1,99,0.00,,,0.67,VWS V14.01,2013-04-11 13:33:00,
2013-04-11 09:34:00,41.0,40.4,29.82,ESE,102,16.5,16.5,98,0.00,,,0.67,VWS V14.01,2013-04-11 13:34:00,
2013-04-11 09:35:00,40.4,40.1,29.85,East,84,16.4,16.4,99,0.00,,,0.67,VWS V14.01,2013-04-11 13:35:00,
2013-04-11 09:36:00,41.0,40.4,29.82,East,97,18.4,19.4,98,0.00,,,0.67,VWS V14.01,2013-04-11 13:36:00,
2013-04-11 09:37:00,41.0,40.4,29.82,ESE,106,16.0,18.4,98,0.00,,,0.67,VWS V14.01,2013-04-11 13:37:00,
2013-04-11 09:38:00,40.4,40.1,29.81,East,89,19.6,19.6,99,0.00,,,0.67,VWS V14.01,2013-04-11 13:38:00,
2013-04-11 09:39:00,40.3,40.0,29.82,East,80,18.2,19.1,99,0.00,,,0.67,VWS V14.01,2013-04-11 13:39:00,
2013-04-11 09:40:00,40.3,40.1,29.81,ESE,103,18.6,18.6,99,0.00,,,0.67,VWS V14.01,2013-04-11 13:40:00,
2013-04-11 09:41:00,40.9,40.3,29.84,East,84,15.5,18.9,98,0.00,,,0.67,VWS V14.01,2013-04-11 13:41:00,
2013-04-11 09:42:00,40.9,40.4,29.84,ENE,76,15.2,15.5,98,0.00,,,0.67,VWS V14.01,2013-04-11 13:42:00,
2013-04-11 09:43:00,40.9,40.3,29.85,SE,128,11.2,15.2,98,0.00,,,0.67,VWS V14.01,2013-04-11 13:43:00,
2013-04-11 09:44:00,40.3,40.1,29.81,East,94,22.0,22.0,99,0.00,,,0.67,VWS V14.01,2013-04-11 13:44:00,
2013-04-11 09:45:00,40.4,40.2,29.82,East,98,13.8,22.0,99,0.00,,,0.67,VWS V14.01,2013-04-11 13:45:00,
2013-04-11 09:46:00,40.3,39.8,29.81,East,87,15.0,15.3,98,0.00,,,0.67,VWS V14.01,2013-04-11 13:46:00,
2013-04-11 09:47:00,40.8,40.4,29.83,East,83,11.4,11.6,98,0.00,,,0.67,VWS V14.01,2013-04-11 13:47:00,
2013-04-11 09:48:00,40.2,40.0,29.81,East,93,20.8,20.8,99,0.00,,,0.67,VWS V14.01,2013-04-11 13:48:00,
2013-04-11 09:49:00,40.9,40.5,29.84,East,88,19.1,19.1,99,0.00,,,0.67,VWS V14.01,2013-04-11 13:49:00,
2013-04-11 09:50:00,40.3,40.1,29.80,East,86,13.3,13.5,99,0.00,,,0.67,VWS V14.01,2013-04-11 13:50:00,
2013-04-11 09:51:00,40.8,40.5,29.83,East,87,14.3,14.3,99,0.00,,,0.67,VWS V14.01,2013-04-11 13:51:00,
2013-04-11 09:52:00,40.9,40.6,29.82,East,88,20.3,20.3,99,0.00,,,0.67,VWS V14.01,2013-04-11 13:52:00,
2013-04-11 09:53:00,40.2,40.1,29.79,ENE,77,20.3,20.3,99,0.00,,,0.67,VWS V14.01,2013-04-11 13:53:00,
2013-04-11 09:54:00,40.2,40.1,29.80,ENE,62,20.8,20.8,99,0.00,,,0.67,VWS V14.01,2013-04-11 13:54:00,
2013-04-11 09:55:00,40.9,40.6,29.83,East,101,16.7,17.2,99,0.00,,,0.67,VWS V14.01,2013-04-11 13:55:00,
2013-04-11 09:56:00,40.2,40.0,29.80,ENE,78,11.9,20.8,99,0.00,,,0.67,VWS V14.01,2013-04-11 13:56:00,
2013-04-11 09:57:00,40.9,40.7,29.82,East,97,13.6,16.0,99,0.00,,,0.67,VWS V14.01,2013-04-11 13:57:00,
2013-04-11 09:58:00,40.2,40.0,29.80,East,94,16.9,16.9,99,0.00,,,0.67,VWS V14.01,2013-04-11 13:58:00,
2013-04-11 09:59:00,40.2,40.0,29.81,East,82,16.0,21.0,99,0.00,,,0.67,VWS V14.01,2013-04-11 13:59:00,
2013-04-11 10:00:00,40.9,40.7,29.81,East,83,10.4,15.0,99,0.00,,,0.67,VWS V14.01,2013-04-11 14:00:00,
2013-04-11 10:01:00,40.2,40.0,29.81,ESE,109,16.7,16.7,99,0.00,,,0.67,VWS V14.01,2013-04-11 14:01:00,
2013-04-11 10:02:00,40.9,40.7,29.83,ESE,116,15.0,15.0,99,0.00,,,0.67,VWS V14.01,2013-04-11 14:02:00,
2013-04-11 10:03:00,40.9,40.7,29.82,ENE,71,16.5,16.5,99,0.00,,,0.67,VWS V14.01,2013-04-11 14:03:00,
2013-04-11 10:04:00,40.1,40.0,29.79,East,83,18.2,18.4,100,0.00,,,0.67,VWS V14.01,2013-04-11 14:04:00,
2013-04-11 10:05:00,40.1,40.0,29.80,East,86,18.4,18.4,100,0.00,,,0.67,VWS V14.01,2013-04-11 14:05:00,
2013-04-11 10:06:00,40.8,40.6,29.81,East,80,9.7,10.5,99,0.00,,,0.67,VWS V14.01,2013-04-11 14:06:00,
2013-04-11 10:07:00,40.7,40.6,29.80,East,92,16.4,16.4,99,0.00,,,0.67,VWS V14.01,2013-04-11 14:07:00,
2013-04-11 10:08:00,40.2,40.2,29.82,East,81,17.7,17.7,100,0.00,,,0.67,VWS V14.01,2013-04-11 14:08:00,
2013-04-11 10:09:00,40.7,40.4,29.81,East,97,17.0,21.8,99,0.00,,,0.67,VWS V14.01,2013-04-11 14:09:00,
2013-04-11 10:10:00,40.3,40.3,29.81,ENE,75,9.9,17.7,100,0.00,,,0.67,VWS V14.01,2013-04-11 14:10:00,
2013-04-11 10:11:00,40.8,40.5,29.80,East,92,20.6,20.6,99,0.00,,,0.67,VWS V14.01,2013-04-11 14:11:00,
2013-04-11 10:12:00,40.8,40.4,29.81,East,90,17.0,20.6,99,0.00,,,0.67,VWS V14.01,2013-04-11 14:12:00,
2013-04-11 10:13:00,40.0,40.0,29.80,East,88,16.7,18.8,100,0.00,,,0.67,VWS V14.01,2013-04-11 14:13:00,
2013-04-11 10:14:00,40.0,40.0,29.80,ESE,102,16.9,16.9,100,0.00,,,0.67,VWS V14.01,2013-04-11 14:14:00,
2013-04-11 10:15:00,40.0,40.0,29.80,ESE,102,16.9,16.9,100,0.00,,,0.67,VWS V14.01,2013-04-11 14:15:00,
2013-04-11 10:16:00,40.1,40.1,29.80,ENE,60,15.7,15.7,100,0.00,,,0.67,VWS V14.01,2013-04-11 14:16:00,
2013-04-11 10:17:00,40.7,40.3,29.81,ENE,75,21.2,21.2,99,0.00,,,0.67,VWS V14.01,2013-04-11 14:17:00,
2013-04-11 10:18:00,40.0,40.0,29.80,East,97,22.7,22.7,100,0.00,,,0.67,VWS V14.01,2013-04-11 14:18:00,
2013-04-11 10:19:00,40.1,40.1,29.80,East,93,14.8,18.8,100,0.00,,,0.67,VWS V14.01,2013-04-11 14:19:00,
2013-04-11 10:20:00,40.1,40.1,29.80,East,93,14.8,18.8,100,0.00,,,0.67,VWS V14.01,2013-04-11 14:20:00,
2013-04-11 10:21:00,40.1,40.1,29.80,ENE,72,14.6,15.8,100,0.00,,,0.67,VWS V14.01,2013-04-11 14:21:00,
2013-04-11 10:22:00,40.6,40.2,29.84,East,96,17.6,21.3,98,0.00,,,0.67,VWS V14.01,2013-04-11 14:22:00,
2013-04-11 10:23:00,40.5,40.2,29.82,East,94,18.1,18.1,99,0.00,,,0.67,VWS V14.01,2013-04-11 14:23:00,
2013-04-11 10:24:00,40.6,40.2,29.86,East,83,17.4,18.1,98,0.00,,,0.67,VWS V14.01,2013-04-11 14:24:00,
2013-04-11 10:25:00,40.1,40.2,29.82,East,89,14.5,15.8,100,0.00,,,0.67,VWS V14.01,2013-04-11 14:25:00,
2013-04-11 10:26:00,40.1,40.1,29.82,East,89,19.1,19.1,100,0.00,,,0.67,VWS V14.01,2013-04-11 14:26:00,
2013-04-11 10:27:00,40.1,40.1,29.83,East,99,20.0,20.0,100,0.00,,,0.67,VWS V14.01,2013-04-11 14:27:00,
2013-04-11 10:28:00,40.5,40.2,29.80,East,91,15.8,21.3,99,0.00,,,0.67,VWS V14.01,2013-04-11 14:28:00,
2013-04-11 10:29:00,40.4,40.1,29.80,East,101,13.8,15.8,99,0.00,,,0.67,VWS V14.01,2013-04-11 14:29:00,
2013-04-11 10:30:00,40.5,40.1,29.81,East,91,13.8,18.4,99,0.00,,,0.67,VWS V14.01,2013-04-11 14:30:00,
2013-04-11 10:31:00,40.1,40.1,29.81,East,92,14.6,18.4,100,0.00,,,0.67,VWS V14.01,2013-04-11 14:31:00,
2013-04-11 10:32:00,40.0,40.0,29.81,ENE,67,14.3,14.6,100,0.00,,,0.67,VWS V14.01,2013-04-11 14:32:00,
2013-04-11 10:33:00,40.5,40.2,29.82,ESE,104,14.8,19.1,99,0.00,,,0.67,VWS V14.01,2013-04-11 14:33:00,
2013-04-11 10:34:00,40.0,40.0,29.81,East,86,19.8,19.8,100,0.00,,,0.67,VWS V14.01,2013-04-11 14:34:00,
2013-04-11 10:35:00,40.4,40.1,29.85,East,84,16.4,16.4,99,0.00,,,0.67,VWS V14.01,2013-04-11 14:35:00,
2013-04-11 10:36:00,40.5,40.2,29.82,East,83,17.7,17.7,99,0.00,,,0.67,VWS V14.01,2013-04-11 14:36:00,
2013-04-11 10:37:00,40.0,40.0,29.81,East,93,10.4,16.7,100,0.00,,,0.67,VWS V14.01,2013-04-11 14:37:00,
2013-04-11 10:38:00,40.1,40.1,29.82,East,98,17.7,17.7,100,0.00,,,0.67,VWS V14.01,2013-04-11 14:38:00,
2013-04-11 10:39:00,40.3,40.0,29.82,East,80,18.2,19.1,99,0.00,,,0.67,VWS V14.01,2013-04-11 14:39:00,
2013-04-11 10:40:00,40.4,40.1,29.80,East,91,15.5,18.6,99,0.00,,,0.67,VWS V14.01,2013-04-11 14:40:00,
2013-04-11 10:41:00,40.4,40.2,29.81,East,92,16.0,18.9,99,0.00,,,0.67,VWS V14.01,2013-04-11 14:41:00,
2013-04-11 10:42:00,40.1,40.1,29.80,East,92,13.5,19.8,100,0.00,,,0.67,VWS V14.01,2013-04-11 14:42:00,
2013-04-11 10:43:00,40.2,40.2,29.80,East,97,15.7,18.9,100,0.00,,,0.67,VWS V14.01,2013-04-11 14:43:00,
2013-04-11 10:44:00,40.0,40.0,29.80,East,86,14.3,19.1,100,0.00,,,0.67,VWS V14.01,2013-04-11 14:44:00,
2013-04-11 10:45:00,40.3,40.2,29.82,ESE,106,15.3,22.0,99,0.00,,,0.67,VWS V14.01,2013-04-11 14:45:00,
2013-04-11 10:46:00,40.3,40.1,29.82,East,86,17.6,17.6,99,0.00,,,0.67,VWS V14.01,2013-04-11 14:46:00,
2013-04-11 10:47:00,40.2,40.0,29.81,East,85,15.0,17.6,99,0.00,,,0.67,VWS V14.01,2013-04-11 14:47:00,
2013-04-11 10:48:00,40.0,40.0,29.83,East,86,14.1,14.1,100,0.00,,,0.67,VWS V14.01,2013-04-11 14:48:00,
2013-04-11 10:49:00,40.2,40.2,29.81,East,93,12.3,14.1,100,0.00,,,0.67,VWS V14.01,2013-04-11 14:49:00,
2013-04-11 10:50:00,40.2,40.0,29.80,ESE,108,14.1,14.1,99,0.00,,,0.67,VWS V14.01,2013-04-11 14:50:00,
2013-04-11 10:51:00,40.2,40.1,29.80,East,95,25.3,25.3,100,0.00,,,0.67,VWS V14.01,2013-04-11 14:51:00,
2013-04-11 10:52:00,40.2,40.0,29.79,East,101,22.7,25.3,99,0.00,,,0.67,VWS V14.01,2013-04-11 14:52:00,
2013-04-11 10:53:00,40.1,40.1,29.80,East,98,24.1,24.1,100,0.00,,,0.67,VWS V14.01,2013-04-11 14:53:00,
2013-04-11 10:54:00,40.1,40.1,29.80,East,101,18.6,24.1,100,0.00,,,0.67,VWS V14.01,2013-04-11 14:54:00,
2013-04-11 10:55:00,40.1,40.1,29.80,East,94,18.6,21.7,100,0.00,,,0.67,VWS V14.01,2013-04-11 14:55:00,
2013-04-11 10:56:00,40.2,40.1,29.80,East,96,17.4,18.9,100,0.00,,,0.67,VWS V14.01,2013-04-11 14:56:00,
2013-04-11 10:57:00,40.1,39.2,29.80,ENE,73,15.3,17.4,96,0.00,,,0.67,VWS V14.01,2013-04-11 14:57:00,
2013-04-11 10:58:00,40.2,40.2,29.82,East,81,17.7,17.7,100,0.00,,,0.67,VWS V14.01,2013-04-11 14:58:00,
2013-04-11 10:59:00,40.2,40.0,29.81,ENE,75,17.6,21.0,99,0.00,,,0.67,VWS V14.01,2013-04-11 14:59:00,
2013-04-11 11:00:00,40.2,40.2,29.81,East,91,19.1,19.1,100,0.00,,,0.67,VWS V14.01,2013-04-11 15:00:00,
2013-04-11 11:01:00,40.2,40.0,29.81,ESE,109,16.7,16.7,99,0.00,,,0.67,VWS V14.01,2013-04-11 15:01:00,
2013-04-11 11:02:00,40.2,39.5,29.82,East,90,16.9,19.1,97,0.00,,,0.67,VWS V14.01,2013-04-11 15:02:00,
2013-04-11 11:03:00,40.2,40.1,29.80,ENE,74,14.0,18.4,100,0.00,,,0.67,VWS V14.01,2013-04-11 15:03:00,
2013-04-11 11:04:00,40.2,40.2,29.82,East,82,13.6,19.1,100,0.00,,,0.67,VWS V14.01,2013-04-11 15:04:00,
2013-04-11 11:05:00,40.1,40.1,29.82,ENE,75,16.5,19.1,100,0.00,,,0.67,VWS V14.01,2013-04-11 15:05:00,
2013-04-11 11:06:00,40.2,40.2,29.81,East,81,10.7,18.4,100,0.00,,,0.67,VWS V14.01,2013-04-11 15:06:00,
2013-04-11 11:07:00,40.0,40.0,29.81,East,81,22.0,22.0,100,0.00,,,0.67,VWS V14.01,2013-04-11 15:07:00,
2013-04-11 11:08:00,40.2,40.2,29.82,East,81,17.7,17.7,100,0.00,,,0.67,VWS V14.01,2013-04-11 15:08:00,
2013-04-11 11:09:00,40.0,40.0,29.82,ENE,71,17.9,22.0,100,0.00,,,0.67,VWS V14.01,2013-04-11 15:09:00,
2013-04-11 11:10:00,40.0,37.8,29.82,ESE,109,16.5,22.0,92,0.00,,,0.00,VWS V14.01,2013-04-11 15:10:00,
2013-04-11 11:11:00,40.1,40.1,29.80,East,85,16.5,17.7,100,0.00,,,0.67,VWS V14.01,2013-04-11 15:11:00,
2013-04-11 11:12:00,40.1,40.1,29.80,East,84,18.8,18.8,100,0.00,,,0.67,VWS V14.01,2013-04-11 15:12:00,
2013-04-11 11:13:00,40.0,40.0,29.82,ENE,63,15.0,22.0,100,0.00,,,0.67,VWS V14.01,2013-04-11 15:13:00,
2013-04-11 11:14:00,40.1,40.1,29.80,ENE,75,16.4,16.7,100,0.00,,,0.67,VWS V14.01,2013-04-11 15:14:00,
2013-04-11 11:15:00,39.8,39.8,29.81,East,100,19.6,22.0,100,0.00,,,0.00,VWS V14.01,2013-04-11 15:15:00,
2013-04-11 11:16:00,40.0,40.0,29.81,East,84,17.4,22.0,100,0.00,,,0.67,VWS V14.01,2013-04-11 15:16:00,
2013-04-11 11:17:00,40.1,40.1,29.81,ESE,104,16.9,17.6,100,0.00,,,0.67,VWS V14.01,2013-04-11 15:17:00,
2013-04-11 11:18:00,40.0,40.0,29.80,East,97,22.7,22.7,100,0.00,,,0.67,VWS V14.01,2013-04-11 15:18:00,
2013-04-11 11:19:00,40.1,40.1,29.80,ENE,62,18.8,22.7,100,0.00,,,0.67,VWS V14.01,2013-04-11 15:19:00,
2013-04-11 11:20:00,40.1,40.1,29.81,East,80,19.3,22.0,100,0.00,,,0.67,VWS V14.01,2013-04-11 15:20:00,
2013-04-11 11:21:00,40.2,40.2,29.81,East,94,12.8,22.0,100,0.00,,,0.67,VWS V14.01,2013-04-11 15:21:00,
2013-04-11 11:22:00,40.1,40.1,29.81,East,94,13.6,15.8,100,0.00,,,0.67,VWS V14.01,2013-04-11 15:22:00,
2013-04-11 11:23:00,40.1,40.1,29.82,ESE,102,15.7,15.7,100,0.00,,,0.67,VWS V14.01,2013-04-11 15:23:00,
2013-04-11 11:24:00,40.2,40.2,29.82,ENE,72,15.8,18.9,100,0.00,,,0.67,VWS V14.01,2013-04-11 15:24:00,
2013-04-11 11:25:00,40.1,40.1,29.81,ENE,76,18.9,18.9,100,0.00,,,0.67,VWS V14.01,2013-04-11 15:25:00,
2013-04-11 11:26:00,40.1,40.1,29.80,ENE,72,16.9,22.0,100,0.00,,,0.67,VWS V14.01,2013-04-11 15:26:00,
2013-04-11 11:27:00,40.1,40.1,29.80,ENE,72,16.9,22.0,100,0.00,,,0.67,VWS V14.01,2013-04-11 15:27:00,
2013-04-11 11:28:00,40.1,40.1,29.83,East,99,20.0,20.0,100,0.00,,,0.67,VWS V14.01,2013-04-11 15:28:00,
2013-04-11 11:29:00,40.0,40.0,29.81,East,86,17.0,20.3,100,0.00,,,0.67,VWS V14.01,2013-04-11 15:29:00,
2013-04-11 11:30:00,40.0,40.0,29.81,ENE,76,17.4,19.6,100,0.00,,,0.67,VWS V14.01,2013-04-11 15:30:00,
2013-04-11 11:31:00,40.1,40.1,29.81,East,92,14.6,18.4,100,0.00,,,0.67,VWS V14.01,2013-04-11 15:31:00,
2013-04-11 11:32:00,40.0,40.0,29.81,East,90,16.7,22.0,100,0.00,,,0.67,VWS V14.01,2013-04-11 15:32:00,
2013-04-11 11:33:00,40.0,40.0,29.81,East,99,18.1,22.0,100,0.00,,,0.67,VWS V14.01,2013-04-11 15:33:00,
2013-04-11 11:34:00,40.0,40.0,29.81,East,86,19.8,19.8,100,0.00,,,0.67,VWS V14.01,2013-04-11 15:34:00,
2013-04-11 11:35:00,40.1,40.1,29.81,East,83,17.9,19.8,100,0.00,,,0.67,VWS V14.01,2013-04-11 15:35:00,
2013-04-11 11:36:00,40.1,40.1,29.81,East,83,16.7,17.9,100,0.00,,,0.67,VWS V14.01,2013-04-11 15:36:00,
2013-04-11 11:37:00,40.0,40.0,29.82,East,95,14.0,22.0,100,0.00,,,0.67,VWS V14.01,2013-04-11 15:37:00,
2013-04-11 11:38:00,40.1,40.1,29.82,East,82,12.8,22.0,100,0.00,,,0.67,VWS V14.01,2013-04-11 15:38:00,
2013-04-11 11:39:00,40.0,40.0,29.84,East,99,15.2,22.0,100,0.00,,,0.67,VWS V14.01,2013-04-11 15:39:00,
2013-04-11 11:40:00,40.1,40.1,29.81,East,93,13.3,18.6,100,0.00,,,0.67,VWS V14.01,2013-04-11 15:40:00,
2013-04-11 11:41:00,40.1,40.1,29.81,East,81,19.8,19.8,100,0.00,,,0.67,VWS V14.01,2013-04-11 15:41:00,
2013-04-11 11:42:00,39.6,39.6,29.80,East,97,17.2,22.5,100,0.00,,,0.67,VWS V14.01,2013-04-11 15:42:00,
2013-04-11 11:43:00,39.5,39.5,29.80,ENE,72,12.8,22.5,100,0.00,,,0.67,VWS V14.01,2013-04-11 15:43:00,
2013-04-11 11:44:00,40.1,40.1,29.80,East,79,19.1,19.1,100,0.00,,,0.67,VWS V14.01,2013-04-11 15:44:00,
2013-04-11 11:45:00,40.1,40.1,29.80,East,85,11.9,19.1,100,0.00,,,0.67,VWS V14.01,2013-04-11 15:45:00,
2013-04-11 11:46:00,39.4,39.4,29.79,ESE,113,21.5,22.5,100,0.00,,,0.67,VWS V14.01,2013-04-11 15:46:00,
2013-04-11 11:47:00,40.1,40.1,29.80,East,84,17.2,17.2,100,0.00,,,0.67,VWS V14.01,2013-04-11 15:47:00,
2013-04-11 11:48:00,39.7,39.7,29.80,East,88,14.5,22.5,100,0.00,,,0.67,VWS V14.01,2013-04-11 15:48:00,
2013-04-11 11:49:00,39.6,39.6,29.81,ENE,74,15.5,22.5,100,0.00,,,0.67,VWS V14.01,2013-04-11 15:49:00,
2013-04-11 11:50:00,39.5,39.5,29.82,East,92,19.8,22.5,100,0.00,,,0.67,VWS V14.01,2013-04-11 15:50:00,
2013-04-11 11:51:00,39.5,39.5,29.80,ESE,107,19.1,22.5,100,0.00,,,0.67,VWS V14.01,2013-04-11 15:51:00,
2013-04-11 11:52:00,40.1,40.1,29.80,East,91,22.9,22.9,100,0.00,,,0.67,VWS V14.01,2013-04-11 15:52:00,
2013-04-11 11:53:00,40.1,40.1,29.80,East,98,24.1,24.1,100,0.00,,,0.67,VWS V14.01,2013-04-11 15:53:00,
2013-04-11 11:54:00,39.5,39.5,29.79,ENE,78,16.2,22.5,100,0.00,,,0.67,VWS V14.01,2013-04-11 15:54:00,
2013-04-11 11:55:00,39.4,39.4,29.80,ESE,112,15.3,22.5,100,0.00,,,0.67,VWS V14.01,2013-04-11 15:55:00,
2013-04-11 11:56:00,40.3,40.3,29.81,East,85,16.4,19.6,100,0.00,,,0.67,VWS V14.01,2013-04-11 15:56:00,
2013-04-11 11:57:00,39.5,39.5,29.79,East,92,17.6,22.5,100,0.00,,,0.67,VWS V14.01,2013-04-11 15:57:00,
2013-04-11 11:58:00,40.3,40.3,29.82,East,89,13.4,19.4,100,0.00,,,0.67,VWS V14.01,2013-04-11 15:58:00,
2013-04-11 11:59:00,39.4,39.4,29.79,ENE,74,25.3,25.3,100,0.00,,,0.67,VWS V14.01,2013-04-11 15:59:00,
2013-04-11 12:00:00,40.2,40.2,29.81,East,91,19.1,19.1,100,0.00,,,0.67,VWS V14.01,2013-04-11 16:00:00,
2013-04-11 12:01:00,39.3,39.3,29.79,ENE,78,25.9,25.9,100,0.00,,,0.67,VWS V14.01,2013-04-11 16:01:00,
2013-04-11 12:02:00,39.8,39.8,29.79,East,96,16.9,25.9,100,0.00,,,0.67,VWS V14.01,2013-04-11 16:02:00,
2013-04-11 12:03:00,39.8,39.8,29.79,NE,48,15.5,16.9,100,0.00,,,0.67,VWS V14.01,2013-04-11 16:03:00,
2013-04-11 12:04:00,40.0,40.0,29.79,ENE,73,10.5,16.4,100,0.00,,,0.67,VWS V14.01,2013-04-11 16:04:00,
2013-04-11 12:05:00,40.2,40.2,29.80,East,80,14.1,14.1,100,0.00,,,0.67,VWS V14.01,2013-04-11 16:05:00,
2013-04-11 12:06:00,40.3,40.3,29.80,East,89,16.7,20.0,100,0.00,,,0.67,VWS V14.01,2013-04-11 16:06:00,
2013-04-11 12:07:00,40.4,40.1,29.79,East,94,16.4,16.7,99,0.00,,,0.67,VWS V14.01,2013-04-11 16:07:00,
2013-04-11 12:08:00,40.4,40.4,29.79,ENE,76,15.2,20.1,100,0.00,,,0.67,VWS V14.01,2013-04-11 16:08:00,
2013-04-11 12:09:00,40.3,40.3,29.79,East,101,12.8,15.2,100,0.00,,,0.67,VWS V14.01,2013-04-11 16:09:00,
2013-04-11 12:10:00,40.8,40.8,29.79,ENE,77,12.4,17.9,100,0.00,,,0.67,VWS V14.01,2013-04-11 16:10:00,
2013-04-11 12:11:00,40.7,40.7,29.79,East,91,11.4,12.4,100,0.00,,,0.67,VWS V14.01,2013-04-11 16:11:00,
2013-04-11 12:12:00,40.5,40.5,29.79,ESE,119,15.3,15.3,100,0.00,,,0.67,VWS V14.01,2013-04-11 16:12:00,
2013-04-11 12:13:00,40.5,40.5,29.79,East,83,8.5,12.8,100,0.00,,,0.67,VWS V14.01,2013-04-11 16:13:00,
2013-04-11 12:14:00,40.5,40.5,29.79,ENE,73,15.0,15.0,100,0.00,,,0.67,VWS V14.01,2013-04-11 16:14:00,
2013-04-11 12:15:00,40.5,40.5,29.79,East,82,14.1,15.0,100,0.00,,,0.67,VWS V14.01,2013-04-11 16:15:00,
2013-04-11 12:16:00,40.4,40.4,29.78,East,101,14.0,14.0,100,0.00,,,0.67,VWS V14.01,2013-04-11 16:16:00,
2013-04-11 12:17:00,40.3,40.3,29.79,East,99,20.5,21.0,100,0.00,,,0.67,VWS V14.01,2013-04-11 16:17:00,
2013-04-11 12:18:00,40.3,40.3,29.78,ENE,74,16.5,20.5,100,0.00,,,0.67,VWS V14.01,2013-04-11 16:18:00,
2013-04-11 12:19:00,40.2,40.2,29.78,East,83,21.7,21.7,100,0.00,,,0.67,VWS V14.01,2013-04-11 16:19:00,
2013-04-11 12:20:00,40.6,40.6,29.79,East,79,16.7,21.7,100,0.00,,,0.67,VWS V14.01,2013-04-11 16:20:00,
2013-04-11 12:21:00,40.5,40.5,29.79,East,96,17.7,17.7,100,0.00,,,0.67,VWS V14.01,2013-04-11 16:21:00,
2013-04-11 12:22:00,40.7,40.7,29.79,East,82,14.1,17.7,100,0.00,,,0.67,VWS V14.01,2013-04-11 16:22:00,
2013-04-11 12:23:00,40.8,40.8,29.78,East,96,13.1,17.2,100,0.00,,,0.67,VWS V14.01,2013-04-11 16:23:00,
2013-04-11 12:24:00,40.5,40.5,29.79,ENE,74,12.3,13.1,100,0.00,,,0.67,VWS V14.01,2013-04-11 16:24:00,
2013-04-11 12:25:00,40.5,40.5,29.79,East,85,17.9,17.9,100,0.00,,,0.67,VWS V14.01,2013-04-11 16:25:00,
2013-04-11 12:26:00,40.4,40.4,29.79,East,87,16.9,17.9,100,0.00,,,0.67,VWS V14.01,2013-04-11 16:26:00,
2013-04-11 12:27:00,40.3,40.3,29.79,ENE,70,12.9,16.9,100,0.00,,,0.67,VWS V14.01,2013-04-11 16:27:00,
2013-04-11 12:28:00,40.3,40.3,29.79,East,80,14.0,18.6,100,0.00,,,0.67,VWS V14.01,2013-04-11 16:28:00,
2013-04-11 12:29:00,40.2,40.2,29.80,East,88,20.8,20.8,100,0.00,,,0.67,VWS V14.01,2013-04-11 16:29:00,
2013-04-11 12:30:00,40.2,40.2,29.80,East,87,14.1,20.8,100,0.00,,,0.67,VWS V14.01,2013-04-11 16:30:00,
2013-04-11 12:31:00,40.4,40.4,29.78,East,85,14.8,19.6,100,0.00,,,0.67,VWS V14.01,2013-04-11 16:31:00,
2013-04-11 12:32:00,40.2,40.2,29.78,East,92,16.7,18.8,100,0.00,,,0.67,VWS V14.01,2013-04-11 16:32:00,
2013-04-11 12:33:00,40.2,40.2,29.78,ESE,113,17.4,17.4,100,0.00,,,0.67,VWS V14.01,2013-04-11 16:33:00,
2013-04-11 12:34:00,40.2,40.2,29.79,East,85,14.3,19.8,100,0.00,,,0.67,VWS V14.01,2013-04-11 16:34:00,
2013-04-11 12:35:00,40.0,40.0,29.79,ENE,73,14.0,14.3,100,0.00,,,0.67,VWS V14.01,2013-04-11 16:35:00,
2013-04-11 12:36:00,40.2,40.2,29.79,East,88,17.2,17.2,100,0.00,,,0.67,VWS V14.01,2013-04-11 16:36:00,
2013-04-11 12:37:00,40.3,40.3,29.79,NE,54,12.1,17.2,100,0.00,,,0.67,VWS V14.01,2013-04-11 16:37:00,
2013-04-11 12:38:00,39.9,39.9,29.79,East,95,15.7,15.7,100,0.00,,,0.67,VWS V14.01,2013-04-11 16:38:00,
2013-04-11 12:39:00,40.0,40.0,29.79,East,83,15.2,15.2,100,0.00,,,0.67,VWS V14.01,2013-04-11 16:39:00,
2013-04-11 12:40:00,39.8,39.8,29.79,East,80,21.5,21.5,100,0.00,,,0.67,VWS V14.01,2013-04-11 16:40:00,
2013-04-11 12:41:00,40.1,40.1,29.80,ESE,102,14.3,21.5,100,0.00,,,0.67,VWS V14.01,2013-04-11 16:41:00,
2013-04-11 12:42:00,40.0,40.0,29.80,East,97,12.4,14.8,100,0.00,,,0.67,VWS V14.01,2013-04-11 16:42:00,
2013-04-11 12:43:00,39.9,40.0,29.80,East,84,20.0,20.0,100,0.00,,,0.67,VWS V14.01,2013-04-11 16:43:00,
2013-04-11 12:44:00,40.3,40.3,29.80,ENE,62,12.9,20.0,100,0.00,,,0.67,VWS V14.01,2013-04-11 16:44:00,
2013-04-11 12:45:00,40.0,40.0,29.80,East,92,15.7,16.5,100,0.00,,,0.67,VWS V14.01,2013-04-11 16:45:00,
2013-04-11 12:46:00,39.8,39.8,29.80,East,86,22.4,22.4,100,0.00,,,0.67,VWS V14.01,2013-04-11 16:46:00,
2013-04-11 12:47:00,39.8,39.8,29.79,East,79,17.0,22.4,100,0.00,,,0.67,VWS V14.01,2013-04-11 16:47:00,
2013-04-11 12:48:00,40.2,40.2,29.80,East,82,16.5,17.0,100,0.00,,,0.67,VWS V14.01,2013-04-11 16:48:00,
2013-04-11 12:49:00,39.9,39.9,29.80,East,98,17.0,17.0,100,0.00,,,0.67,VWS V14.01,2013-04-11 16:49:00,
2013-04-11 12:50:00,39.8,39.8,29.80,ENE,77,20.1,20.1,100,0.00,,,0.67,VWS V14.01,2013-04-11 16:50:00,
2013-04-11 12:51:00,39.8,39.8,29.80,East,89,17.4,20.1,100,0.00,,,0.67,VWS V14.01,2013-04-11 16:51:00,
2013-04-11 12:52:00,40.0,40.0,29.80,ESE,102,13.3,17.4,100,0.00,,,0.67,VWS V14.01,2013-04-11 16:52:00,
2013-04-11 12:53:00,39.9,39.9,29.80,ENE,78,21.8,21.8,100,0.00,,,0.67,VWS V14.01,2013-04-11 16:53:00,
2013-04-11 12:54:00,39.9,39.9,29.80,East,100,14.3,20.1,100,0.00,,,0.67,VWS V14.01,2013-04-11 16:54:00,
2013-04-11 12:55:00,39.8,39.8,29.80,ESE,107,11.2,11.2,100,0.00,,,0.67,VWS V14.01,2013-04-11 16:55:00,
2013-04-11 12:56:00,39.9,39.9,29.80,East,85,12.4,20.6,100,0.00,,,0.67,VWS V14.01,2013-04-11 16:56:00,
2013-04-11 12:57:00,39.8,39.8,29.81,ESE,118,13.1,16.5,100,0.00,,,0.67,VWS V14.01,2013-04-11 16:57:00,
2013-04-11 12:58:00,39.8,39.8,29.81,ESE,108,18.8,18.8,100,0.00,,,0.67,VWS V14.01,2013-04-11 16:58:00,
2013-04-11 12:59:00,39.9,39.9,29.81,ESE,109,13.4,18.8,100,0.00,,,0.67,VWS V14.01,2013-04-11 16:59:00,
2013-04-11 13:00:00,39.9,39.6,29.81,NE,48,14.8,14.8,99,0.00,,,0.67,VWS V14.01,2013-04-11 17:00:00,
2013-04-11 13:01:00,39.9,39.9,29.81,ESE,112,14.0,16.9,100,0.00,,,0.67,VWS V14.01,2013-04-11 17:01:00,
2013-04-11 13:02:00,39.7,39.7,29.81,East,89,20.3,20.3,100,0.00,,,0.67,VWS V14.01,2013-04-11 17:02:00,
2013-04-11 13:03:00,39.7,39.7,29.80,East,83,15.3,20.3,100,0.00,,,0.67,VWS V14.01,2013-04-11 17:03:00,
2013-04-11 13:04:00,39.6,39.6,29.81,East,81,15.8,16.4,100,0.00,,,0.67,VWS V14.01,2013-04-11 17:04:00,
2013-04-11 13:05:00,39.7,39.7,29.80,East,88,15.2,15.8,100,0.00,,,0.67,VWS V14.01,2013-04-11 17:05:00,
2013-04-11 13:06:00,39.7,39.7,29.80,ENE,75,12.6,15.2,100,0.00,,,0.67,VWS V14.01,2013-04-11 17:06:00,
2013-04-11 13:07:00,39.6,39.6,29.80,East,85,16.2,16.2,100,0.00,,,0.67,VWS V14.01,2013-04-11 17:07:00,
2013-04-11 13:08:00,39.8,39.8,29.81,East,96,14.0,16.2,100,0.00,,,0.67,VWS V14.01,2013-04-11 17:08:00,
2013-04-11 13:09:00,39.8,39.8,29.81,East,100,15.0,15.0,100,0.00,,,0.67,VWS V14.01,2013-04-11 17:09:00,
2013-04-11 13:10:00,39.5,39.5,29.82,ESE,110,15.0,15.0,100,0.00,,,0.67,VWS V14.01,2013-04-11 17:10:00,
2013-04-11 13:11:00,39.6,39.6,29.81,SE,124,18.1,18.1,100,0.00,,,0.67,VWS V14.01,2013-04-11 17:11:00,
2013-04-11 13:12:00,39.6,39.6,29.81,East,79,17.9,18.1,100,0.00,,,0.67,VWS V14.01,2013-04-11 17:12:00,
2013-04-11 13:13:00,39.5,39.5,29.81,ESE,115,16.7,19.1,100,0.00,,,0.67,VWS V14.01,2013-04-11 17:13:00,
2013-04-11 13:14:00,39.5,39.5,29.81,ESE,115,16.7,19.1,100,0.00,,,0.67,VWS V14.01,2013-04-11 17:14:00,
2013-04-11 13:15:00,39.5,39.5,29.81,ESE,109,16.2,19.3,100,0.00,,,0.67,VWS V14.01,2013-04-11 17:15:00,
2013-04-11 13:16:00,39.5,39.5,29.81,East,89,14.1,16.2,100,0.00,,,0.67,VWS V14.01,2013-04-11 17:16:00,
2013-04-11 13:17:00,39.4,39.5,29.81,East,92,14.1,16.9,100,0.00,,,0.67,VWS V14.01,2013-04-11 17:17:00,
2013-04-11 13:18:00,39.5,39.5,29.80,East,97,17.7,17.7,100,0.00,,,0.67,VWS V14.01,2013-04-11 17:18:00,
2013-04-11 13:19:00,39.5,39.5,29.81,ENE,73,21.0,21.0,100,0.00,,,0.67,VWS V14.01,2013-04-11 17:19:00,
2013-04-11 13:20:00,39.5,39.5,29.82,ESE,110,16.0,21.0,100,0.00,,,0.67,VWS V14.01,2013-04-11 17:20:00,
2013-04-11 13:21:00,39.4,39.4,29.82,ESE,120,17.6,17.6,100,0.00,,,0.67,VWS V14.01,2013-04-11 17:21:00,
2013-04-11 13:22:00,39.5,39.5,29.81,East,94,16.4,17.6,100,0.00,,,0.67,VWS V14.01,2013-04-11 17:22:00,
2013-04-11 13:23:00,39.4,39.4,29.81,East,95,16.2,18.4,100,0.00,,,0.67,VWS V14.01,2013-04-11 17:23:00,
2013-04-11 13:24:00,39.4,39.4,29.81,East,88,14.6,16.2,100,0.00,,,0.67,VWS V14.01,2013-04-11 17:24:00,
2013-04-11 13:25:00,39.4,39.4,29.81,East,86,17.4,17.4,100,0.00,,,0.67,VWS V14.01,2013-04-11 17:25:00,
2013-04-11 13:26:00,39.7,39.7,29.81,ESE,119,14.3,19.3,100,0.00,,,0.67,VWS V14.01,2013-04-11 17:26:00,
2013-04-11 13:27:00,39.2,39.2,29.80,East,89,17.6,17.6,100,0.00,,,0.67,VWS V14.01,2013-04-11 17:27:00,
2013-04-11 13:28:00,39.5,39.5,29.80,East,89,15.2,17.6,100,0.00,,,0.67,VWS V14.01,2013-04-11 17:28:00,
2013-04-11 13:29:00,39.3,39.3,29.80,East,92,20.3,20.3,100,0.00,,,0.67,VWS V14.01,2013-04-11 17:29:00,
2013-04-11 13:30:00,39.6,39.6,29.81,East,87,15.0,20.3,100,0.00,,,0.67,VWS V14.01,2013-04-11 17:30:00,
2013-04-11 13:31:00,39.5,39.5,29.80,ENE,78,18.9,18.9,100,0.00,,,0.67,VWS V14.01,2013-04-11 17:31:00,
2013-04-11 13:32:00,39.6,39.6,29.81,East,100,13.5,14.5,100,0.00,,,0.67,VWS V14.01,2013-04-11 17:32:00,
2013-04-11 13:33:00,39.5,39.5,29.80,ESE,117,14.1,16.0,100,0.00,,,0.67,VWS V14.01,2013-04-11 17:33:00,
2013-04-11 13:34:00,39.6,39.6,29.80,East,85,10.9,16.0,100,0.00,,,0.67,VWS V14.01,2013-04-11 17:34:00,
2013-04-11 13:35:00,39.5,39.5,29.80,East,94,12.8,12.8,100,0.00,,,0.67,VWS V14.01,2013-04-11 17:35:00,
2013-04-11 13:36:00,39.7,39.7,29.80,ESE,105,9.0,12.8,100,0.00,,,0.67,VWS V14.01,2013-04-11 17:36:00,
2013-04-11 13:37:00,39.6,39.6,29.80,East,93,13.3,13.3,100,0.00,,,0.67,VWS V14.01,2013-04-11 17:37:00,
2013-04-11 13:38:00,39.5,39.5,29.80,East,96,13.4,14.1,100,0.00,,,0.67,VWS V14.01,2013-04-11 17:38:00,
2013-04-11 13:39:00,39.5,39.5,29.80,East,96,13.5,14.1,100,0.00,,,0.67,VWS V14.01,2013-04-11 17:39:00,
2013-04-11 13:40:00,39.4,39.4,29.80,East,82,15.7,15.7,100,0.00,,,0.67,VWS V14.01,2013-04-11 17:40:00,
2013-04-11 13:41:00,39.3,39.3,29.80,SE,130,16.9,16.9,100,0.00,,,0.67,VWS V14.01,2013-04-11 17:41:00,
2013-04-11 13:42:00,39.1,39.1,29.79,ESE,121,16.4,18.8,100,0.00,,,0.67,VWS V14.01,2013-04-11 17:42:00,
2013-04-11 13:43:00,39.1,39.1,29.79,ESE,121,16.4,18.8,100,0.00,,,0.67,VWS V14.01,2013-04-11 17:43:00,
2013-04-11 13:44:00,39.0,39.0,29.79,ESE,110,21.0,21.0,100,0.00,,,0.67,VWS V14.01,2013-04-11 17:44:00,
2013-04-11 13:45:00,39.0,39.0,29.79,ESE,106,17.9,21.0,100,0.00,,,0.67,VWS V14.01,2013-04-11 17:45:00,
2013-04-11 13:46:00,39.3,39.3,29.79,East,82,13.1,13.1,100,0.00,,,0.67,VWS V14.01,2013-04-11 17:46:00,
2013-04-11 13:47:00,39.3,39.3,29.79,East,82,13.1,13.1,100,0.00,,,0.67,VWS V14.01,2013-04-11 17:47:00,
2013-04-11 13:48:00,38.9,38.9,29.79,East,99,13.3,13.3,100,0.00,,,0.67,VWS V14.01,2013-04-11 17:48:00,
2013-04-11 13:49:00,39.0,39.0,29.79,East,90,15.8,19.3,100,0.00,,,0.67,VWS V14.01,2013-04-11 17:49:00,
2013-04-11 13:50:00,39.1,39.1,29.79,ESE,109,18.8,18.8,100,0.00,,,0.67,VWS V14.01,2013-04-11 17:50:00,
2013-04-11 13:51:00,39.2,39.2,29.79,ENE,76,15.2,18.8,100,0.00,,,0.67,VWS V14.01,2013-04-11 17:51:00,
2013-04-11 13:52:00,38.8,38.8,29.79,East,96,25.3,25.3,100,0.00,,,0.67,VWS V14.01,2013-04-11 17:52:00,
2013-04-11 13:53:00,39.2,39.2,29.79,ESE,113,17.7,18.1,100,0.00,,,0.67,VWS V14.01,2013-04-11 17:53:00,
2013-04-11 13:54:00,39.0,39.0,29.79,East,93,18.6,18.6,100,0.00,,,0.67,VWS V14.01,2013-04-11 17:54:00,
2013-04-11 13:55:00,39.5,39.5,29.78,ESE,105,14.0,18.8,100,0.00,,,0.67,VWS V14.01,2013-04-11 17:55:00,
2013-04-11 13:56:00,39.4,39.4,29.78,ENE,65,17.0,17.0,100,0.00,,,0.67,VWS V14.01,2013-04-11 17:56:00,
2013-04-11 13:57:00,38.8,38.8,29.77,East,96,20.5,20.5,100,0.00,,,0.67,VWS V14.01,2013-04-11 17:57:00,
2013-04-11 13:58:00,39.1,38.6,29.77,East,80,15.3,20.5,98,0.00,,,0.67,VWS V14.01,2013-04-11 17:58:00,
2013-04-11 13:59:00,39.0,39.0,29.77,ENE,75,13.8,21.2,100,0.00,,,0.67,VWS V14.01,2013-04-11 17:59:00,
2013-04-11 14:00:00,38.7,38.7,29.77,East,90,19.1,19.1,100,0.00,,,0.67,VWS V14.01,2013-04-11 18:00:00,
2013-04-11 14:01:00,38.8,38.8,29.77,East,90,14.0,17.9,100,0.00,,,0.67,VWS V14.01,2013-04-11 18:01:00,
2013-04-11 14:02:00,39.1,39.1,29.78,East,84,13.1,15.3,100,0.00,,,0.67,VWS V14.01,2013-04-11 18:02:00,
2013-04-11 14:03:00,38.6,38.6,29.78,East,82,16.9,16.9,100,0.00,,,0.67,VWS V14.01,2013-04-11 18:03:00,
2013-04-11 14:04:00,39.1,39.1,29.78,ESE,113,12.1,15.8,100,0.00,,,0.67,VWS V14.01,2013-04-11 18:04:00,
2013-04-11 14:05:00,39.0,39.0,29.81,East,79,14.1,14.1,100,0.00,,,0.67,VWS V14.01,2013-04-11 18:05:00,
2013-04-11 14:06:00,38.5,38.5,29.77,ESE,105,21.7,21.7,100,0.00,,,0.67,VWS V14.01,2013-04-11 18:06:00,
2013-04-11 14:07:00,38.9,38.9,29.78,East,89,14.5,21.7,100,0.00,,,0.67,VWS V14.01,2013-04-11 18:07:00,
2013-04-11 14:08:00,38.8,38.8,29.77,SE,135,18.4,22.4,100,0.00,,,0.67,VWS V14.01,2013-04-11 18:08:00,
2013-04-11 14:09:00,38.6,38.6,29.77,SE,129,14.8,18.8,100,0.00,,,0.67,VWS V14.01,2013-04-11 18:09:00,
2013-04-11 14:10:00,38.8,38.8,29.77,ESE,104,17.7,17.7,100,0.00,,,0.67,VWS V14.01,2013-04-11 18:10:00,
2013-04-11 14:11:00,38.6,38.6,29.77,East,99,21.5,21.5,100,0.00,,,0.67,VWS V14.01,2013-04-11 18:11:00,
2013-04-11 14:12:00,38.7,38.7,29.77,ESE,103,20.1,21.5,100,0.00,,,0.67,VWS V14.01,2013-04-11 18:12:00,
2013-04-11 14:13:00,38.7,38.7,29.77,ESE,106,21.5,21.5,100,0.00,,,0.67,VWS V14.01,2013-04-11 18:13:00,
2013-04-11 14:14:00,38.7,38.7,29.78,East,101,17.2,21.5,100,0.00,,,0.67,VWS V14.01,2013-04-11 18:14:00,
2013-04-11 14:15:00,38.6,38.6,29.77,East,99,20.1,20.1,100,0.00,,,0.67,VWS V14.01,2013-04-11 18:15:00,
2013-04-11 14:16:00,38.8,38.8,29.78,East,95,16.5,20.1,100,0.00,,,0.67,VWS V14.01,2013-04-11 18:16:00,
2013-04-11 14:17:00,38.8,38.8,29.77,East,89,15.8,15.8,100,0.00,,,0.67,VWS V14.01,2013-04-11 18:17:00,
2013-04-11 14:18:00,38.6,38.6,29.77,ESE,120,16.7,18.2,100,0.00,,,0.67,VWS V14.01,2013-04-11 18:18:00,
2013-04-11 14:19:00,38.4,38.4,29.77,East,98,22.7,22.7,100,0.00,,,0.67,VWS V14.01,2013-04-11 18:19:00,
2013-04-11 14:20:00,38.8,38.8,29.77,ESE,106,18.1,22.7,100,0.00,,,0.67,VWS V14.01,2013-04-11 18:20:00,
2013-04-11 14:21:00,39.1,39.1,29.76,East,81,17.9,18.1,100,0.00,,,0.67,VWS V14.01,2013-04-11 18:21:00,
2013-04-11 14:22:00,38.9,38.9,29.76,East,96,12.6,17.9,100,0.00,,,0.67,VWS V14.01,2013-04-11 18:22:00,
2013-04-11 14:23:00,38.8,38.8,29.76,East,93,20.8,20.8,100,0.00,,,0.67,VWS V14.01,2013-04-11 18:23:00,
2013-04-11 14:24:00,39.1,39.1,29.76,East,95,10.9,20.8,100,0.00,,,0.67,VWS V14.01,2013-04-11 18:24:00,
2013-04-11 14:25:00,38.9,38.9,29.76,East,92,16.0,16.0,100,0.00,,,0.67,VWS V14.01,2013-04-11 18:25:00,
2013-04-11 14:26:00,39.0,39.0,29.76,East,93,13.6,16.0,100,0.00,,,0.67,VWS V14.01,2013-04-11 18:26:00,
2013-04-11 14:27:00,39.2,39.2,29.76,ESE,103,13.8,13.8,100,0.00,,,0.67,VWS V14.01,2013-04-11 18:27:00,
2013-04-11 14:28:00,38.6,38.6,29.75,ESE,113,24.1,24.1,100,0.00,,,0.67,VWS V14.01,2013-04-11 18:28:00,
2013-04-11 14:29:00,38.9,38.9,29.76,East,92,17.4,17.4,100,0.00,,,0.67,VWS V14.01,2013-04-11 18:29:00,
2013-04-11 14:30:00,38.5,38.5,29.77,East,101,23.2,23.2,100,0.00,,,0.67,VWS V14.01,2013-04-11 18:30:00,
2013-04-11 14:31:00,38.9,38.9,29.76,East,100,16.0,17.0,100,0.00,,,0.67,VWS V14.01,2013-04-11 18:31:00,
2013-04-11 14:32:00,39.1,39.1,29.75,ENE,68,16.2,16.2,100,0.00,,,0.67,VWS V14.01,2013-04-11 18:32:00,
2013-04-11 14:33:00,39.2,39.2,29.75,ENE,64,12.3,13.1,100,0.00,,,0.67,VWS V14.01,2013-04-11 18:33:00,
2013-04-11 14:34:00,38.7,38.7,29.76,East,99,16.7,16.7,100,0.00,,,0.67,VWS V14.01,2013-04-11 18:34:00,
2013-04-11 14:35:00,38.7,38.7,29.75,ESE,117,17.7,17.7,100,0.00,,,0.67,VWS V14.01,2013-04-11 18:35:00,
2013-04-11 14:36:00,38.4,38.4,29.76,East,93,20.5,21.0,100,0.00,,,0.67,VWS V14.01,2013-04-11 18:36:00,
2013-04-11 14:37:00,38.5,38.5,29.75,SE,128,22.2,24.7,100,0.00,,,0.67,VWS V14.01,2013-04-11 18:37:00,
2013-04-11 14:38:00,38.7,38.7,29.75,East,95,17.4,22.7,100,0.00,,,0.67,VWS V14.01,2013-04-11 18:38:00,
2013-04-11 14:39:00,38.7,38.7,29.75,East,84,12.9,17.4,100,0.00,,,0.67,VWS V14.01,2013-04-11 18:39:00,
2013-04-11 14:40:00,38.9,38.9,29.75,East,88,16.4,21.0,100,0.00,,,0.67,VWS V14.01,2013-04-11 18:40:00,
2013-04-11 14:41:00,38.4,38.4,29.76,East,94,17.6,17.6,100,0.00,,,0.67,VWS V14.01,2013-04-11 18:41:00,
2013-04-11 14:42:00,38.5,38.5,29.77,East,97,13.4,17.6,100,0.00,,,0.67,VWS V14.01,2013-04-11 18:42:00,
2013-04-11 14:43:00,38.5,38.5,29.76,ESE,121,12.9,13.4,100,0.00,,,0.67,VWS V14.01,2013-04-11 18:43:00,
2013-04-11 14:44:00,38.5,38.5,29.76,ESE,102,16.9,16.9,100,0.00,,,0.00,VWS V14.01,2013-04-11 18:44:00,
2013-04-11 14:45:00,38.6,38.6,29.77,ESE,105,16.4,16.9,100,0.00,,,0.67,VWS V14.01,2013-04-11 18:45:00,
2013-04-11 14:46:00,38.6,38.6,29.75,East,100,15.5,15.5,100,0.00,,,0.67,VWS V14.01,2013-04-11 18:46:00,
2013-04-11 14:47:00,38.6,38.6,29.76,East,86,20.8,20.8,100,0.00,,,0.67,VWS V14.01,2013-04-11 18:47:00,
2013-04-11 14:48:00,38.1,38.1,29.75,East,94,19.3,20.8,100,0.00,,,0.67,VWS V14.01,2013-04-11 18:48:00,
2013-04-11 14:49:00,38.2,38.2,29.80,East,101,20.3,20.3,100,0.00,,,0.67,VWS V14.01,2013-04-11 18:49:00,
2013-04-11 14:50:00,38.4,38.4,29.76,East,82,21.2,24.9,100,0.00,,,0.67,VWS V14.01,2013-04-11 18:50:00,
2013-04-11 14:51:00,38.3,38.3,29.75,East,93,22.5,23.0,100,0.00,,,0.67,VWS V14.01,2013-04-11 18:51:00,
2013-04-11 14:52:00,38.6,38.6,29.75,ENE,74,18.4,22.5,100,0.00,,,0.67,VWS V14.01,2013-04-11 18:52:00,
2013-04-11 14:53:00,38.4,38.4,29.75,ESE,119,18.8,23.0,100,0.00,,,0.67,VWS V14.01,2013-04-11 18:53:00,
2013-04-11 14:54:00,38.3,38.3,29.76,East,80,19.3,19.3,100,0.00,,,0.67,VWS V14.01,2013-04-11 18:54:00,
2013-04-11 14:55:00,38.3,38.3,29.79,ESE,107,17.0,19.3,100,0.00,,,0.67,VWS V14.01,2013-04-11 18:55:00,
2013-04-11 14:56:00,38.1,38.1,29.75,ESE,113,18.8,21.0,100,0.00,,,0.67,VWS V14.01,2013-04-11 18:56:00,
2013-04-11 14:57:00,38.2,38.2,29.75,East,98,24.2,24.2,100,0.00,,,0.67,VWS V14.01,2013-04-11 18:57:00,
2013-04-11 14:58:00,38.0,38.0,29.75,East,94,22.7,24.2,100,0.00,,,0.67,VWS V14.01,2013-04-11 18:58:00,
2013-04-11 14:59:00,38.4,38.4,29.75,East,84,17.9,22.9,100,0.00,,,0.67,VWS V14.01,2013-04-11 18:59:00,
2013-04-11 15:00:00,38.5,38.5,29.76,ESE,110,12.3,17.9,100,0.00,,,0.67,VWS V14.01,2013-04-11 19:00:00,
2013-04-11 15:01:00,38.4,38.4,29.75,East,96,19.3,19.3,100,0.00,,,0.67,VWS V14.01,2013-04-11 19:01:00,
2013-04-11 15:02:00,38.4,38.4,29.75,ESE,111,16.5,19.3,100,0.00,,,0.67,VWS V14.01,2013-04-11 19:02:00,
2013-04-11 15:03:00,38.4,38.4,29.74,ESE,118,16.4,17.2,100,0.00,,,0.67,VWS V14.01,2013-04-11 19:03:00,
2013-04-11 15:04:00,38.5,38.5,29.75,ESE,119,17.0,17.0,100,0.00,,,0.67,VWS V14.01,2013-04-11 19:04:00,
2013-04-11 15:05:00,38.5,38.5,29.75,East,96,14.8,17.0,100,0.00,,,0.67,VWS V14.01,2013-04-11 19:05:00,
2013-04-11 15:06:00,38.4,38.4,29.75,East,101,18.4,18.4,100,0.00,,,0.67,VWS V14.01,2013-04-11 19:06:00,
2013-04-11 15:07:00,38.4,38.4,29.75,East,89,16.5,21.2,100,0.00,,,0.67,VWS V14.01,2013-04-11 19:07:00,
2013-04-11 15:08:00,38.6,38.6,29.75,ENE,71,16.9,18.2,100,0.00,,,0.67,VWS V14.01,2013-04-11 19:08:00,
2013-04-11 15:09:00,38.4,38.4,29.75,East,93,22.2,22.2,100,0.00,,,0.67,VWS V14.01,2013-04-11 19:09:00,
2013-04-11 15:10:00,38.5,38.5,29.73,East,96,15.7,22.2,100,0.00,,,0.67,VWS V14.01,2013-04-11 19:10:00,
2013-04-11 15:11:00,38.7,38.7,29.74,East,87,10.7,15.7,100,0.00,,,0.67,VWS V14.01,2013-04-11 19:11:00,
2013-04-11 15:12:00,38.5,38.5,29.75,East,100,12.6,12.6,100,0.00,,,0.67,VWS V14.01,2013-04-11 19:12:00,
2013-04-11 15:13:00,38.2,38.2,29.74,East,93,18.6,18.6,100,0.00,,,0.67,VWS V14.01,2013-04-11 19:13:00,
2013-04-11 15:14:00,38.4,38.4,29.75,SE,128,15.5,18.6,100,0.00,,,0.67,VWS V14.01,2013-04-11 19:14:00,
2013-04-11 15:15:00,38.2,38.2,29.75,ESE,113,14.1,16.4,100,0.00,,,0.67,VWS V14.01,2013-04-11 19:15:00,
2013-04-11 15:16:00,38.4,38.4,29.74,East,88,16.0,16.0,100,0.00,,,0.67,VWS V14.01,2013-04-11 19:16:00,
2013-04-11 15:17:00,38.6,38.6,29.74,East,85,15.8,16.0,100,0.00,,,0.67,VWS V14.01,2013-04-11 19:17:00,
2013-04-11 15:18:00,38.5,38.5,29.73,East,84,12.1,16.5,100,0.00,,,0.67,VWS V14.01,2013-04-11 19:18:00,
2013-04-11 15:19:00,38.4,38.4,29.73,East,83,11.1,12.1,100,0.00,,,0.67,VWS V14.01,2013-04-11 19:19:00,
2013-04-11 15:20:00,38.0,38.0,29.74,ENE,68,14.6,16.0,100,0.00,,,0.67,VWS V14.01,2013-04-11 19:20:00,
2013-04-11 15:21:00,38.1,38.1,29.74,East,86,12.9,14.6,100,0.00,,,0.67,VWS V14.01,2013-04-11 19:21:00,
2013-04-11 15:22:00,38.0,38.0,29.74,East,89,17.2,17.2,100,0.00,,,0.67,VWS V14.01,2013-04-11 19:22:00,
2013-04-11 15:23:00,38.0,38.0,29.74,East,89,17.2,17.2,100,0.00,,,0.67,VWS V14.01,2013-04-11 19:23:00,
2013-04-11 15:24:00,37.9,37.9,29.74,ENE,68,14.3,17.6,100,0.00,,,0.67,VWS V14.01,2013-04-11 19:24:00,
2013-04-11 15:25:00,37.6,37.6,29.74,East,96,15.2,18.6,100,0.00,,,0.67,VWS V14.01,2013-04-11 19:25:00,
2013-04-11 15:26:00,37.8,37.8,29.73,East,92,21.5,21.5,100,0.00,,,0.67,VWS V14.01,2013-04-11 19:26:00,
2013-04-11 15:27:00,37.9,37.9,29.74,ENE,69,13.3,21.5,100,0.00,,,0.67,VWS V14.01,2013-04-11 19:27:00,
2013-04-11 15:28:00,37.6,37.6,29.74,ENE,59,19.6,19.6,100,0.00,,,0.67,VWS V14.01,2013-04-11 19:28:00,
2013-04-11 15:29:00,37.6,37.6,29.74,ENE,59,19.6,19.6,100,0.00,,,0.67,VWS V14.01,2013-04-11 19:29:00,
2013-04-11 15:30:00,37.7,37.7,29.78,ESE,104,13.8,18.9,100,0.00,,,0.67,VWS V14.01,2013-04-11 19:30:00,
2013-04-11 15:31:00,37.8,37.8,29.75,ESE,104,14.8,20.5,100,0.00,,,0.67,VWS V14.01,2013-04-11 19:31:00,
2013-04-11 15:32:00,37.7,37.7,29.75,East,98,16.0,21.7,100,0.00,,,0.67,VWS V14.01,2013-04-11 19:32:00,
2013-04-11 15:33:00,37.8,37.8,29.76,East,83,20.1,20.1,100,0.00,,,0.67,VWS V14.01,2013-04-11 19:33:00,
2013-04-11 15:34:00,37.8,37.8,29.75,East,80,16.9,20.1,100,0.00,,,0.67,VWS V14.01,2013-04-11 19:34:00,
2013-04-11 15:35:00,37.7,37.7,29.75,ENE,75,15.0,21.8,100,0.00,,,0.67,VWS V14.01,2013-04-11 19:35:00,
2013-04-11 15:36:00,38.0,38.0,29.74,ENE,68,21.2,21.2,100,0.00,,,0.67,VWS V14.01,2013-04-11 19:36:00,
2013-04-11 15:37:00,38.1,38.1,29.74,East,96,22.2,22.2,100,0.00,,,0.67,VWS V14.01,2013-04-11 19:37:00,
2013-04-11 15:38:00,38.2,38.2,29.77,East,96,19.1,22.2,100,0.00,,,0.67,VWS V14.01,2013-04-11 19:38:00,
2013-04-11 15:39:00,37.9,37.9,29.74,East,95,18.4,24.2,100,0.00,,,0.67,VWS V14.01,2013-04-11 19:39:00,
2013-04-11 15:40:00,37.9,37.9,29.74,East,92,17.2,18.4,100,0.00,,,0.67,VWS V14.01,2013-04-11 19:40:00,
2013-04-11 15:41:00,37.9,37.9,29.74,ESE,114,15.0,17.2,100,0.00,,,0.67,VWS V14.01,2013-04-11 19:41:00,
2013-04-11 15:42:00,38.0,38.0,29.75,ESE,119,12.8,15.7,100,0.00,,,0.67,VWS V14.01,2013-04-11 19:42:00,
2013-04-11 15:43:00,38.0,38.0,29.75,South,169,10.9,10.9,100,0.00,,,0.67,VWS V14.01,2013-04-11 19:43:00,
2013-04-11 15:44:00,38.1,38.1,29.74,ESE,105,10.4,10.9,100,0.00,,,0.67,VWS V14.01,2013-04-11 19:44:00,
2013-04-11 15:45:00,38.0,38.0,29.75,East,100,13.1,13.1,100,0.00,,,0.67,VWS V14.01,2013-04-11 19:45:00,
2013-04-11 15:46:00,37.7,37.7,29.75,East,100,13.5,17.0,100,0.00,,,0.67,VWS V14.01,2013-04-11 19:46:00,
2013-04-11 15:47:00,37.8,37.8,29.75,ESE,105,14.1,18.6,100,0.00,,,0.67,VWS V14.01,2013-04-11 19:47:00,
2013-04-11 15:48:00,37.8,37.8,29.75,SE,124,15.7,15.7,100,0.00,,,0.67,VWS V14.01,2013-04-11 19:48:00,
2013-04-11 15:49:00,37.9,37.9,29.75,ESE,119,15.2,15.7,100,0.00,,,0.67,VWS V14.01,2013-04-11 19:49:00,
2013-04-11 15:50:00,38.0,38.0,29.75,SE,129,12.6,15.2,100,0.00,,,0.67,VWS V14.01,2013-04-11 19:50:00,
2013-04-11 15:51:00,38.3,38.3,29.74,ESE,109,12.3,12.6,100,0.00,,,0.67,VWS V14.01,2013-04-11 19:51:00,
2013-04-11 15:52:00,38.0,38.0,29.75,East,94,13.3,13.3,100,0.00,,,0.67,VWS V14.01,2013-04-11 19:52:00,
2013-04-11 15:53:00,37.6,37.6,29.75,ESE,108,17.9,17.9,100,0.00,,,0.67,VWS V14.01,2013-04-11 19:53:00,
2013-04-11 15:54:00,37.6,37.6,29.75,ESE,108,17.9,17.9,100,0.00,,,0.67,VWS V14.01,2013-04-11 19:54:00,
2013-04-11 15:55:00,37.5,37.5,29.74,East,92,18.2,20.6,100,0.00,,,0.67,VWS V14.01,2013-04-11 19:55:00,
2013-04-11 15:56:00,37.8,37.8,29.74,East,85,14.1,18.2,100,0.00,,,0.67,VWS V14.01,2013-04-11 19:56:00,
2013-04-11 15:57:00,37.8,37.8,29.74,East,90,19.1,19.1,100,0.00,,,0.67,VWS V14.01,2013-04-11 19:57:00,
2013-04-11 15:58:00,37.5,37.5,29.75,East,84,19.8,19.8,100,0.00,,,0.67,VWS V14.01,2013-04-11 19:58:00,
2013-04-11 15:59:00,37.8,37.8,29.74,East,92,18.4,19.8,100,0.00,,,0.67,VWS V14.01,2013-04-11 19:59:00,
2013-04-11 16:00:00,37.6,37.7,29.75,East,93,18.9,20.0,100,0.00,,,0.67,VWS V14.01,2013-04-11 20:00:00,
2013-04-11 16:04:00,38.2,38.2,29.74,East,89,12.6,15.3,100,0.00,,,0.67,VWS V14.01,2013-04-11 20:04:00,
2013-04-11 16:06:00,37.9,37.9,29.75,ENE,78,13.1,15.3,100,0.00,,,0.67,VWS V14.01,2013-04-11 20:06:00,
2013-04-11 16:08:00,37.6,37.6,29.73,East,96,18.4,18.4,100,0.00,,,0.00,VWS V14.01,2013-04-11 20:08:00,
2013-04-11 16:10:00,37.6,37.6,29.73,ENE,58,17.9,18.4,100,0.00,,,0.67,VWS V14.01,2013-04-11 20:10:00,
2013-04-11 16:12:00,37.7,37.7,29.74,East,90,14.8,19.1,100,0.00,,,0.67,VWS V14.01,2013-04-11 20:12:00,
2013-04-11 16:14:00,37.5,37.5,29.74,East,97,17.0,19.1,100,0.00,,,0.67,VWS V14.01,2013-04-11 20:14:00,
2013-04-11 16:16:00,37.6,37.6,29.74,East,92,20.8,20.8,100,0.00,,,0.67,VWS V14.01,2013-04-11 20:16:00,
2013-04-11 16:18:00,37.5,37.5,29.73,East,87,16.4,20.8,100,0.00,,,0.67,VWS V14.01,2013-04-11 20:18:00,
2013-04-11 16:19:00,37.5,37.5,29.73,East,87,16.4,20.8,100,0.00,,,0.67,VWS V14.01,2013-04-11 20:19:00,
2013-04-11 16:24:00,37.7,37.7,29.73,ENE,67,16.7,20.8,100,0.00,,,0.67,VWS V14.01,2013-04-11 20:24:00,
2013-04-11 16:25:00,37.9,37.9,29.73,East,86,12.6,20.8,100,0.00,,,0.67,VWS V14.01,2013-04-11 20:25:00,
2013-04-11 16:26:00,37.9,37.9,29.73,ENE,75,12.9,20.8,100,0.00,,,0.67,VWS V14.01,2013-04-11 20:26:00,
2013-04-11 16:27:00,37.8,37.8,29.73,SE,127,12.6,20.8,100,0.00,,,0.67,VWS V14.01,2013-04-11 20:27:00,
2013-04-11 16:31:00,38.0,37.2,29.73,ENE,69,15.2,20.8,97,0.00,,,0.67,VWS V14.01,2013-04-11 20:31:00,
2013-04-11 16:32:00,37.9,37.9,29.73,ESE,102,15.5,20.8,100,0.00,,,0.67,VWS V14.01,2013-04-11 20:32:00,
2013-04-11 16:37:00,38.0,38.0,29.74,East,96,17.7,20.8,100,0.00,,,0.67,VWS V14.01,2013-04-11 20:37:00,
2013-04-11 16:38:00,38.0,38.0,29.73,ENE,73,14.0,20.8,100,0.00,,,0.67,VWS V14.01,2013-04-11 20:38:00,
2013-04-11 16:39:00,38.4,38.4,29.73,East,83,10.7,20.8,100,0.00,,,0.67,VWS V14.01,2013-04-11 20:39:00,
2013-04-11 16:43:00,37.8,37.8,29.73,East,83,14.5,20.8,100,0.00,,,0.67,VWS V14.01,2013-04-11 20:43:00,
2013-04-11 16:44:00,38.1,38.1,29.72,East,92,20.6,20.8,100,0.00,,,0.67,VWS V14.01,2013-04-11 20:44:00,
2013-04-11 16:46:00,38.0,38.0,29.71,East,90,19.4,20.8,100,0.00,,,0.67,VWS V14.01,2013-04-11 20:46:00,
2013-04-11 16:49:00,37.8,37.8,29.72,ESE,105,20.8,22.2,100,0.00,,,0.67,VWS V14.01,2013-04-11 20:49:00,
2013-04-11 16:50:00,37.7,37.7,29.72,East,97,20.1,22.2,100,0.00,,,0.67,VWS V14.01,2013-04-11 20:50:00,
2013-04-11 16:51:00,37.7,37.7,29.72,East,93,16.9,22.2,100,0.00,,,0.67,VWS V14.01,2013-04-11 20:51:00,
2013-04-11 16:52:00,38.1,38.1,29.73,East,83,17.2,22.2,100,0.00,,,0.67,VWS V14.01,2013-04-11 20:52:00,
2013-04-11 16:55:00,38.2,38.2,29.71,ENE,60,14.1,22.2,100,0.00,,,0.67,VWS V14.01,2013-04-11 20:55:00,
2013-04-11 16:57:00,37.9,38.0,29.70,East,95,16.9,22.2,100,0.00,,,0.67,VWS V14.01,2013-04-11 20:57:00,
2013-04-11 16:58:00,37.8,37.8,29.70,ESE,103,20.5,22.2,100,0.00,,,0.67,VWS V14.01,2013-04-11 20:58:00,
2013-04-11 17:00:00,37.6,37.6,29.71,East,93,16.5,22.2,100,0.00,,,0.67,VWS V14.01,2013-04-11 21:00:00,
2013-04-11 17:01:00,37.7,37.7,29.74,East,89,14.0,18.9,100,0.00,,,0.67,VWS V14.01,2013-04-11 21:01:00,
2013-04-11 17:02:00,37.8,37.8,29.70,East,88,20.5,23.9,100,0.00,,,0.67,VWS V14.01,2013-04-11 21:02:00,
2013-04-11 17:03:00,37.8,37.8,29.71,ENE,65,16.0,20.5,100,0.00,,,0.67,VWS V14.01,2013-04-11 21:03:00,
2013-04-11 17:04:00,37.8,37.8,29.71,East,89,17.4,17.4,100,0.00,,,0.67,VWS V14.01,2013-04-11 21:04:00,
2013-04-11 17:05:00,37.9,37.9,29.72,East,89,18.1,18.1,100,0.00,,,0.67,VWS V14.01,2013-04-11 21:05:00,
2013-04-11 17:06:00,37.9,37.9,29.71,East,88,14.6,18.1,100,0.00,,,0.67,VWS V14.01,2013-04-11 21:06:00,
2013-04-11 17:07:00,37.9,37.9,29.71,ESE,102,19.4,19.4,100,0.00,,,0.67,VWS V14.01,2013-04-11 21:07:00,
2013-04-11 17:08:00,38.0,38.0,29.71,East,99,14.6,19.4,100,0.00,,,0.67,VWS V14.01,2013-04-11 21:08:00,
2013-04-11 17:09:00,37.9,37.9,29.72,East,91,16.5,16.5,100,0.00,,,0.67,VWS V14.01,2013-04-11 21:09:00,
2013-04-11 17:10:00,38.0,38.0,29.70,East,97,14.8,17.2,100,0.00,,,0.67,VWS V14.01,2013-04-11 21:10:00,
2013-04-11 17:11:00,37.9,37.9,29.74,East,83,18.1,18.1,100,0.00,,,0.67,VWS V14.01,2013-04-11 21:11:00,
2013-04-11 17:12:00,37.9,37.9,29.72,ENE,66,15.7,18.1,100,0.00,,,0.67,VWS V14.01,2013-04-11 21:12:00,
2013-04-11 17:13:00,37.5,37.5,29.71,East,92,17.4,17.4,100,0.00,,,0.67,VWS V14.01,2013-04-11 21:13:00,
2013-04-11 17:14:00,37.7,37.7,29.72,ENE,71,16.5,17.4,100,0.00,,,0.67,VWS V14.01,2013-04-11 21:14:00,
2013-04-11 17:15:00,37.6,37.6,29.71,East,94,14.8,16.5,100,0.00,,,0.67,VWS V14.01,2013-04-11 21:15:00,
2013-04-11 17:16:00,37.5,37.5,29.71,East,96,16.0,16.0,100,0.00,,,0.67,VWS V14.01,2013-04-11 21:16:00,
2013-04-11 17:17:00,37.7,37.7,29.71,East,101,15.5,16.0,100,0.00,,,0.67,VWS V14.01,2013-04-11 21:17:00,
2013-04-11 17:18:00,37.6,37.6,29.70,ENE,76,16.9,16.9,100,0.00,,,0.67,VWS V14.01,2013-04-11 21:18:00,
2013-04-11 17:19:00,37.4,37.4,29.71,East,95,22.9,22.9,100,0.00,,,0.67,VWS V14.01,2013-04-11 21:19:00,
2013-04-11 17:20:00,37.6,37.6,29.71,East,101,11.6,22.9,100,0.00,,,0.67,VWS V14.01,2013-04-11 21:20:00,
2013-04-11 17:21:00,37.6,37.6,29.71,East,84,12.8,12.8,100,0.00,,,0.67,VWS V14.01,2013-04-11 21:21:00,
2013-04-11 17:22:00,37.6,37.6,29.71,East,96,10.9,13.6,100,0.00,,,0.67,VWS V14.01,2013-04-11 21:22:00,
2013-04-11 17:23:00,37.5,37.5,29.71,East,85,16.7,16.7,100,0.00,,,0.67,VWS V14.01,2013-04-11 21:23:00,
2013-04-11 17:24:00,37.6,37.6,29.72,ENE,70,10.9,16.7,100,0.00,,,0.67,VWS V14.01,2013-04-11 21:24:00,
2013-04-11 17:25:00,37.5,37.5,29.71,East,88,18.4,18.4,100,0.00,,,0.67,VWS V14.01,2013-04-11 21:25:00,
2013-04-11 17:26:00,37.5,37.5,29.71,NE,55,9.5,18.4,100,0.00,,,0.67,VWS V14.01,2013-04-11 21:26:00,
2013-04-11 17:27:00,37.4,37.4,29.71,East,87,15.0,15.0,100,0.00,,,0.67,VWS V14.01,2013-04-11 21:27:00,
2013-04-11 17:28:00,37.4,37.4,29.72,East,83,16.5,16.5,100,0.00,,,0.67,VWS V14.01,2013-04-11 21:28:00,
2013-04-11 17:29:00,37.5,37.5,29.72,East,86,9.2,9.2,100,0.00,,,0.67,VWS V14.01,2013-04-11 21:29:00,
2013-04-11 17:30:00,37.5,37.5,29.71,ESE,103,11.1,11.4,100,0.00,,,0.67,VWS V14.01,2013-04-11 21:30:00,
2013-04-11 17:31:00,37.3,37.3,29.71,East,79,12.4,15.2,100,0.00,,,0.67,VWS V14.01,2013-04-11 21:31:00,
2013-04-11 17:32:00,37.3,37.3,29.71,East,96,18.8,18.8,100,0.00,,,0.67,VWS V14.01,2013-04-11 21:32:00,
2013-04-11 17:33:00,37.2,37.2,29.71,East,96,17.0,18.8,100,0.00,,,0.67,VWS V14.01,2013-04-11 21:33:00,
2013-04-11 17:34:00,37.5,37.5,29.71,ENE,69,14.6,17.0,100,0.00,,,0.67,VWS V14.01,2013-04-11 21:34:00,
2013-04-11 17:35:00,37.2,37.2,29.71,ENE,73,17.4,17.4,100,0.00,,,0.67,VWS V14.01,2013-04-11 21:35:00,
2013-04-11 17:36:00,37.5,37.5,29.70,East,86,15.0,17.4,100,0.00,,,0.67,VWS V14.01,2013-04-11 21:36:00,
2013-04-11 17:37:00,37.3,37.3,29.70,East,79,22.9,22.9,100,0.00,,,0.67,VWS V14.01,2013-04-11 21:37:00,
2013-04-11 17:38:00,37.5,37.5,29.70,East,88,16.2,22.9,100,0.00,,,0.67,VWS V14.01,2013-04-11 21:38:00,
2013-04-11 17:39:00,37.5,37.5,29.72,ENE,77,12.9,12.9,100,0.00,,,0.67,VWS V14.01,2013-04-11 21:39:00,
2013-04-11 17:40:00,37.2,37.2,29.71,East,92,11.7,12.9,100,0.00,,,0.67,VWS V14.01,2013-04-11 21:40:00,
2013-04-11 17:41:00,37.3,37.3,29.72,SE,127,10.2,19.3,100,0.00,,,0.67,VWS V14.01,2013-04-11 21:41:00,
2013-04-11 17:42:00,37.5,37.5,29.76,SE,125,15.2,15.2,100,0.00,,,0.67,VWS V14.01,2013-04-11 21:42:00,
2013-04-11 17:43:00,37.4,37.4,29.72,SE,143,12.6,15.2,100,0.00,,,0.67,VWS V14.01,2013-04-11 21:43:00,
2013-04-11 17:44:00,37.5,37.5,29.72,SE,128,12.4,17.6,100,0.00,,,0.67,VWS V14.01,2013-04-11 21:44:00,
2013-04-11 17:45:00,37.4,37.4,29.72,SE,131,13.5,13.5,100,0.00,,,0.67,VWS V14.01,2013-04-11 21:45:00,
2013-04-11 17:46:00,37.4,37.4,29.72,East,94,12.8,12.9,100,0.00,,,0.67,VWS V14.01,2013-04-11 21:46:00,
2013-04-11 17:47:00,37.5,37.5,29.71,East,93,11.7,12.8,100,0.00,,,0.67,VWS V14.01,2013-04-11 21:47:00,
2013-04-11 17:48:00,37.5,37.5,29.72,ENE,75,11.6,11.6,100,0.00,,,0.67,VWS V14.01,2013-04-11 21:48:00,
2013-04-11 17:49:00,37.2,37.2,29.71,East,89,22.7,22.7,100,0.00,,,0.67,VWS V14.01,2013-04-11 21:49:00,
2013-04-11 17:50:00,37.2,37.2,29.71,East,84,16.5,22.7,100,0.00,,,0.67,VWS V14.01,2013-04-11 21:50:00,
2013-04-11 17:51:00,37.2,37.2,29.71,ENE,71,17.9,17.9,100,0.00,,,0.67,VWS V14.01,2013-04-11 21:51:00,
2013-04-11 17:52:00,37.3,37.3,29.71,ESE,102,19.8,19.8,100,0.00,,,0.67,VWS V14.01,2013-04-11 21:52:00,
2013-04-11 17:53:00,37.4,37.4,29.71,East,97,13.4,19.8,100,0.00,,,0.67,VWS V14.01,2013-04-11 21:53:00,
2013-04-11 17:54:00,37.3,37.3,29.71,East,80,20.5,20.8,100,0.00,,,0.67,VWS V14.01,2013-04-11 21:54:00,
2013-04-11 17:55:00,37.4,37.4,29.71,East,83,18.8,20.5,100,0.00,,,0.67,VWS V14.01,2013-04-11 21:55:00,
2013-04-11 17:56:00,37.3,37.3,29.71,East,82,18.4,18.4,100,0.00,,,0.67,VWS V14.01,2013-04-11 21:56:00,
2013-04-11 17:57:00,37.3,37.3,29.71,East,85,20.8,20.8,100,0.00,,,0.67,VWS V14.01,2013-04-11 21:57:00,
2013-04-11 17:58:00,37.3,37.3,29.71,NE,45,16.9,16.9,100,0.00,,,0.67,VWS V14.01,2013-04-11 21:58:00,
2013-04-11 17:59:00,37.5,37.5,29.70,ENE,75,13.6,16.9,100,0.00,,,0.67,VWS V14.01,2013-04-11 21:59:00,
2013-04-11 18:00:00,37.3,37.3,29.70,East,88,17.4,17.4,100,0.00,,,0.67,VWS V14.01,2013-04-11 22:00:00,
2013-04-11 18:01:00,37.3,37.3,29.71,ENE,74,15.5,18.2,100,0.00,,,0.67,VWS V14.01,2013-04-11 22:01:00,
2013-04-11 18:02:00,37.3,37.3,29.70,East,91,15.3,18.2,100,0.00,,,0.67,VWS V14.01,2013-04-11 22:02:00,
2013-04-11 18:05:00,37.3,37.3,29.70,ESE,104,17.2,18.2,100,0.00,,,0.67,VWS V14.01,2013-04-11 22:05:00,
2013-04-11 18:08:00,37.5,37.5,29.71,East,81,13.5,18.2,100,0.00,,,0.67,VWS V14.01,2013-04-11 22:08:00,
2013-04-11 18:11:00,37.0,37.0,29.71,East,82,20.3,20.3,100,0.00,,,0.67,VWS V14.01,2013-04-11 22:11:00,
2013-04-11 18:12:00,37.2,37.2,29.71,ENE,65,13.5,20.3,100,0.00,,,0.67,VWS V14.01,2013-04-11 22:12:00,
2013-04-11 18:14:00,37.2,37.3,29.71,East,92,14.6,20.3,100,0.00,,,0.67,VWS V14.01,2013-04-11 22:14:00,
2013-04-11 18:17:00,37.4,37.4,29.71,ESE,103,17.2,20.3,100,0.00,,,0.67,VWS V14.01,2013-04-11 22:17:00,
2013-04-11 18:19:00,37.4,37.4,29.70,East,92,11.2,20.3,100,0.00,,,0.67,VWS V14.01,2013-04-11 22:19:00,
2013-04-11 18:22:00,37.7,37.7,29.71,East,89,10.0,20.3,100,0.00,,,0.67,VWS V14.01,2013-04-11 22:22:00,
2013-04-11 18:23:00,37.4,37.4,29.71,East,81,13.5,20.3,100,0.00,,,0.67,VWS V14.01,2013-04-11 22:23:00,
2013-04-11 18:24:00,37.5,37.5,29.71,East,94,21.8,21.8,100,0.00,,,0.67,VWS V14.01,2013-04-11 22:24:00,
2013-04-11 18:25:00,37.4,37.4,29.70,East,95,14.3,21.8,100,0.00,,,0.67,VWS V14.01,2013-04-11 22:25:00,
2013-04-11 18:28:00,37.3,37.3,29.70,East,91,19.3,21.8,100,0.00,,,0.67,VWS V14.01,2013-04-11 22:28:00,
2013-04-11 18:29:00,37.5,37.5,29.70,ENE,66,15.0,21.8,100,0.00,,,0.67,VWS V14.01,2013-04-11 22:29:00,
2013-04-11 18:30:00,37.5,37.5,29.74,East,93,12.8,21.8,100,0.00,,,0.67,VWS V14.01,2013-04-11 22:30:00,
2013-04-11 18:33:00,37.4,37.4,29.70,East,85,16.0,21.8,100,0.00,,,0.67,VWS V14.01,2013-04-11 22:33:00,
2013-04-11 18:35:00,37.3,37.3,29.70,East,96,15.2,21.8,100,0.00,,,0.67,VWS V14.01,2013-04-11 22:35:00,
2013-04-11 18:38:00,37.5,37.5,29.71,East,101,15.5,21.8,100,0.00,,,0.67,VWS V14.01,2013-04-11 22:38:00,
2013-04-11 18:39:00,37.3,37.3,29.70,ENE,74,20.6,21.8,100,0.00,,,0.67,VWS V14.01,2013-04-11 22:39:00,
2013-04-11 18:40:00,37.3,37.3,29.70,East,86,17.7,21.8,100,0.00,,,0.67,VWS V14.01,2013-04-11 22:40:00,
2013-04-11 18:42:00,37.4,37.4,29.70,East,79,20.3,21.8,100,0.00,,,0.67,VWS V14.01,2013-04-11 22:42:00,
2013-04-11 18:44:00,37.5,37.5,29.70,ENE,69,15.7,21.8,100,0.00,,,0.67,VWS V14.01,2013-04-11 22:44:00,
2013-04-11 18:45:00,37.5,37.5,29.70,East,90,13.1,21.8,100,0.00,,,0.67,VWS V14.01,2013-04-11 22:45:00,
2013-04-11 18:47:00,37.4,37.4,29.70,East,87,18.2,21.8,100,0.00,,,0.67,VWS V14.01,2013-04-11 22:47:00,
2013-04-11 18:50:00,37.5,37.5,29.69,East,88,14.3,21.8,100,0.00,,,0.67,VWS V14.01,2013-04-11 22:50:00,
2013-04-11 18:53:00,37.3,37.3,29.69,East,83,15.0,21.8,100,0.00,,,0.67,VWS V14.01,2013-04-11 22:53:00,
2013-04-11 18:56:00,37.3,37.3,29.69,ENE,66,13.8,21.8,100,0.00,,,0.67,VWS V14.01,2013-04-11 22:56:00,
2013-04-11 18:58:00,37.3,37.3,29.69,ENE,75,18.1,21.8,100,0.00,,,0.67,VWS V14.01,2013-04-11 22:58:00,
2013-04-11 19:00:00,37.2,37.2,29.68,East,89,14.3,21.8,100,0.00,,,0.67,VWS V14.01,2013-04-11 23:00:00,
2013-04-11 19:01:00,37.5,37.5,29.68,ENE,70,12.8,21.8,100,0.00,,,0.67,VWS V14.01,2013-04-11 23:01:00,
2013-04-11 19:04:00,37.3,37.3,29.69,ENE,63,17.2,17.2,100,0.00,,,0.67,VWS V14.01,2013-04-11 23:04:00,
2013-04-11 19:05:00,37.3,37.3,29.69,East,86,15.3,17.2,100,0.00,,,0.67,VWS V14.01,2013-04-11 23:05:00,
2013-04-11 19:06:00,37.3,37.3,29.69,ENE,63,13.1,17.2,100,0.00,,,0.67,VWS V14.01,2013-04-11 23:06:00,
2013-04-11 19:07:00,37.4,37.4,29.68,East,100,9.7,17.2,100,0.00,,,0.67,VWS V14.01,2013-04-11 23:07:00,
2013-04-11 19:10:00,37.5,37.5,29.68,East,99,8.7,17.2,100,0.00,,,0.67,VWS V14.01,2013-04-11 23:10:00,
2013-04-11 19:11:00,37.3,37.3,29.68,East,82,12.6,17.2,100,0.00,,,0.67,VWS V14.01,2013-04-11 23:11:00,
2013-04-11 19:13:00,37.1,37.2,29.67,East,81,15.3,17.2,100,0.00,,,0.67,VWS V14.01,2013-04-11 23:13:00,
2013-04-11 19:17:00,37.1,37.1,29.68,ESE,104,16.4,17.2,100,0.00,,,0.67,VWS V14.01,2013-04-11 23:17:00,
2013-04-11 19:19:00,37.3,37.3,29.69,East,87,14.3,17.2,100,0.00,,,0.67,VWS V14.01,2013-04-11 23:19:00,
2013-04-11 19:21:00,37.3,37.3,29.67,ESE,104,9.0,20.5,100,0.00,,,0.67,VWS V14.01,2013-04-11 23:21:00,
2013-04-11 19:22:00,37.2,37.2,29.67,ESE,119,14.0,20.5,100,0.00,,,0.67,VWS V14.01,2013-04-11 23:22:00,
2013-04-11 19:23:00,37.2,37.2,29.67,ESE,119,14.0,20.5,100,0.00,,,0.67,VWS V14.01,2013-04-11 23:23:00,
2013-04-11 19:25:00,37.2,37.2,29.68,ENE,70,16.9,20.5,100,0.00,,,0.67,VWS V14.01,2013-04-11 23:25:00,
2013-04-11 19:26:00,37.3,37.3,29.67,East,80,15.5,20.5,100,0.00,,,0.67,VWS V14.01,2013-04-11 23:26:00,
2013-04-11 19:29:00,37.3,37.3,29.67,East,82,16.5,20.5,100,0.00,,,0.67,VWS V14.01,2013-04-11 23:29:00,
2013-04-11 19:30:00,37.3,37.3,29.67,East,85,21.3,21.3,100,0.00,,,0.67,VWS V14.01,2013-04-11 23:30:00,
2013-04-11 19:32:00,37.3,37.3,29.67,ENE,67,20.8,21.3,100,0.00,,,0.67,VWS V14.01,2013-04-11 23:32:00,
2013-04-11 19:35:00,37.3,37.3,29.67,East,98,12.9,21.3,100,0.00,,,0.67,VWS V14.01,2013-04-11 23:35:00,
2013-04-11 19:36:00,37.3,37.3,29.68,ESE,102,14.0,21.3,100,0.00,,,0.67,VWS V14.01,2013-04-11 23:36:00,
2013-04-11 19:37:00,37.4,37.4,29.67,ENE,73,13.6,21.3,100,0.00,,,0.67,VWS V14.01,2013-04-11 23:37:00,
2013-04-11 19:39:00,37.5,37.5,29.67,East,89,11.7,21.3,100,0.00,,,0.67,VWS V14.01,2013-04-11 23:39:00,
2013-04-11 19:40:00,37.2,37.2,29.67,East,84,21.2,21.3,100,0.00,,,0.67,VWS V14.01,2013-04-11 23:40:00,
2013-04-11 19:43:00,37.3,37.3,29.67,East,79,15.8,21.3,100,0.00,,,0.67,VWS V14.01,2013-04-11 23:43:00,
2013-04-11 19:44:00,37.2,37.2,29.67,East,90,16.2,21.3,100,0.00,,,0.67,VWS V14.01,2013-04-11 23:44:00,
2013-04-11 19:45:00,37.3,37.3,29.72,East,79,16.2,21.3,100,0.00,,,0.67,VWS V14.01,2013-04-11 23:45:00,
2013-04-11 19:46:00,37.3,37.3,29.67,East,83,12.6,21.3,100,0.00,,,0.67,VWS V14.01,2013-04-11 23:46:00,
2013-04-11 19:48:00,37.3,37.3,29.68,East,89,10.5,21.3,100,0.00,,,0.67,VWS V14.01,2013-04-11 23:48:00,
2013-04-11 19:50:00,37.2,37.3,29.67,ENE,68,13.8,21.3,100,0.00,,,0.67,VWS V14.01,2013-04-11 23:50:00,
2013-04-11 19:52:00,37.3,37.3,29.67,ENE,78,16.9,21.3,100,0.00,,,0.67,VWS V14.01,2013-04-11 23:52:00,
2013-04-11 19:53:00,37.2,37.2,29.66,East,91,16.9,21.3,100,0.00,,,0.00,VWS V14.01,2013-04-11 23:53:00,
2013-04-11 19:55:00,37.2,37.2,29.67,East,94,16.0,21.3,100,0.00,,,0.67,VWS V14.01,2013-04-11 23:55:00,
2013-04-11 19:57:00,37.2,37.2,29.67,East,82,12.9,21.3,100,0.00,,,0.67,VWS V14.01,2013-04-11 23:57:00,
2013-04-11 19:59:00,37.2,37.2,29.67,East,82,12.9,21.3,100,0.00,,,0.67,VWS V14.01,2013-04-11 23:59:00,
2013-04-11 20:00:00,37.4,37.4,29.67,East,80,8.8,21.3,100,0.00,,,0.67,VWS V14.01,2013-04-12 00:00:00,
2013-04-11 20:02:00,37.4,37.4,29.67,ESE,109,8.7,8.8,100,0.00,,,0.67,VWS V14.01,2013-04-12 00:02:00,
2013-04-11 20:04:00,37.3,37.3,29.67,ENE,78,12.6,12.6,100,0.00,,,0.67,VWS V14.01,2013-04-12 00:04:00,
2013-04-11 20:07:00,37.3,37.3,29.67,East,82,13.1,14.0,100,0.00,,,0.67,VWS V14.01,2013-04-12 00:07:00,
2013-04-11 20:08:00,37.4,37.4,29.67,East,86,9.2,11.9,100,0.00,,,0.67,VWS V14.01,2013-04-12 00:08:00,
2013-04-11 20:09:00,37.4,37.4,29.66,ESE,102,9.0,11.9,100,0.00,,,0.67,VWS V14.01,2013-04-12 00:09:00,
2013-04-11 20:13:00,37.2,37.2,29.67,East,84,14.8,14.8,100,0.00,,,0.67,VWS V14.01,2013-04-12 00:13:00,
2013-04-11 20:14:00,37.3,37.3,29.67,East,92,11.7,14.8,100,0.00,,,0.67,VWS V14.01,2013-04-12 00:14:00,
2013-04-11 20:17:00,37.5,37.5,29.67,ESE,105,8.1,14.5,100,0.00,,,0.67,VWS V14.01,2013-04-12 00:17:00,
2013-04-11 20:18:00,37.4,37.4,29.67,ENE,69,14.5,14.5,100,0.00,,,0.67,VWS V14.01,2013-04-12 00:18:00,
2013-04-11 20:19:00,37.4,37.4,29.67,ESE,108,18.9,18.9,100,0.04,,,0.71,VWS V14.01,2013-04-12 00:19:00,
2013-04-11 20:20:00,37.3,37.3,29.67,East,95,17.2,18.9,100,0.04,,,0.71,VWS V14.01,2013-04-12 00:20:00,
2013-04-11 20:22:00,37.5,37.5,29.67,East,88,11.6,12.9,100,0.04,,,0.71,VWS V14.01,2013-04-12 00:22:00,
2013-04-11 20:23:00,37.3,37.3,29.67,ENE,73,11.9,11.9,100,0.04,,,0.71,VWS V14.01,2013-04-12 00:23:00,
2013-04-11 20:24:00,37.4,37.4,29.66,East,97,13.3,14.8,100,0.04,,,0.71,VWS V14.01,2013-04-12 00:24:00,
2013-04-11 20:26:00,37.2,37.2,29.66,East,85,17.4,20.0,100,0.04,,,0.71,VWS V14.01,2013-04-12 00:26:00,
2013-04-11 20:27:00,37.2,37.2,29.66,East,90,18.1,18.1,100,0.04,,,0.71,VWS V14.01,2013-04-12 00:27:00,
2013-04-11 20:28:00,37.2,37.2,29.67,East,95,17.4,18.1,100,0.04,,,0.71,VWS V14.01,2013-04-12 00:28:00,
2013-04-11 20:30:00,37.4,37.4,29.66,East,86,11.6,13.1,100,0.04,,,0.71,VWS V14.01,2013-04-12 00:30:00,
2013-04-11 20:31:00,37.2,37.2,29.67,East,84,18.1,18.1,100,0.04,,,0.71,VWS V14.01,2013-04-12 00:31:00,
2013-04-11 20:33:00,37.3,37.3,29.66,East,85,17.0,17.0,100,0.04,,,0.71,VWS V14.01,2013-04-12 00:33:00,
2013-04-11 20:35:00,37.3,37.3,29.66,East,84,14.0,14.1,100,0.04,,,0.71,VWS V14.01,2013-04-12 00:35:00,
2013-04-11 20:36:00,37.3,37.3,29.67,East,87,15.2,15.2,100,0.04,,,0.71,VWS V14.01,2013-04-12 00:36:00,
2013-04-11 20:38:00,37.4,37.4,29.66,ENE,73,14.1,17.7,100,0.04,,,0.71,VWS V14.01,2013-04-12 00:38:00,
2013-04-11 20:42:00,37.3,37.3,29.66,ESE,114,11.9,11.9,100,0.04,,,0.71,VWS V14.01,2013-04-12 00:42:00,
2013-04-11 20:43:00,37.3,37.3,29.66,ENE,78,15.7,15.7,100,0.04,,,0.71,VWS V14.01,2013-04-12 00:43:00,
2013-04-11 20:44:00,37.3,37.3,29.66,East,81,15.5,15.7,100,0.04,,,0.71,VWS V14.01,2013-04-12 00:44:00,
2013-04-11 20:47:00,37.4,37.4,29.66,East,83,15.8,15.8,100,0.04,,,0.71,VWS V14.01,2013-04-12 00:47:00,
2013-04-11 20:48:00,37.3,37.3,29.66,East,95,15.3,15.8,100,0.04,,,0.71,VWS V14.01,2013-04-12 00:48:00,
2013-04-11 20:50:00,37.4,37.4,29.66,East,97,12.6,12.9,100,0.04,,,0.71,VWS V14.01,2013-04-12 00:50:00,
2013-04-11 20:52:00,37.4,37.4,29.66,East,79,10.2,16.5,100,0.04,,,0.71,VWS V14.01,2013-04-12 00:52:00,
2013-04-11 20:54:00,37.4,37.4,29.66,East,98,15.7,16.0,100,0.04,,,0.71,VWS V14.01,2013-04-12 00:54:00,
2013-04-11 20:55:00,37.4,37.4,29.66,East,87,10.7,10.7,100,0.04,,,0.71,VWS V14.01,2013-04-12 00:55:00,
2013-04-11 20:57:00,37.3,37.3,29.66,East,96,15.2,15.2,100,0.04,,,0.71,VWS V14.01,2013-04-12 00:57:00,
2013-04-11 20:58:00,37.4,37.4,29.65,East,91,10.9,13.1,100,0.04,,,0.71,VWS V14.01,2013-04-12 00:58:00,
2013-04-11 20:59:00,37.3,37.3,29.67,ENE,78,8.1,12.6,100,0.00,,,0.67,VWS V14.01,2013-04-12 00:59:00,
2013-04-11 21:00:00,37.4,37.4,29.65,East,89,13.1,13.1,100,0.04,,,0.71,VWS V14.01,2013-04-12 01:00:00,
2013-04-11 21:02:00,37.3,37.3,29.65,East,92,13.8,13.8,100,0.04,,,0.71,VWS V14.01,2013-04-12 01:02:00,
2013-04-11 21:03:00,37.3,37.3,29.66,East,90,9.9,9.9,100,0.00,,,0.67,VWS V14.01,2013-04-12 01:03:00,
2013-04-11 21:04:00,37.4,37.4,29.65,East,92,13.1,16.7,100,0.04,,,0.71,VWS V14.01,2013-04-12 01:04:00,
2013-04-11 21:05:00,37.3,37.3,29.65,East,97,18.6,18.8,100,0.04,,,0.71,VWS V14.01,2013-04-12 01:05:00,
2013-04-11 21:06:00,37.3,37.3,29.67,East,82,13.1,14.0,100,0.00,,,0.67,VWS V14.01,2013-04-12 01:06:00,
2013-04-11 21:07:00,37.3,37.3,29.65,ESE,111,18.9,18.9,100,0.04,,,0.71,VWS V14.01,2013-04-12 01:07:00,
2013-04-11 21:08:00,37.3,37.3,29.65,East,85,18.8,18.9,100,0.04,,,0.71,VWS V14.01,2013-04-12 01:08:00,
2013-04-11 21:09:00,37.3,37.3,29.65,East,91,15.8,18.8,100,0.04,,,0.71,VWS V14.01,2013-04-12 01:09:00,
2013-04-11 21:10:00,37.2,36.7,29.67,NE,37,15.3,15.3,98,0.00,,,0.67,VWS V14.01,2013-04-12 01:10:00,
2013-04-11 21:11:00,37.2,37.2,29.67,East,88,15.2,15.3,100,0.00,,,0.67,VWS V14.01,2013-04-12 01:11:00,
2013-04-11 21:12:00,37.5,37.5,29.68,East,85,16.5,21.7,100,0.08,,,0.75,VWS V14.01,2013-04-12 01:12:00,
2013-04-11 21:13:00,37.2,37.2,29.67,East,84,12.8,13.4,100,0.00,,,0.67,VWS V14.01,2013-04-12 01:13:00,
2013-04-11 21:14:00,37.4,37.4,29.64,East,97,17.2,20.1,100,0.08,,,0.75,VWS V14.01,2013-04-12 01:14:00,
2013-04-11 21:15:00,37.4,37.4,29.65,ESE,107,16.2,19.4,100,0.08,,,0.75,VWS V14.01,2013-04-12 01:15:00,
2013-04-11 21:16:00,37.4,37.4,29.67,East,98,10.5,13.1,100,0.00,,,0.67,VWS V14.01,2013-04-12 01:16:00,
2013-04-11 21:17:00,37.3,37.3,29.64,East,97,23.6,23.6,100,0.08,,,0.75,VWS V14.01,2013-04-12 01:17:00,
2013-04-11 21:18:00,37.4,37.4,29.67,ENE,69,14.5,14.5,100,0.00,,,0.67,VWS V14.01,2013-04-12 01:18:00,
2013-04-11 21:19:00,37.4,37.4,29.64,ENE,75,16.0,17.2,100,0.08,,,0.75,VWS V14.01,2013-04-12 01:19:00,
2013-04-11 21:20:00,37.3,37.3,29.67,East,95,17.2,18.9,100,0.04,,,0.71,VWS V14.01,2013-04-12 01:20:00,
2013-04-11 21:21:00,37.3,37.3,29.67,ENE,66,12.8,17.2,100,0.04,,,0.71,VWS V14.01,2013-04-12 01:21:00,
2013-04-11 21:22:00,37.4,37.4,29.64,ESE,112,14.0,17.2,100,0.04,,,0.75,VWS V14.01,2013-04-12 01:22:00,
2013-04-11 21:23:00,37.3,37.3,29.64,ENE,73,10.7,18.6,100,0.04,,,0.75,VWS V14.01,2013-04-12 01:23:00,
2013-04-11 21:24:00,37.3,37.3,29.67,East,87,14.8,14.8,100,0.04,,,0.71,VWS V14.01,2013-04-12 01:24:00,
2013-04-11 21:25:00,37.4,37.4,29.64,ENE,76,11.7,13.8,100,0.04,,,0.75,VWS V14.01,2013-04-12 01:25:00,
2013-04-11 21:26:00,37.2,37.2,29.66,East,85,17.4,20.0,100,0.04,,,0.71,VWS V14.01,2013-04-12 01:26:00,
2013-04-11 21:27:00,37.4,37.4,29.67,East,87,15.8,17.4,100,0.04,,,0.71,VWS V14.01,2013-04-12 01:27:00,
2013-04-11 21:28:00,37.3,37.3,29.64,ENE,67,14.5,19.8,100,0.04,,,0.75,VWS V14.01,2013-04-12 01:28:00,
2013-04-11 21:29:00,37.2,37.2,29.66,ESE,108,17.2,17.4,100,0.04,,,0.71,VWS V14.01,2013-04-12 01:29:00,
2013-04-11 21:30:00,37.4,37.4,29.64,ENE,67,9.2,10.2,100,0.04,,,0.75,VWS V14.01,2013-04-12 01:30:00,
2013-04-11 21:31:00,37.3,37.3,29.67,East,87,12.3,13.1,100,0.04,,,0.71,VWS V14.01,2013-04-12 01:31:00,
2013-04-11 21:32:00,37.4,37.4,29.65,ENE,77,8.5,11.6,100,0.04,,,0.75,VWS V14.01,2013-04-12 01:32:00,
2013-04-11 21:33:00,37.4,37.4,29.64,East,86,11.9,11.9,100,0.04,,,0.75,VWS V14.01,2013-04-12 01:33:00,
2013-04-11 21:34:00,37.4,37.4,29.65,NE,55,12.6,12.8,100,0.04,,,0.75,VWS V14.01,2013-04-12 01:34:00,
2013-04-11 21:35:00,37.3,37.3,29.67,East,84,14.0,14.1,100,0.04,,,0.71,VWS V14.01,2013-04-12 01:35:00,
2013-04-11 21:36:00,37.3,37.3,29.67,East,87,15.2,15.2,100,0.04,,,0.71,VWS V14.01,2013-04-12 01:36:00,
2013-04-11 21:37:00,37.5,37.5,29.65,NE,53,7.6,9.3,100,0.04,,,0.75,VWS V14.01,2013-04-12 01:37:00,
2013-04-11 21:38:00,37.4,37.4,29.65,NE,56,11.4,11.4,100,0.04,,,0.75,VWS V14.01,2013-04-12 01:38:00,
2013-04-11 21:39:00,37.3,37.3,29.66,East,79,13.6,15.8,100,0.04,,,0.71,VWS V14.01,2013-04-12 01:39:00,
2013-04-11 21:40:00,37.4,37.4,29.65,ENE,70,14.3,14.3,100,0.04,,,0.75,VWS V14.01,2013-04-12 01:40:00,
2013-04-11 21:41:00,37.2,37.2,29.66,East,83,10.9,12.6,100,0.04,,,0.71,VWS V14.01,2013-04-12 01:41:00,
2013-04-11 21:42:00,37.2,37.2,29.66,East,98,14.6,14.6,100,0.04,,,0.71,VWS V14.01,2013-04-12 01:42:00,
2013-04-11 21:43:00,37.3,37.3,29.66,ENE,78,15.7,15.7,100,0.04,,,0.71,VWS V14.01,2013-04-12 01:43:00,
2013-04-11 21:44:00,37.4,37.4,29.64,East,82,12.1,16.7,100,0.04,,,0.75,VWS V14.01,2013-04-12 01:44:00,
2013-04-11 21:45:00,37.3,37.3,29.65,East,79,14.8,14.8,100,0.04,,,0.75,VWS V14.01,2013-04-12 01:45:00,
2013-04-11 21:46:00,37.4,37.4,29.64,East,99,8.5,13.1,100,0.04,,,0.75,VWS V14.01,2013-04-12 01:46:00,
2013-04-11 21:47:00,37.4,37.4,29.66,East,83,15.8,15.8,100,0.04,,,0.71,VWS V14.01,2013-04-12 01:47:00,
2013-04-11 21:48:00,37.3,37.3,29.66,East,95,15.3,15.8,100,0.04,,,0.71,VWS V14.01,2013-04-12 01:48:00,
2013-04-11 21:49:00,37.4,37.4,29.64,ESE,103,15.0,15.7,100,0.04,,,0.75,VWS V14.01,2013-04-12 01:49:00,
2013-04-11 21:50:00,37.5,37.5,29.64,ENE,76,11.4,15.7,100,0.04,,,0.75,VWS V14.01,2013-04-12 01:50:00,
2013-04-11 21:51:00,37.2,37.3,29.66,East,87,16.5,16.5,100,0.04,,,0.71,VWS V14.01,2013-04-12 01:51:00,
2013-04-11 21:52:00,37.4,37.4,29.66,East,79,10.2,16.5,100,0.04,,,0.71,VWS V14.01,2013-04-12 01:52:00,
2013-04-11 21:53:00,37.4,37.4,29.65,East,84,13.3,13.3,100,0.04,,,0.75,VWS V14.01,2013-04-12 01:53:00,
2013-04-11 21:54:00,37.4,37.4,29.65,East,84,13.3,13.3,100,0.04,,,0.75,VWS V14.01,2013-04-12 01:54:00,
2013-04-11 21:55:00,37.5,37.5,29.65,East,90,10.0,12.1,100,0.04,,,0.75,VWS V14.01,2013-04-12 01:55:00,
2013-04-11 21:56:00,37.4,37.4,29.66,East,89,12.3,12.4,100,0.04,,,0.71,VWS V14.01,2013-04-12 01:56:00,
2013-04-11 21:57:00,37.3,37.3,29.66,East,96,15.2,15.2,100,0.04,,,0.71,VWS V14.01,2013-04-12 01:57:00,
2013-04-11 21:58:00,37.4,37.4,29.65,East,82,13.1,15.2,100,0.04,,,0.71,VWS V14.01,2013-04-12 01:58:00,
2013-04-11 21:59:00,37.4,37.4,29.65,East,81,10.2,13.1,100,0.04,,,0.71,VWS V14.01,2013-04-12 01:59:00,
2013-04-11 22:00:00,37.6,37.6,29.65,East,89,9.5,9.5,100,0.04,,,0.75,VWS V14.01,2013-04-12 02:00:00,
2013-04-11 22:01:00,37.5,37.5,29.66,East,79,12.3,14.1,100,0.04,,,0.71,VWS V14.01,2013-04-12 02:01:00,
2013-04-11 22:02:00,37.5,37.5,29.65,East,101,12.8,14.0,100,0.04,,,0.75,VWS V14.01,2013-04-12 02:02:00,
2013-04-11 22:03:00,37.3,37.3,29.65,East,87,16.7,16.7,100,0.04,,,0.71,VWS V14.01,2013-04-12 02:03:00,
2013-04-11 22:04:00,37.5,37.5,29.65,East,82,8.8,14.0,100,0.04,,,0.75,VWS V14.01,2013-04-12 02:04:00,
2013-04-11 22:05:00,37.6,37.6,29.65,ENE,74,11.4,16.2,100,0.04,,,0.75,VWS V14.01,2013-04-12 02:05:00,
2013-04-11 22:06:00,37.4,37.4,29.65,East,85,15.5,18.6,100,0.04,,,0.71,VWS V14.01,2013-04-12 02:06:00,
2013-04-11 22:07:00,38.0,38.0,29.65,East,94,10.2,16.2,100,0.04,,,0.75,VWS V14.01,2013-04-12 02:07:00,
2013-04-11 22:08:00,37.3,37.3,29.65,East,85,18.8,18.9,100,0.04,,,0.71,VWS V14.01,2013-04-12 02:08:00,
2013-04-11 22:09:00,37.5,37.5,29.65,East,87,12.1,18.8,100,0.04,,,0.71,VWS V14.01,2013-04-12 02:09:00,
2013-04-11 22:10:00,37.5,37.5,29.65,East,79,12.1,12.1,100,0.04,,,0.71,VWS V14.01,2013-04-12 02:10:00,
2013-04-11 22:11:00,38.0,38.0,29.65,East,82,9.5,16.2,100,0.04,,,0.75,VWS V14.01,2013-04-12 02:11:00,
2013-04-11 22:12:00,37.4,37.4,29.66,East,79,13.8,21.7,100,0.08,,,0.75,VWS V14.01,2013-04-12 02:12:00,
2013-04-11 22:13:00,38.0,38.0,29.65,East,81,9.9,16.2,100,0.04,,,0.75,VWS V14.01,2013-04-12 02:13:00,
2013-04-11 22:14:00,38.0,38.0,29.65,East,89,8.3,16.2,100,0.04,,,0.75,VWS V14.01,2013-04-12 02:14:00,
2013-04-11 22:15:00,37.4,37.4,29.65,ESE,107,16.2,19.4,100,0.08,,,0.75,VWS V14.01,2013-04-12 02:15:00,
2013-04-11 22:16:00,37.4,37.4,29.64,ENE,65,22.2,22.2,100,0.08,,,0.75,VWS V14.01,2013-04-12 02:16:00,
2013-04-11 22:17:00,38.0,38.0,29.64,ESE,102,10.5,17.7,100,0.04,,,0.75,VWS V14.01,2013-04-12 02:17:00,
2013-04-11 22:18:00,38.0,38.0,29.64,East,90,14.3,17.7,100,0.04,,,0.75,VWS V14.01,2013-04-12 02:18:00,
2013-04-11 22:19:00,37.8,37.8,29.65,ENE,78,16.0,17.7,100,0.04,,,0.75,VWS V14.01,2013-04-12 02:19:00,
2013-04-11 22:20:00,37.4,37.4,29.64,East,98,16.4,16.4,100,0.04,,,0.75,VWS V14.01,2013-04-12 02:20:00,
2013-04-11 22:21:00,37.3,37.3,29.64,East,92,17.2,17.2,100,0.04,,,0.75,VWS V14.01,2013-04-12 02:21:00,
2013-04-11 22:22:00,37.3,37.3,29.64,East,79,18.6,18.6,100,0.04,,,0.75,VWS V14.01,2013-04-12 02:22:00,
2013-04-11 22:23:00,37.4,37.4,29.64,East,96,12.6,17.7,100,0.08,,,0.79,VWS V14.01,2013-04-12 02:23:00,
2013-04-11 22:24:00,37.5,37.5,29.64,East,97,10.5,17.7,100,0.08,,,0.79,VWS V14.01,2013-04-12 02:24:00,
2013-04-11 22:25:00,37.4,37.4,29.64,East,92,16.9,17.7,100,0.08,,,0.79,VWS V14.01,2013-04-12 02:25:00,
2013-04-11 22:26:00,37.3,37.3,29.64,East,95,21.5,21.5,100,0.04,,,0.75,VWS V14.01,2013-04-12 02:26:00,
2013-04-11 22:27:00,37.3,37.3,29.64,East,90,19.8,21.5,100,0.04,,,0.75,VWS V14.01,2013-04-12 02:27:00,
2013-04-11 22:28:00,37.5,37.5,29.64,East,96,15.8,17.7,100,0.08,,,0.79,VWS V14.01,2013-04-12 02:28:00,
2013-04-11 22:29:00,37.3,37.3,29.64,NE,49,9.3,14.6,100,0.04,,,0.75,VWS V14.01,2013-04-12 02:29:00,
2013-04-11 22:30:00,37.6,37.6,29.64,ENE,77,13.6,17.7,100,0.08,,,0.79,VWS V14.01,2013-04-12 02:30:00,
2013-04-11 22:31:00,37.6,37.6,29.64,ESE,110,10.9,17.7,100,0.08,,,0.79,VWS V14.01,2013-04-12 02:31:00,
2013-04-11 22:32:00,37.5,37.5,29.64,East,92,10.5,17.7,100,0.08,,,0.79,VWS V14.01,2013-04-12 02:32:00,
2013-04-11 22:33:00,37.5,37.5,29.64,ENE,78,12.8,12.8,100,0.04,,,0.75,VWS V14.01,2013-04-12 02:33:00,
2013-04-11 22:34:00,37.4,37.4,29.65,NE,55,12.6,12.8,100,0.04,,,0.75,VWS V14.01,2013-04-12 02:34:00,
2013-04-11 22:35:00,37.4,37.4,29.64,East,90,16.2,17.7,100,0.08,,,0.79,VWS V14.01,2013-04-12 02:35:00,
2013-04-11 22:36:00,37.4,37.4,29.65,East,81,8.3,8.3,100,0.04,,,0.75,VWS V14.01,2013-04-12 02:36:00,
2013-04-11 22:37:00,37.5,37.5,29.64,East,91,14.8,17.7,100,0.08,,,0.79,VWS V14.01,2013-04-12 02:37:00,
2013-04-11 22:38:00,37.5,37.5,29.64,East,95,14.1,17.7,100,0.08,,,0.79,VWS V14.01,2013-04-12 02:38:00,
2013-04-11 22:39:00,37.5,37.5,29.64,East,83,12.6,17.7,100,0.08,,,0.79,VWS V14.01,2013-04-12 02:39:00,
2013-04-11 22:40:00,37.3,37.3,29.65,ENE,70,14.8,14.8,100,0.04,,,0.75,VWS V14.01,2013-04-12 02:40:00,
2013-04-11 22:41:00,37.4,37.4,29.65,ENE,68,13.3,14.8,100,0.04,,,0.75,VWS V14.01,2013-04-12 02:41:00,
2013-04-11 22:42:00,37.5,37.5,29.65,East,96,12.8,17.7,100,0.08,,,0.79,VWS V14.01,2013-04-12 02:42:00,
2013-04-11 22:43:00,37.5,37.5,29.65,East,85,10.2,17.7,100,0.08,,,0.79,VWS V14.01,2013-04-12 02:43:00,
2013-04-11 22:44:00,37.5,37.5,29.65,East,87,10.7,17.7,100,0.08,,,0.79,VWS V14.01,2013-04-12 02:44:00,
2013-04-11 22:45:00,37.5,37.5,29.64,East,97,10.9,14.8,100,0.04,,,0.75,VWS V14.01,2013-04-12 02:45:00,
2013-04-11 22:46:00,37.4,37.4,29.65,East,99,8.5,13.1,100,0.04,,,0.75,VWS V14.01,2013-04-12 02:46:00,
2013-04-11 22:47:00,37.4,37.4,29.64,East,79,10.9,10.9,100,0.04,,,0.75,VWS V14.01,2013-04-12 02:47:00,
2013-04-11 22:48:00,37.5,37.5,29.64,ENE,73,12.9,12.9,100,0.04,,,0.75,VWS V14.01,2013-04-12 02:48:00,
2013-04-11 22:49:00,37.7,37.7,29.65,East,101,10.0,17.7,100,0.08,,,0.79,VWS V14.01,2013-04-12 02:49:00,
2013-04-11 22:50:00,37.6,37.6,29.65,ENE,64,7.3,17.7,100,0.08,,,0.79,VWS V14.01,2013-04-12 02:50:00,
2013-04-11 22:51:00,37.6,37.6,29.65,East,86,8.1,17.7,100,0.08,,,0.79,VWS V14.01,2013-04-12 02:51:00,
2013-04-11 22:52:00,37.4,37.4,29.65,East,92,11.2,11.2,100,0.04,,,0.75,VWS V14.01,2013-04-12 02:52:00,
2013-04-11 22:53:00,37.4,37.4,29.65,East,84,13.3,13.3,100,0.04,,,0.75,VWS V14.01,2013-04-12 02:53:00,
2013-04-11 22:54:00,37.4,37.4,29.65,East,99,12.1,13.3,100,0.04,,,0.75,VWS V14.01,2013-04-12 02:54:00,
2013-04-11 22:55:00,37.6,37.6,29.67,East,100,9.3,17.7,100,0.08,,,0.79,VWS V14.01,2013-04-12 02:55:00,
2013-04-11 22:56:00,37.6,37.6,29.65,East,86,13.1,17.7,100,0.08,,,0.79,VWS V14.01,2013-04-12 02:56:00,
2013-04-11 22:57:00,37.6,37.6,29.64,East,92,12.6,17.7,100,0.08,,,0.79,VWS V14.01,2013-04-12 02:57:00,
2013-04-11 22:58:00,37.5,37.5,29.63,East,87,12.3,17.7,100,0.08,,,0.79,VWS V14.01,2013-04-12 02:58:00,
2013-04-11 22:59:00,37.5,37.5,29.65,East,87,8.1,10.9,100,0.04,,,0.75,VWS V14.01,2013-04-12 02:59:00,
2013-04-11 23:00:00,37.6,37.6,29.64,East,86,10.0,10.0,100,0.04,,,0.00,VWS V14.01,2013-04-12 03:00:00,
2013-04-11 23:01:00,37.7,37.7,29.63,ENE,72,9.9,14.5,100,0.04,,,0.00,VWS V14.01,2013-04-12 03:01:00,
2013-04-11 23:03:00,37.6,37.6,29.63,NE,53,14.0,17.2,100,0.00,,,0.00,VWS V14.01,2013-04-12 03:03:00,
2013-04-11 23:07:00,37.6,37.6,29.63,ENE,71,12.3,13.3,100,0.00,,,0.00,VWS V14.01,2013-04-12 03:07:00,
2013-04-11 23:08:00,37.6,37.6,29.63,East,88,14.5,14.5,100,0.00,,,0.00,VWS V14.01,2013-04-12 03:08:00,
2013-04-11 23:09:00,37.6,37.6,29.63,East,87,8.8,9.0,100,0.00,,,0.00,VWS V14.01,2013-04-12 03:09:00,
2013-04-11 23:12:00,37.5,37.5,29.66,East,82,13.5,14.6,100,0.04,,,0.04,VWS V14.01,2013-04-12 03:12:00,
2013-04-11 23:13:00,37.6,37.6,29.64,ENE,76,10.2,13.5,100,0.04,,,0.04,VWS V14.01,2013-04-12 03:13:00,
2013-04-11 23:14:00,37.6,37.6,29.64,ENE,76,10.2,13.5,100,0.04,,,0.04,VWS V14.01,2013-04-12 03:14:00,
2013-04-11 23:19:00,37.6,37.6,29.63,ESE,107,11.4,17.2,100,0.04,,,0.04,VWS V14.01,2013-04-12 03:19:00,
2013-04-11 23:21:00,37.5,37.5,29.64,East,79,13.6,13.6,100,0.04,,,0.04,VWS V14.01,2013-04-12 03:21:00,
2013-04-11 23:22:00,37.6,37.6,29.64,East,80,9.9,13.6,100,0.04,,,0.04,VWS V14.01,2013-04-12 03:22:00,
2013-04-11 23:24:00,37.6,37.6,29.64,ENE,78,10.2,10.2,100,0.04,,,0.04,VWS V14.01,2013-04-12 03:24:00,
2013-04-11 23:25:00,37.5,37.5,29.64,East,79,13.1,13.1,100,0.04,,,0.04,VWS V14.01,2013-04-12 03:25:00,
2013-04-11 23:26:00,37.5,37.5,29.64,East,80,11.4,13.1,100,0.04,,,0.04,VWS V14.01,2013-04-12 03:26:00,
2013-04-11 23:28:00,37.5,37.5,29.65,ENE,70,11.2,13.5,100,0.04,,,0.04,VWS V14.01,2013-04-12 03:28:00,
2013-04-11 23:32:00,37.6,37.6,29.64,East,97,9.0,13.3,100,0.04,,,0.04,VWS V14.01,2013-04-12 03:32:00,
2013-04-11 23:34:00,37.5,37.5,29.63,ENE,77,15.3,15.3,100,0.04,,,0.04,VWS V14.01,2013-04-12 03:34:00,
2013-04-11 23:37:00,37.5,37.5,29.63,East,81,12.4,15.2,100,0.04,,,0.04,VWS V14.01,2013-04-12 03:37:00,
2013-04-11 23:38:00,37.5,37.5,29.63,East,81,12.4,15.2,100,0.04,,,0.04,VWS V14.01,2013-04-12 03:38:00,
2013-04-11 23:40:00,37.6,37.6,29.62,East,85,9.2,12.1,100,0.04,,,0.04,VWS V14.01,2013-04-12 03:40:00,
2013-04-11 23:43:00,37.5,37.5,29.62,East,91,10.2,10.2,100,0.04,,,0.04,VWS V14.01,2013-04-12 03:43:00,
2013-04-11 23:44:00,37.5,37.5,29.63,East,83,16.5,16.5,100,0.04,,,0.04,VWS V14.01,2013-04-12 03:44:00,
2013-04-11 23:48:00,37.5,37.5,29.64,East,90,10.9,16.0,100,0.04,,,0.04,VWS V14.01,2013-04-12 03:48:00,
2013-04-11 23:49:00,37.5,37.5,29.63,ENE,77,12.3,12.3,100,0.04,,,0.04,VWS V14.01,2013-04-12 03:49:00,
2013-04-11 23:50:00,37.5,37.5,29.62,ENE,62,10.4,12.9,100,0.04,,,0.04,VWS V14.01,2013-04-12 03:50:00,
2013-04-11 23:54:00,37.5,37.5,29.62,East,99,11.2,11.2,100,0.04,,,0.04,VWS V14.01,2013-04-12 03:54:00,
2013-04-11 23:55:00,37.5,37.5,29.62,East,86,16.2,16.2,100,0.04,,,0.04,VWS V14.01,2013-04-12 03:55:00,
2013-04-11 23:56:00,37.5,37.5,29.62,East,86,16.2,16.2,100,0.04,,,0.04,VWS V14.01,2013-04-12 03:56:00,
2013-04-11 23:59:00,37.6,37.6,29.64,East,92,9.0,17.7,100,0.08,,,0.79,VWS V14.01,2013-04-12 03:59:00,